[[{"header":{"parameterUnit":"m.s-1","parameterCategory":1,"la1":30.6,"la2":29.2853,"lo1":-89.7004,"lo2":-87.6739,"dy":0.0162,"dx":0.0183,"nx":112,"ny":82,"refTime":"2023-10-09T18:00:00:Z","depth":0,"parameterNumber":2,"parameterNumberName":"U-component_of_WINDS"},"data":[0.0,0.0,0.0,0.0,0.0,0.0,0.0,0.0,0.0,0.0,0.0,0.0,0.0,0.0,0.0,0.0,0.0,0.0,0.0,0.0,0.0,0.0,0.0,0.0,0.0,0.0,0.0,0.0,0.0,0.0,0.0,0.0,0.0,0.0,0.0,0.0,0.0,0.0,0.0,0.0,0.0,0.0,0.0,0.0,0.0,0.0,0.0,0.0,0.0,0.0,0.0,0.0,0.0,0.0,0.0,0.0,0.0,0.0,0.0,0.0,0.0,0.0,0.0,0.0,0.0,0.0,0.0,0.0,0.0,0.0,0.0,0.0,0.0,0.0,0.0,0.0,0.0,0.0,0.0,0.0,0.0,0.0,0.0,0.0,0.0,0.0,0.0,0.0,0.0,0.0,3.0216,3.0216,2.9848,2.9573,2.9504,2.87,2.8149,2.7989,0.0,0.0,0.0,0.0,0.0,0.0,0.0,0.0,0.0,0.0,0.0,0.0,0.0,0.0,0.0,0.0,0.0,0.0,0.0,0.0,0.0,0.0,0.0,0.0,0.0,0.0,0.0,0.0,0.0,0.0,0.0,0.0,0.0,0.0,0.0,0.0,0.0,0.0,0.0,0.0,0.0,0.0,0.0,0.0,0.0,0.0,0.0,0.0,0.0,0.0,0.0,0.0,0.0,0.0,0.0,0.0,0.0,0.0,0.0,0.0,0.0,0.0,0.0,0.0,0.0,0.0,0.0,0.0,0.0,0.0,0.0,0.0,0.0,0.0,0.0,0.0,0.0,0.0,0.0,0.0,0.0,0.0,0.0,0.0,0.0,0.0,0.0,0.0,0.0,0.0,0.0,0.0,0.0,0.0,0.0,0.0,0.0,0.0,0.0,0.0,0.0,0.0,0.0,0.0,3.0216,3.0216,3.0147,2.994,2.9527,2.9366,2.8907,2.8035,0.0,0.0,0.0,0.0,0.0,0.0,0.0,0.0,0.0,0.0,0.0,0.0,0.0,0.0,0.0,0.0,0.0,0.0,0.0,0.0,0.0,0.0,0.0,0.0,0.0,0.0,0.0,0.0,0.0,0.0,0.0,0.0,0.0,0.0,0.0,0.0,0.0,0.0,0.0,0.0,0.0,0.0,0.0,0.0,0.0,0.0,0.0,0.0,0.0,0.0,0.0,0.0,0.0,0.0,0.0,0.0,0.0,0.0,0.0,0.0,0.0,0.0,0.0,0.0,0.0,0.0,0.0,0.0,0.0,0.0,0.0,0.0,0.0,0.0,0.0,0.0,0.0,0.0,0.0,0.0,0.0,0.0,0.0,0.0,0.0,0.0,0.0,0.0,0.0,0.0,0.0,0.0,0.0,0.0,0.0,0.0,0.0,0.0,0.0,0.0,0.0,0.0,0.0,3.0216,3.0216,3.0216,3.0216,3.0124,2.9917,2.9642,2.9297,2.8838,2.8057,0.0,0.0,0.0,0.0,0.0,0.0,0.0,0.0,0.0,0.0,0.0,0.0,0.0,0.0,0.0,0.0,0.0,0.0,0.0,0.0,0.0,0.0,0.0,0.0,0.0,0.0,0.0,0.0,0.0,0.0,0.0,0.0,0.0,0.0,0.0,0.0,0.0,0.0,0.0,0.0,0.0,0.0,0.0,0.0,0.0,0.0,0.0,0.0,0.0,0.0,0.0,0.0,0.0,0.0,0.0,0.0,0.0,0.0,0.0,0.0,0.0,0.0,0.0,0.0,0.0,0.0,0.0,0.0,0.0,0.0,0.0,0.0,0.0,0.0,0.0,0.0,0.0,0.0,0.0,0.0,0.0,0.0,0.0,0.0,0.0,0.0,0.0,0.0,0.0,0.0,0.0,0.0,0.0,0.0,0.0,0.0,0.0,0.0,0.0,0.0,0.0,0.0,3.0583,3.0583,3.0583,3.0468,3.0399,3.0399,2.994,2.9619,2.9504,2.8769,0.0,0.0,0.0,0.0,0.0,0.0,0.0,0.0,0.0,0.0,0.0,0.0,0.0,0.0,0.0,0.0,0.0,0.0,0.0,0.0,0.0,0.0,0.0,0.0,0.0,0.0,0.0,0.0,0.0,0.0,0.0,0.0,0.0,0.0,0.0,0.0,0.0,0.0,0.0,0.0,0.0,0.0,0.0,0.0,0.0,0.0,0.0,0.0,0.0,0.0,0.0,0.0,0.0,0.0,0.0,0.0,0.0,0.0,0.0,0.0,0.0,0.0,0.0,0.0,0.0,0.0,0.0,0.0,0.0,0.0,0.0,0.0,0.0,0.0,0.0,0.0,0.0,0.0,0.0,0.0,0.0,0.0,0.0,0.0,0.0,0.0,0.0,0.0,0.0,0.0,0.0,0.0,0.0,0.0,0.0,0.0,0.0,0.0,0.0,0.0,0.0,0.0,3.1639,3.1662,3.1662,3.1226,3.095,3.095,3.0468,2.9963,2.9527,2.9435,0.0,0.0,0.0,0.0,0.0,0.0,0.0,0.0,0.0,0.0,0.0,0.0,0.0,0.0,0.0,0.0,0.0,0.0,0.0,0.0,0.0,0.0,0.0,0.0,0.0,0.0,0.0,0.0,0.0,0.0,0.0,0.0,0.0,0.0,0.0,0.0,0.0,0.0,0.0,0.0,0.0,0.0,0.0,0.0,0.0,0.0,0.0,0.0,0.0,0.0,0.0,0.0,0.0,0.0,0.0,0.0,0.0,0.0,0.0,0.0,0.0,0.0,0.0,0.0,0.0,0.0,0.0,0.0,0.0,0.0,0.0,0.0,0.0,0.0,0.0,0.0,0.0,0.0,0.0,0.0,0.0,0.0,0.0,0.0,0.0,0.0,0.0,0.0,0.0,0.0,0.0,0.0,0.0,0.0,0.0,0.0,0.0,0.0,0.0,0.0,0.0,0.0,3.0996,3.079,0.0,3.0629,3.0514,3.0514,3.0331,3.0147,2.9963,0.0,0.0,0.0,0.0,0.0,0.0,0.0,0.0,0.0,0.0,0.0,0.0,0.0,0.0,0.0,0.0,0.0,0.0,0.0,0.0,0.0,0.0,0.0,0.0,0.0,0.0,0.0,0.0,0.0,0.0,0.0,0.0,0.0,0.0,0.0,0.0,0.0,0.0,0.0,0.0,0.0,0.0,0.0,0.0,0.0,0.0,0.0,0.0,0.0,0.0,0.0,0.0,0.0,0.0,0.0,0.0,0.0,0.0,0.0,0.0,0.0,0.0,0.0,0.0,0.0,0.0,0.0,0.0,0.0,0.0,0.0,0.0,0.0,0.0,0.0,0.0,0.0,0.0,0.0,0.0,0.0,0.0,0.0,0.0,0.0,0.0,0.0,0.0,0.0,0.0,0.0,0.0,0.0,0.0,0.0,0.0,0.0,0.0,0.0,0.0,0.0,0.0,3.1249,3.0928,3.0721,0.0,3.056,3.0468,3.0468,3.0308,3.0216,3.0216,0.0,0.0,0.0,0.0,0.0,0.0,0.0,0.0,0.0,0.0,0.0,0.0,0.0,0.0,0.0,0.0,0.0,0.0,0.0,0.0,0.0,0.0,0.0,0.0,0.0,0.0,0.0,0.0,0.0,0.0,0.0,0.0,0.0,0.0,0.0,0.0,0.0,0.0,0.0,0.0,0.0,0.0,0.0,0.0,0.0,0.0,0.0,0.0,0.0,0.0,0.0,0.0,0.0,0.0,0.0,0.0,0.0,0.0,0.0,0.0,0.0,0.0,0.0,0.0,0.0,0.0,0.0,0.0,0.0,0.0,0.0,0.0,0.0,0.0,0.0,0.0,0.0,0.0,0.0,0.0,0.0,0.0,0.0,0.0,0.0,0.0,0.0,0.0,0.0,0.0,0.0,0.0,0.0,0.0,0.0,0.0,0.0,0.0,0.0,0.0,0.0,0.0,3.1754,3.1754,3.1754,3.1754,3.1295,3.0996,3.0996,3.0514,3.0216,0.0,0.0,0.0,0.0,0.0,0.0,0.0,0.0,0.0,0.0,0.0,0.0,0.0,0.0,0.0,0.0,0.0,0.0,0.0,0.0,0.0,0.0,0.0,0.0,0.0,0.0,0.0,0.0,0.0,0.0,0.0,0.0,0.0,0.0,0.0,0.0,0.0,0.0,0.0,0.0,0.0,0.0,0.0,0.0,0.0,0.0,0.0,0.0,0.0,0.0,0.0,0.0,0.0,0.0,0.0,0.0,0.0,0.0,0.0,0.0,0.0,0.0,0.0,0.0,0.0,0.0,0.0,0.0,0.0,0.0,0.0,0.0,0.0,0.0,0.0,0.0,0.0,0.0,0.0,0.0,0.0,0.0,0.0,0.0,0.0,0.0,0.0,0.0,0.0,0.0,0.0,0.0,0.0,0.0,0.0,0.0,0.0,0.0,0.0,0.0,0.0,0.0,0.0,3.1226,3.0905,3.0675,3.0675,3.0537,3.0445,3.0445,3.0308,3.0216,3.0216,0.0,0.0,0.0,0.0,0.0,0.0,0.0,0.0,0.0,0.0,0.0,0.0,0.0,0.0,0.0,0.0,0.0,0.0,0.0,0.0,0.0,0.0,0.0,0.0,0.0,0.0,0.0,0.0,0.0,0.0,0.0,0.0,0.0,0.0,0.0,0.0,0.0,0.0,0.0,0.0,0.0,0.0,0.0,0.0,0.0,0.0,0.0,0.0,0.0,0.0,0.0,0.0,0.0,0.0,0.0,0.0,0.0,0.0,0.0,0.0,0.0,0.0,0.0,0.0,0.0,0.0,0.0,0.0,0.0,0.0,0.0,0.0,0.0,0.0,0.0,0.0,0.0,0.0,0.0,0.0,0.0,0.0,0.0,0.0,0.0,0.0,0.0,0.0,0.0,0.0,0.0,0.0,0.0,0.0,0.0,0.0,0.0,0.0,0.0,0.0,0.0,0.0,3.0698,3.0422,3.0216,3.0216,3.0216,3.0216,3.0216,3.0216,3.0216,3.0216,0.0,0.0,0.0,0.0,0.0,0.0,0.0,0.0,0.0,0.0,0.0,0.0,0.0,0.0,0.0,0.0,0.0,0.0,0.0,0.0,0.0,0.0,0.0,0.0,0.0,0.0,0.0,0.0,0.0,0.0,0.0,0.0,0.0,0.0,0.0,0.0,0.0,0.0,0.0,0.0,0.0,0.0,0.0,0.0,0.0,0.0,0.0,0.0,0.0,0.0,0.0,0.0,0.0,0.0,0.0,0.0,0.0,0.0,0.0,0.0,0.0,0.0,0.0,0.0,0.0,0.0,0.0,0.0,0.0,0.0,0.0,0.0,0.0,0.0,0.0,0.0,0.0,0.0,0.0,0.0,0.0,0.0,0.0,0.0,0.0,0.0,0.0,0.0,0.0,0.0,0.0,0.0,0.0,0.0,0.0,0.0,0.0,0.0,0.0,0.0,0.0,0.0,3.0216,3.0216,3.0216,3.0216,3.0216,3.0216,3.0216,3.0216,3.0216,3.0216,0.0,0.0,0.0,0.0,0.0,0.0,0.0,0.0,0.0,0.0,0.0,0.0,0.0,0.0,0.0,0.0,0.0,0.0,0.0,0.0,0.0,0.0,0.0,0.0,0.0,0.0,0.0,0.0,0.0,0.0,0.0,0.0,0.0,0.0,0.0,0.0,0.0,0.0,0.0,0.0,0.0,0.0,0.0,0.0,0.0,0.0,0.0,0.0,0.0,0.0,0.0,0.0,0.0,0.0,0.0,0.0,0.0,0.0,0.0,0.0,4.0688,0.0,0.0,0.0,0.0,0.0,0.0,0.0,0.0,0.0,0.0,0.0,0.0,0.0,0.0,0.0,0.0,0.0,0.0,0.0,0.0,0.0,0.0,0.0,0.0,0.0,0.0,0.0,0.0,0.0,0.0,0.0,0.0,0.0,0.0,0.0,0.0,0.0,0.0,0.0,0.0,0.0,3.0216,3.0216,3.0216,3.0216,3.0216,3.0216,3.0216,3.0216,3.0216,3.0216,3.0216,0.0,0.0,0.0,0.0,0.0,0.0,0.0,0.0,0.0,0.0,0.0,0.0,0.0,0.0,0.0,0.0,0.0,0.0,0.0,0.0,0.0,0.0,0.0,0.0,0.0,0.0,0.0,0.0,0.0,0.0,0.0,0.0,0.0,0.0,0.0,0.0,0.0,0.0,0.0,0.0,0.0,0.0,0.0,0.0,0.0,0.0,0.0,0.0,0.0,0.0,0.0,0.0,0.0,0.0,0.0,0.0,0.0,0.0,0.0,0.0,4.0688,0.0,0.0,0.0,0.0,0.0,0.0,0.0,0.0,0.0,0.0,0.0,0.0,0.0,0.0,0.0,0.0,0.0,0.0,0.0,0.0,0.0,0.0,0.0,0.0,0.0,0.0,0.0,0.0,0.0,0.0,0.0,0.0,0.0,0.0,0.0,0.0,0.0,0.0,0.0,0.0,3.056,3.0376,3.0216,3.0216,3.0216,3.0216,3.0216,3.0216,3.0216,3.0216,3.0216,0.0,0.0,0.0,0.0,0.0,0.0,0.0,0.0,0.0,0.0,0.0,0.0,0.0,0.0,0.0,0.0,0.0,0.0,0.0,0.0,0.0,0.0,0.0,0.0,0.0,0.0,0.0,0.0,0.0,0.0,0.0,0.0,0.0,0.0,0.0,0.0,0.0,0.0,0.0,0.0,0.0,0.0,0.0,0.0,0.0,0.0,0.0,0.0,0.0,0.0,0.0,0.0,0.0,4.2749,4.2749,4.257,4.257,4.257,4.2514,4.1474,4.1025,4.1025,4.1025,0.0,0.0,0.0,0.0,0.0,0.0,0.0,0.0,0.0,0.0,0.0,0.0,0.0,0.0,0.0,0.0,0.0,0.0,0.0,0.0,0.0,0.0,0.0,0.0,3.1502,3.1157,0.0,0.0,0.0,0.0,0.0,0.0,0.0,0.0,0.0,0.0,0.0,0.0,3.1088,3.0767,3.0491,3.0491,3.0491,3.0491,3.0491,3.0491,3.0445,3.0354,3.0354,3.0308,0.0,0.0,0.0,0.0,0.0,0.0,0.0,0.0,0.0,0.0,0.0,0.0,0.0,0.0,0.0,0.0,0.0,0.0,0.0,0.0,0.0,0.0,0.0,0.0,0.0,0.0,0.0,0.0,0.0,0.0,0.0,0.0,4.0603,4.1278,0.0,0.0,0.0,0.0,0.0,0.0,0.0,0.0,0.0,0.0,0.0,0.0,0.0,4.2374,4.2458,4.3022,4.3079,4.257,4.3165,4.3165,4.257,4.257,4.257,4.257,4.2402,0.0,4.2345,4.2345,0.0,0.0,0.0,0.0,0.0,0.0,0.0,0.0,0.0,0.0,0.0,0.0,0.0,0.0,0.0,0.0,0.0,0.0,0.0,0.0,0.0,0.0,3.1777,3.1754,3.203,3.2259,0.0,3.1134,3.0216,3.0216,3.0583,0.0,0.0,0.0,0.0,0.0,0.0,0.0,3.1662,3.1593,3.1547,3.1525,3.1547,3.157,3.157,3.1547,3.1364,3.0928,3.0905,3.0698,3.0239,3.0216,0.0,0.0,0.0,0.0,0.0,0.0,0.0,0.0,0.0,0.0,0.0,0.0,0.0,0.0,0.0,0.0,0.0,0.0,0.0,0.0,0.0,0.0,0.0,0.0,0.0,0.0,0.0,0.0,0.0,4.0659,4.1306,4.1587,4.2177,4.257,0.0,0.0,0.0,0.0,0.0,0.0,0.0,0.0,0.0,4.3165,4.3165,4.3336,4.3678,4.4385,4.4559,4.4248,4.4906,4.5054,4.4789,4.4789,4.4615,4.4238,4.4257,4.4048,4.3588,4.289,4.257,4.257,0.0,0.0,0.0,0.0,4.1803,4.1285,4.1107,4.0658,0.0,3.9773,0.0,0.0,0.0,0.0,0.0,0.0,0.0,0.0,0.0,0.0,3.3476,3.3476,3.3407,3.3338,3.3338,3.2604,3.1938,0.0,3.2121,3.2282,3.2282,0.0,0.0,0.0,0.0,3.1846,3.2121,3.1938,3.1754,3.1731,3.1754,3.1777,3.1777,3.1754,3.1662,3.1456,3.1433,3.1035,3.0197,3.0419,2.9889,0.0,0.0,0.0,0.0,0.0,0.0,0.0,0.0,0.0,0.0,0.0,0.0,0.0,0.0,0.0,0.0,0.0,0.0,0.0,0.0,0.0,0.0,0.0,0.0,0.0,0.0,0.0,0.0,4.1699,4.2093,4.2093,4.2654,4.3048,0.0,0.0,0.0,0.0,0.0,0.0,4.3048,4.3381,4.3738,4.4064,4.4064,4.4383,4.4993,4.5551,4.5727,4.5504,4.6168,4.6343,4.5991,4.5815,4.5493,4.4996,4.4813,4.4486,4.3967,4.3285,4.3048,4.3048,4.3048,4.2964,4.2823,4.2823,4.2502,4.2001,4.2001,4.1544,4.0896,4.0803,0.0,3.979,3.9599,0.0,0.0,0.0,0.0,3.6057,3.6261,3.5568,3.4808,3.4808,3.4601,3.4395,3.4395,3.4211,3.3889,0.0,3.3384,3.3476,3.3476,0.0,0.0,0.0,0.0,3.2443,3.2833,3.2443,3.2144,3.2121,3.2144,3.2144,3.2144,3.2144,3.2099,3.1961,3.1961,3.1581,3.0555,3.0701,2.9929,2.8069,0.0,0.0,0.0,0.0,0.0,0.0,0.0,0.0,0.0,0.0,0.0,0.0,0.0,0.0,0.0,0.0,0.0,0.0,0.0,0.0,0.0,0.0,0.0,0.0,0.0,0.0,0.0,0.0,0.0,4.3413,4.3947,0.0,0.0,0.0,0.0,4.4312,4.4961,4.5052,4.4312,4.5631,4.6078,4.5389,4.5417,4.575,4.6344,4.6432,4.6137,4.5504,4.6248,4.5865,4.4582,4.3949,4.3632,4.3544,4.2984,4.2744,4.2801,4.3835,4.4312,4.4312,4.4312,4.3975,4.3441,4.3441,4.3076,4.257,4.257,4.248,4.239,4.191,4.1082,4.0239,3.979,3.8994,0.0,0.0,3.7767,3.6159,3.6969,3.6002,3.4808,3.4808,3.5129,3.5428,3.5428,3.5795,3.5566,0.0,3.366,3.3958,3.3958,0.0,3.4693,3.4716,3.4257,3.3889,3.3912,3.3499,3.3201,3.3201,3.3201,3.3201,3.3201,3.3201,3.2994,3.2489,3.2443,3.2236,3.1777,3.0726,2.9612,2.8545,2.7102,0.0,0.0,0.0,0.0,0.0,0.0,0.0,0.0,0.0,0.0,0.0,0.0,0.0,0.0,0.0,0.0,0.0,0.0,0.0,0.0,0.0,0.0,0.0,0.0,0.0,0.0,0.0,0.0,4.4088,4.4284,0.0,4.4425,4.4425,4.4583,4.5046,4.4862,4.4847,4.5078,4.478,4.4847,4.5569,4.514,4.5053,4.5282,4.613,4.6047,4.4966,4.6508,4.6766,4.5836,4.6013,4.5607,4.4821,4.455,4.4253,4.3849,4.4245,4.3947,4.3245,4.3245,4.3104,4.2907,4.2907,4.2767,4.257,4.257,4.239,4.191,4.1082,4.0428,3.9886,3.9695,3.9407,3.9188,3.9503,3.8579,3.7568,3.7866,3.6666,3.5465,3.5465,3.5318,3.506,3.506,3.5198,3.5106,3.4395,3.49,3.5359,3.5037,3.4877,3.4693,3.4349,3.3866,3.3545,3.3545,3.3384,3.3292,3.3292,3.3292,3.3292,3.3292,3.3292,3.3201,3.3017,3.2994,3.2307,3.068,3.0578,2.9404,2.6968,2.6749,2.6231,0.0,0.0,0.0,0.0,0.0,0.0,0.0,0.0,0.0,0.0,0.0,0.0,0.0,0.0,0.0,0.0,0.0,0.0,0.0,0.0,0.0,0.0,0.0,0.0,0.0,0.0,4.4425,4.4425,4.4425,4.4425,4.4425,4.4228,4.4365,4.5096,4.4715,4.4669,4.511,4.4821,4.4875,4.5604,4.54,4.5471,4.5933,4.6841,4.697,4.6248,4.7676,4.7965,4.7262,4.7216,4.6721,4.5814,4.5302,4.4795,4.4162,4.4104,4.3497,4.2598,4.2795,4.2879,4.2879,4.2654,4.257,4.257,4.257,4.239,4.191,4.0896,4.0334,4.0076,3.9695,3.9599,3.9599,3.9599,3.8994,3.8285,3.799,3.6969,3.5853,3.5568,3.5201,3.4808,3.4808,3.4808,3.4808,3.4808,3.5336,3.5657,3.5336,3.5014,3.467,3.4326,3.3843,3.3522,3.3522,3.3384,3.3292,3.3292,3.3292,3.3292,3.3292,3.3292,3.3292,3.3292,3.3292,3.2443,3.0535,3.0444,2.9353,2.6774,2.6674,2.6201,2.5362,0.0,0.0,0.0,0.0,0.0,0.0,0.0,0.0,0.0,0.0,0.0,0.0,0.0,0.0,0.0,0.0,0.0,0.0,0.0,0.0,0.0,0.0,0.0,4.4425,4.4425,4.4397,4.4369,4.4369,4.4369,4.434,4.3807,4.3834,4.4435,4.4558,4.4634,4.4604,4.5879,4.6314,4.5716,4.6267,4.7236,4.849,4.8511,4.8799,4.9521,4.9555,4.9249,4.8498,4.7139,4.6491,4.6314,4.5018,4.4088,4.3526,4.3526,4.316,4.2683,4.3245,4.3469,4.3385,4.2795,4.257,4.257,4.257,4.257,4.239,4.1452,4.1082,4.0869,3.986,3.9573,3.9573,3.9573,3.8943,3.8136,3.7344,3.6541,3.575,3.4993,3.4808,3.4808,3.4808,3.4808,3.4808,3.4808,3.4808,3.4785,3.4785,3.4785,3.4762,3.4762,3.4303,0.0,3.3981,3.3568,3.3292,3.3292,3.3292,3.3292,3.3292,3.3292,3.3292,3.3292,3.3292,3.2745,3.1586,3.0432,2.9282,2.8116,2.6793,2.5784,2.5381,0.0,0.0,0.0,0.0,0.0,0.0,0.0,0.0,0.0,0.0,0.0,0.0,0.0,0.0,0.0,0.0,0.0,0.0,0.0,0.0,0.0,0.0,4.4425,4.4425,4.4425,4.4256,4.3807,4.375,4.3737,4.3706,4.3595,4.4008,4.5208,4.5306,4.5446,4.5961,4.6395,4.6695,4.7018,4.6841,4.6857,4.7205,4.6652,4.6508,4.6743,4.7243,4.7056,4.6369,4.6461,4.5958,4.4926,4.4583,4.4312,4.4144,4.4144,4.4059,4.3835,4.3104,4.2823,4.2823,4.2654,4.257,4.257,4.257,4.239,4.191,4.1268,4.0896,4.0348,3.9265,3.8945,3.8867,3.8475,3.7784,3.7172,3.7383,3.6406,3.5402,3.5577,3.5178,3.4808,3.4808,3.4808,3.4808,3.4808,3.4808,3.467,3.428,3.4211,3.4096,3.3752,3.3568,0.0,3.3476,3.3361,3.3292,3.3292,3.3292,3.3292,3.3292,3.3292,3.3292,3.3292,3.2544,3.1586,3.0432,2.9282,2.8135,2.7098,2.668,2.6206,0.0,0.0,0.0,0.0,0.0,0.0,0.0,0.0,0.0,0.0,0.0,0.0,0.0,0.0,0.0,0.0,0.0,0.0,0.0,0.0,0.0,0.0,4.4309,4.4287,4.3666,4.3863,4.3807,4.3188,4.3602,4.3934,4.3918,4.424,4.4934,4.6334,4.5848,4.595,4.6954,4.6728,4.6819,4.7188,4.7109,4.725,4.7524,4.735,4.7327,4.7317,4.7995,4.7748,4.6815,4.7435,4.709,0.0,4.5926,4.583,4.5577,4.5577,4.5436,0.0,0.0,0.0,0.0,0.0,4.257,4.257,4.257,4.239,4.2091,4.1517,4.124,4.0815,3.9747,3.9453,3.928,3.8804,3.8324,3.7782,3.7412,3.6727,3.5901,3.5498,3.5097,3.4808,3.4808,3.4808,3.4808,3.4808,3.4808,0.0,3.4395,3.4349,3.4234,3.3958,3.3912,3.3843,3.3614,3.3591,3.3499,3.3315,3.3292,3.3292,3.3292,3.3292,0.0,0.0,0.0,3.0845,2.9282,2.8135,0.0,0.0,0.0,2.6463,2.6224,0.0,0.0,0.0,2.5106,2.4904,0.0,0.0,0.0,0.0,0.0,0.0,0.0,0.0,0.0,0.0,0.0,0.0,0.0,0.0,0.0,0.0,4.393,4.3999,4.2744,4.3229,4.337,4.2806,4.3795,4.4556,4.4586,4.52,4.6126,4.7407,4.6494,4.6346,4.7558,0.0,0.0,0.0,0.0,4.8112,4.8727,4.9259,4.953,4.9432,5.0171,4.9761,4.8496,4.8963,4.8756,4.8114,4.7956,4.76,4.7094,4.7094,4.6785,4.6111,4.4369,4.3666,4.3526,4.2992,4.2795,4.2795,4.2795,0.0,0.0,4.2195,4.2012,4.1709,4.0817,4.044,4.0319,3.9721,3.9503,3.9117,3.7668,3.7167,3.6788,3.5364,3.4969,3.4969,3.4969,3.4969,3.4969,3.4969,3.4969,3.4969,3.4969,3.4877,3.4808,3.4808,3.4808,3.4624,3.4142,3.4096,3.3935,3.3499,0.0,0.0,3.3453,3.3407,3.3361,3.3161,3.1936,3.0224,2.8116,2.7098,2.6591,2.6591,2.6591,2.6591,2.6591,2.6591,2.6389,2.6023,2.5619,2.5417,0.0,0.0,0.0,0.0,0.0,0.0,0.0,0.0,0.0,0.0,0.0,0.0,0.0,0.0,0.0,4.2851,4.3247,4.3455,4.2688,4.3631,4.4153,4.3516,4.4033,4.4734,4.5287,4.5507,4.5897,4.6732,4.7088,4.7303,4.7588,4.8543,4.9097,4.9097,4.922,4.9343,4.9466,4.9047,4.8823,4.8681,0.0,0.0,4.7565,4.768,4.7387,4.6643,4.6686,4.6588,4.6476,4.6476,4.642,4.6195,4.5324,4.4678,4.4228,4.4088,4.4059,4.4059,4.4059,4.4059,4.3967,4.3443,4.2998,4.2439,4.1379,4.0738,0.0,3.973,3.9091,3.8485,3.7938,3.7321,3.6716,3.6102,3.5979,3.5979,3.5979,3.5979,3.5979,3.5979,3.5979,3.5979,3.5979,3.5336,3.4808,3.4808,3.4808,3.4762,3.467,3.4647,3.4601,3.4509,3.4509,3.4509,3.4509,3.4119,3.3436,3.259,3.0223,2.8242,2.7008,2.6682,2.6591,2.6591,2.6591,2.6591,2.6591,2.6591,2.6554,2.6463,2.6041,2.5674,0.0,0.0,0.0,0.0,0.0,0.0,0.0,0.0,0.0,0.0,0.0,4.3934,4.4002,0.0,4.2913,4.2619,4.3373,4.3546,4.2298,4.4065,4.5128,4.3777,4.482,4.5773,4.6117,4.672,4.7384,4.8112,4.8112,4.8266,4.8635,4.8974,4.9158,4.9158,4.9497,4.9682,4.9682,4.927,4.8893,4.8537,4.8502,4.7817,4.686,4.7501,4.7384,4.6785,4.7066,4.7207,4.7207,4.7207,4.7038,4.6729,4.6392,4.5689,4.4874,4.4874,4.4678,4.4425,4.4425,4.4425,4.4331,4.4115,4.3832,4.3491,4.2685,4.2027,4.1586,4.1002,4.014,3.907,3.8531,3.7774,3.7003,3.6426,3.6277,3.6277,3.6277,3.6277,3.6277,3.6277,3.6277,3.6277,3.6277,3.5864,3.5543,3.5543,3.5543,3.5451,3.5198,3.5152,3.506,3.4831,3.4808,3.4576,3.3899,3.2999,3.2317,3.1785,2.9762,2.8033,2.6995,2.6701,2.6591,2.6591,2.6591,2.6591,2.6591,2.6591,2.6591,2.6591,2.6371,2.6169,0.0,0.0,0.0,0.0,0.0,0.0,0.0,4.4321,4.4245,4.4167,4.3664,4.3466,4.4035,4.3169,4.2471,4.2539,4.3484,4.3716,4.2361,4.4728,4.6028,4.4588,4.5773,4.678,4.7031,4.7882,4.8683,4.9435,4.8943,4.8881,4.9435,4.9066,4.882,4.882,4.9651,5.002,4.9897,5.0026,4.9614,4.8673,4.8791,4.8006,4.6673,4.7685,4.7913,4.7403,4.7909,4.8134,4.8134,4.8134,4.7825,4.7375,4.7375,4.6701,4.5689,4.5549,4.5212,4.4762,4.4621,4.4499,4.4377,4.4265,4.4115,4.3832,4.3423,4.2943,4.2484,4.2092,4.1198,4.0058,3.9104,3.8267,3.7524,3.6472,3.6277,3.6277,3.6277,3.6277,3.6277,3.6277,3.6277,3.6277,3.6277,3.6277,3.6277,3.6277,3.6277,3.6117,3.5703,3.5657,3.552,3.5129,3.5083,3.4593,3.3158,3.1709,3.0901,3.0929,2.942,2.8271,2.74,2.6921,2.6701,2.6701,2.6628,2.6591,2.6591,2.6591,2.6591,2.6591,2.6591,2.6591,4.4425,4.4862,4.5413,4.5413,4.5413,4.5269,0.0,4.4038,4.3413,4.2885,4.2772,4.2754,4.2768,4.2223,4.1874,4.2482,4.2681,4.3113,4.4062,4.5545,4.6695,4.7121,4.678,4.7013,4.8232,4.7958,4.7964,4.8644,4.8666,4.8666,4.8727,4.9251,4.9558,4.9558,5.082,5.119,5.0574,5.1748,5.1334,4.9321,4.9911,4.9339,4.7909,4.8094,4.8122,4.8021,4.8106,4.8134,4.8134,4.8134,4.8078,4.8021,4.8021,4.76,4.6926,4.6392,4.6139,4.5998,4.5436,4.4925,4.4456,4.3875,4.3136,4.236,4.2262,4.1895,4.1524,4.1424,4.1324,4.0795,3.9208,3.8687,3.8267,3.6688,3.6277,3.6277,3.6277,3.6277,3.6277,3.6277,3.6277,3.6277,3.6277,3.6277,3.6277,3.6277,3.6277,3.6254,3.6185,3.6185,3.6162,3.6117,3.6117,3.5455,3.3791,3.1523,3.0148,2.9643,2.8484,2.7805,2.7691,2.7325,2.7105,2.7105,2.6756,2.6591,2.6591,2.6591,2.6591,2.6591,2.6591,2.6591,4.4425,4.4329,4.4322,4.4322,4.4067,4.3726,4.3442,4.3206,4.2857,4.2678,4.2273,4.2162,4.2498,4.2024,4.179,4.2453,4.3257,4.392,4.4438,4.5698,4.6804,4.7533,4.6929,4.7016,4.8438,4.8355,4.8271,4.8604,4.8604,4.8974,4.9774,5.0112,5.0636,5.1436,5.239,5.2458,5.179,5.1843,5.1208,4.9882,4.9305,4.8681,4.8134,4.8134,4.8134,4.8134,4.8134,4.8134,4.8134,4.8134,4.8134,4.8134,4.8134,4.7965,4.7656,4.7066,4.6588,4.6251,4.597,4.5789,4.5539,4.5288,4.4443,4.3585,4.3585,4.2753,4.1796,4.1796,4.087,3.9622,3.9,3.8056,3.7227,3.6495,3.6277,3.6277,3.6277,3.6277,3.6277,3.6277,3.6277,3.6277,3.6277,3.6277,3.6277,3.6277,3.6277,3.6277,3.6277,3.6277,3.6036,3.5378,3.4,3.3127,3.3029,3.0873,2.9678,3.0178,2.8934,2.8132,2.8132,2.7728,2.7526,2.7526,2.7141,2.694,2.694,2.6701,2.6591,2.6591,2.6591,2.6591,4.42,4.3835,4.3533,4.3545,4.3088,4.2632,4.2612,4.2495,4.2298,4.2081,4.1822,4.1794,4.2519,4.2195,4.2188,4.2969,4.3744,4.4314,4.4755,4.5756,4.6755,4.7478,4.7306,4.7478,4.8521,4.8438,4.8438,4.8604,4.8974,4.962,5.0636,5.1221,5.199,5.2975,5.3622,5.3493,5.2743,5.2218,5.1315,5.0198,4.9165,4.8477,4.8134,4.8134,4.8134,4.8134,4.8134,4.8134,4.8134,4.8134,4.8134,4.8134,4.8134,4.8134,4.8078,4.7628,4.7178,4.6785,4.6616,4.6434,4.6308,4.614,4.5385,4.4606,4.4409,4.3616,4.2472,4.2045,4.0798,3.947,3.9022,3.7976,3.702,3.6801,3.6691,3.6691,3.6691,3.6691,3.6691,3.6691,3.6576,3.6484,3.6484,3.6369,3.6277,3.6277,3.6277,3.6277,3.6277,3.6277,3.5817,3.458,3.253,3.1496,3.2052,3.0236,2.9331,3.0255,2.917,2.8553,2.8553,2.8168,2.7948,2.7948,2.7545,2.7343,2.7343,2.694,2.6756,2.6756,2.6628,2.6591,4.3694,4.3497,4.3511,4.36,4.3105,4.258,4.2654,4.2166,4.1474,4.0856,4.1193,4.1762,4.251,4.2533,4.3008,4.4231,4.3925,4.3969,4.5298,4.6077,4.6755,4.7478,4.8187,4.8521,0.0,4.8019,4.7934,4.8521,4.9866,5.0636,5.0697,5.2575,5.3652,5.3683,5.4188,5.4164,5.3531,5.3347,5.2222,5.0198,5.0169,4.938,4.8134,4.8134,4.8134,4.8134,4.8134,4.8134,4.8134,4.8134,4.8134,4.8134,4.8134,4.8134,4.8134,4.8106,4.8078,4.7993,4.7403,4.6851,4.6339,4.573,4.5139,4.4637,4.4028,4.3926,4.3592,4.2106,4.1681,4.1254,3.9513,3.907,3.8847,3.7973,3.7747,3.7747,3.7747,3.7747,3.7747,3.7747,3.7333,3.7012,3.7012,3.6599,3.6277,3.6277,3.6277,3.6277,3.6277,3.6277,3.5817,3.458,3.3304,3.2052,3.0937,2.9667,2.8975,2.9094,2.8975,2.8975,2.8975,2.859,2.837,2.837,2.7967,2.7746,2.7746,2.7361,2.716,2.7141,2.6756,2.6591,4.3554,4.2879,4.2266,4.2245,4.179,4.1365,4.1397,4.1169,4.1053,4.1278,4.1474,4.1843,4.2531,4.2947,4.3336,4.3743,4.4019,4.4606,4.5958,4.5537,4.5898,4.8019,4.7649,4.7563,0.0,0.0,0.0,4.9928,5.042,5.1467,5.3283,5.4022,5.451,5.4886,5.5077,5.457,5.3217,5.2704,5.1868,5.0634,4.9813,4.8901,4.8134,4.8134,4.8134,4.8134,4.8134,4.8134,4.8134,4.8134,4.8134,4.8134,4.8134,4.8134,4.8134,4.8134,4.8134,4.8106,4.7881,4.7696,4.7466,4.7242,4.6376,4.5234,4.5029,4.4246,4.3127,4.1945,4.1304,4.0523,3.945,3.8671,3.8109,3.7906,3.7793,3.7793,3.7793,3.7793,3.7793,3.7793,3.7655,3.754,3.754,3.7104,3.6668,3.6323,3.6277,3.6277,3.6277,3.4891,3.3642,3.3304,3.1381,3.0001,2.9667,2.9213,2.8975,2.8975,2.8975,2.8975,2.8975,2.8847,2.8792,2.8792,2.8388,2.8187,2.8187,2.7765,2.7563,2.7563,2.7435,2.6767,4.2879,4.2233,4.1559,4.1334,4.0997,4.0688,4.0688,4.0688,4.0884,4.1502,4.1783,4.2149,4.2795,4.3413,4.3835,4.3835,4.4144,4.4769,4.5627,4.5355,4.5808,4.7649,4.7448,4.783,4.9228,0.0,0.0,5.0636,5.159,5.2883,5.4637,5.4877,5.5135,5.5491,5.4887,5.4068,5.302,5.2301,5.1477,5.055,4.9511,4.8724,4.8134,4.8134,4.8134,4.8134,4.8134,4.8134,4.8134,4.8134,4.8134,4.8134,4.8134,4.8134,4.8134,4.8134,4.8134,4.8134,4.8134,4.8134,4.8032,4.7931,4.7114,4.6168,4.5754,4.4861,4.3624,4.2207,4.142,4.0647,3.9439,3.878,3.8321,3.8321,3.8321,3.8321,3.8321,3.8321,3.8321,3.8321,3.8183,3.8068,3.8068,3.7655,3.7127,3.6622,3.62,3.6022,3.63,3.4558,3.3077,3.2623,3.0801,2.945,2.8975,2.8975,2.8975,2.8975,2.8975,2.8975,2.8975,2.8975,2.8975,2.8975,2.8737,2.8608,2.8608,2.8187,2.7985,2.7985,2.7362,2.6575,4.1783,4.1587,4.1418,4.0828,4.0688,4.0688,4.0688,4.0688,4.0884,4.1531,4.2149,4.2767,4.3413,4.4003,4.4425,4.4425,4.4425,4.4425,4.449,4.5627,4.6403,4.6579,4.7794,4.9136,5.0574,5.082,0.0,5.0882,0.0,5.4667,5.4635,5.525,5.5421,5.5421,5.386,5.302,5.2914,5.2193,5.1169,4.996,4.937,4.8752,4.8134,4.8134,4.8134,4.8134,4.8134,4.8134,4.8134,4.8134,4.8134,4.8134,4.8134,4.8134,4.8134,4.8134,4.8134,4.8134,4.8134,4.8134,4.8032,4.7494,4.7288,4.7081,4.6034,4.5609,4.5046,4.2687,4.2012,4.1558,3.9755,3.9308,3.9308,3.9308,3.9308,3.9308,3.9308,3.9308,3.9308,3.9308,3.8941,3.8619,3.8596,3.816,3.7655,3.7038,3.6005,3.5445,3.6105,3.5157,3.3888,3.2623,3.1381,3.0255,2.9094,2.8975,2.8975,2.8975,2.8975,2.8975,2.8975,2.8975,2.8975,2.8975,2.8975,2.8975,2.8975,2.8608,2.8425,2.829,2.6598,2.5809,4.1671,4.1278,4.0884,4.0744,4.0688,4.0688,4.0688,4.0688,4.0997,4.2121,4.2458,4.2907,4.3975,4.4312,4.4425,4.4425,4.4425,4.4769,4.5808,4.5355,4.5718,4.7819,4.835,4.9102,5.058,5.2513,0.0,0.0,5.433,5.4561,5.435,5.514,5.4887,5.3652,5.3232,5.2701,5.2085,5.1896,5.1169,4.996,4.9792,4.9174,4.8134,4.8134,4.8134,4.8134,4.8134,4.8134,4.8134,4.8134,4.8134,4.8134,4.8134,4.8134,4.8134,4.8134,4.8134,4.8134,4.8134,4.8134,4.8134,4.7931,4.7596,4.7184,4.6428,4.5449,4.4235,4.2463,4.1582,4.0779,3.9638,3.9308,3.9308,3.9308,3.9308,3.9308,3.9308,3.9308,3.9308,3.9308,3.9193,3.901,3.8642,3.8481,3.7838,3.6378,3.5637,3.5106,3.498,3.3098,3.1632,3.1265,3.0138,2.9331,2.8975,2.8975,2.8975,2.8975,2.8975,2.8975,2.8975,2.8975,2.8975,2.8975,2.8975,2.8975,2.8975,2.8883,2.8336,2.7364,2.6901,2.5485,4.1221,4.0969,4.0688,4.0688,4.0688,4.0772,4.1025,4.1081,4.1474,4.2711,4.2964,4.3273,4.4228,4.4425,4.4425,4.4425,4.4425,4.4676,4.5446,4.5201,4.5475,4.7046,4.8298,4.9614,5.0936,5.3285,5.4788,0.0,5.5018,5.4933,5.4857,5.4582,5.3964,5.302,5.2594,5.2301,5.1787,5.1787,5.1169,4.996,4.996,4.9314,4.8134,4.8134,4.8134,4.8134,0.0,4.8134,4.8134,4.8134,4.8134,4.8134,4.8134,4.8134,4.8134,4.8134,4.8134,4.8134,4.8134,4.8134,4.8032,4.7829,4.7391,4.6742,4.5768,4.467,4.3466,4.1899,4.1124,4.0455,3.9544,3.9308,3.9308,3.9308,3.9308,3.9308,3.9308,3.9308,3.9308,3.9308,3.9308,3.9216,3.8941,3.8403,3.7613,3.6282,3.504,3.3914,3.3247,3.1732,3.082,3.082,2.9667,2.8975,2.8975,2.8975,2.8975,2.8975,2.8975,2.8975,2.8975,2.8975,2.8975,2.8975,2.8975,2.8737,2.8122,2.8122,2.7383,2.6156,2.5546,2.4454,4.0688,4.0688,4.0688,4.0688,4.0688,4.0856,4.1474,4.1615,4.198,4.3245,4.3497,4.3666,4.4312,4.4425,4.4425,4.4425,4.4425,4.4425,4.4603,4.5103,4.547,4.5825,4.8027,5.0125,5.1449,5.3556,5.4992,5.533,5.5421,5.5421,5.522,5.3756,5.2914,5.2808,5.2193,5.1787,5.1787,5.1702,5.1084,4.996,4.9876,4.923,4.8134,4.8134,4.8134,4.8134,4.8134,0.0,4.8134,4.8134,4.8134,4.8134,4.8134,4.8134,4.8134,4.8134,4.8134,4.8134,4.8134,4.8134,4.8032,4.7596,4.6977,4.6191,4.4752,4.3797,4.2824,4.1239,4.0687,4.0339,3.9521,3.9308,3.9308,3.9308,3.9308,3.9308,3.9308,3.9308,3.9308,3.9308,3.9308,3.9308,3.9049,3.8052,3.7035,3.6285,3.4248,3.248,3.1479,3.0975,3.0645,3.0606,2.9667,2.8975,2.8975,2.8975,2.8975,2.8975,2.8975,2.8975,2.8975,2.8975,2.8975,2.8975,2.8856,2.8122,2.7021,2.6779,2.6034,2.4687,2.3574,2.2952,4.0688,4.0688,4.0688,4.0688,4.0688,4.0856,4.1474,4.1615,4.198,4.3245,4.3497,4.3666,4.4312,4.4425,4.4425,4.4425,4.4425,4.4781,4.5946,4.5202,4.5417,4.7629,4.8792,4.9844,5.1216,5.3751,0.0,0.0,5.5119,5.4887,5.3547,5.3126,5.2701,5.2004,5.1896,5.1787,5.1787,5.1281,5.0663,4.996,4.9454,4.8808,4.8134,4.8134,4.8134,4.8134,4.8134,0.0,4.8134,4.8134,4.8134,4.8134,4.8134,4.8134,4.8134,4.8134,4.8134,4.8134,4.8134,4.8134,4.8134,4.8032,4.726,4.6269,4.5502,4.3855,4.21,4.1239,4.0339,3.9544,3.9308,3.9308,3.9308,3.9308,3.9308,3.9308,3.9308,3.9308,3.9308,3.9308,3.9308,3.893,3.7812,3.7429,3.6539,3.4262,3.3342,3.2324,3.109,3.0297,2.9684,2.9368,2.9094,2.8975,2.8975,2.8975,2.8975,2.8975,2.8975,2.8975,2.8975,2.8975,2.8975,2.8975,2.7882,2.7263,2.7021,2.5912,2.4687,2.345,2.3201,2.2466,4.0688,4.0688,4.0688,4.0688,4.0688,4.0856,4.1474,4.1868,4.2374,4.3301,4.375,4.4059,4.4369,4.4425,4.4425,4.4425,4.4425,4.4603,4.5259,4.5063,4.5383,4.6612,4.8557,5.0051,5.0738,5.3225,5.4713,5.4304,5.4274,5.386,5.302,5.2594,5.2193,5.1787,5.1787,5.1787,5.1787,5.1169,5.0578,4.996,4.9342,4.8724,4.8134,4.8134,4.8134,4.8134,4.8134,0.0,4.8134,4.8134,4.8134,4.8134,4.8134,4.8134,4.8134,4.8134,4.8134,4.8134,4.8134,4.8134,4.8004,4.7363,4.6506,4.5608,4.4833,4.3083,4.1215,4.0339,3.9755,3.9308,3.9308,3.9308,3.9308,3.9308,3.9308,3.9308,3.9308,3.9308,3.9308,3.9308,3.8693,3.8052,3.7429,3.6194,3.484,3.3631,3.2593,3.1696,3.0659,3.0149,2.9745,2.9324,2.9104,2.8975,2.8975,2.8975,2.8975,2.8975,2.8975,2.8975,2.8975,2.8975,2.8618,2.8002,2.7383,2.6277,2.4917,2.4317,2.3325,2.209,2.209,2.1727,4.0688,4.0688,4.0688,4.0688,4.0688,4.0856,4.1474,4.2121,4.2767,4.3385,4.3975,4.4425,4.4425,4.4425,4.4425,4.4425,4.4425,4.4453,4.4593,4.5015,4.5436,4.5689,4.8254,5.0054,5.0198,5.25,0.0,5.3785,5.3126,0.0,5.2701,5.2085,5.1787,5.1787,5.1787,5.1787,5.1787,5.1056,5.0438,4.996,4.9202,4.8583,4.8134,4.8134,4.819,4.8331,4.8331,0.0,0.0,4.8527,4.8527,4.8527,4.8527,4.8527,4.8527,4.8527,4.8527,4.8499,4.8359,4.8098,4.7763,4.6742,4.5714,4.4859,4.3855,4.2213,4.0455,3.9638,3.9426,3.9308,3.9308,3.9308,3.9308,3.9308,3.9308,3.9308,3.9308,3.9049,3.893,3.893,3.7812,3.6824,3.656,3.4736,3.3253,3.3,3.2053,3.1029,3.0406,3.0167,2.9947,2.9599,2.9214,2.8975,2.8975,2.8975,2.8975,2.8975,2.8975,2.8975,2.8975,2.8737,2.8122,2.7021,2.6399,2.5162,2.3076,2.2827,2.209,2.1109,2.1109,2.1109,4.0688,4.0688,4.0688,4.0688,4.0688,4.0856,4.1474,4.2121,4.2767,4.3385,4.3975,4.4425,4.4425,4.4425,4.4425,4.4425,4.4425,4.4593,4.5155,4.5296,4.5745,4.6897,4.8218,4.9361,5.0029,5.1957,5.2808,5.2113,0.0,0.0,5.1896,5.1896,5.1787,5.1787,5.1787,5.1787,5.1787,5.0635,5.0016,4.996,4.878,4.8162,4.8134,4.8134,4.8443,4.8949,4.8949,0.0,0.0,4.9792,4.9792,4.9792,4.9792,4.9792,4.9792,4.9792,4.9792,4.9707,4.9145,4.8298,4.7319,4.6669,4.5608,4.4427,4.333,4.1672,4.0223,4.0106,3.9755,3.9308,3.9308,3.9308,3.9308,3.9308,3.9308,3.9308,3.9308,3.8291,3.7429,3.7429,3.646,3.5253,3.3988,3.3505,3.3,3.1744,3.1193,3.0809,3.0754,3.0094,2.9617,2.958,2.9214,2.8975,2.8975,2.8975,2.8975,2.8975,2.8975,2.8975,2.8975,2.7882,2.7142,2.7021,2.4671,2.3325,2.3076,2.1853,2.1235,2.1109,2.1109,2.1109,4.0688,4.0688,4.0688,4.0688,4.0688,4.0772,4.0997,4.1559,4.2177,4.2823,4.3441,4.3975,4.434,4.4425,4.4425,4.4425,4.4425,4.4481,4.4734,4.5436,4.6083,4.6588,4.8078,4.9286,4.9904,0.0,5.1796,5.1759,0.0,0.0,5.1787,5.1787,5.1787,5.1787,5.1787,5.1787,5.1787,5.0944,5.0326,4.996,4.9089,4.8471,4.8134,4.8499,4.8808,4.9061,4.9426,0.0,0.0,4.996,4.996,4.996,4.996,4.996,4.996,4.996,4.996,4.9799,4.8779,4.8135,4.7541,4.5767,4.4678,4.3899,4.2874,4.1444,4.0106,4.0013,3.9802,3.9544,3.9308,3.9308,3.9308,3.9308,3.9308,3.9308,3.9308,3.8291,3.7309,3.7309,3.5581,3.4007,3.3505,3.2746,3.1926,3.1193,3.0882,3.0607,3.0112,2.9764,2.9489,2.925,2.9085,2.8975,2.8975,2.8975,2.8975,2.8975,2.8241,2.7762,2.7762,2.652,2.5423,2.4671,2.3698,2.2702,2.1839,2.1348,2.1109,2.1109,2.1109,2.1109,4.0688,4.0688,4.0688,4.0688,4.0688,4.0688,4.0688,4.1165,4.1783,4.2458,4.3076,4.3666,4.4312,4.4425,4.4425,4.4425,4.4425,4.4425,4.4425,4.5324,4.6083,4.6279,4.7769,4.9089,4.9876,5.0691,5.1309,5.1759,0.0,0.0,5.1787,5.1787,5.1787,5.1787,5.1787,5.1787,5.1787,5.1,5.0382,4.996,4.9145,4.8555,4.8134,4.8752,4.9145,4.9342,4.996,0.0,0.0,5.0494,5.0494,5.0494,5.0494,5.0494,5.0494,5.0494,5.0494,5.036,4.8927,4.819,4.7473,4.5196,4.397,4.3342,4.2544,4.1359,4.0246,4.0013,3.9802,3.9567,3.9308,3.9308,3.9308,3.9308,3.9308,3.919,3.8789,3.7692,3.6581,3.6194,3.4363,3.2746,3.2746,3.2001,3.1249,3.0846,3.0681,3.0369,2.9654,2.947,2.9287,2.9012,2.8975,2.8975,2.8975,2.8975,2.8856,2.848,2.7504,2.6779,2.6399,2.5178,2.407,2.3076,2.2702,2.209,2.1109,2.1109,2.1109,2.1109,2.1109,2.1109,4.0688,4.0688,4.0688,4.0688,4.0688,4.0688,4.0688,4.1165,4.1783,4.2458,4.3076,4.3666,4.4312,4.4425,4.4425,4.4425,4.4425,4.4425,4.4425,4.4959,4.5577,4.6223,4.7375,4.8612,4.9848,5.1056,5.1787,0.0,0.0,0.0,5.1787,5.1787,5.1787,5.1787,5.1787,5.1787,5.1787,5.0578,4.996,4.9932,4.8724,4.8134,4.8134,4.8752,4.937,4.9988,0.0,0.0,0.0,5.1759,5.1759,5.1759,5.1759,5.1759,5.1759,5.1759,5.1759,5.1565,4.9693,4.8225,4.7012,4.5092,4.3777,4.2663,4.2134,4.1372,4.0619,4.0223,3.9755,3.9308,3.9308,3.9308,3.9308,3.9308,3.9308,3.893,3.755,3.6338,3.5005,3.3757,3.2384,3.1377,3.1377,3.1377,3.1249,3.0846,3.0461,3.0057,2.9617,2.9232,2.8993,2.8975,2.8975,2.8975,2.8975,2.8975,2.848,2.7142,2.7021,2.6399,2.5056,2.3822,2.3076,2.3076,2.1853,2.1109,2.1109,2.1109,2.1109,2.1109,2.1109,2.0856,4.198,4.198,4.198,4.198,4.1643,4.1334,4.1334,4.1137,4.1165,4.1783,4.243,4.3048,4.3666,4.4116,4.4425,4.4425,4.4425,4.4425,4.4425,4.4931,4.5577,4.6223,4.8106,4.9539,0.0,0.0,5.1787,0.0,0.0,0.0,5.1787,5.1787,5.1787,5.1787,5.1787,5.1787,5.1787,5.0972,5.0382,4.996,4.9145,4.8527,4.8162,4.9202,4.9764,0.0,0.0,0.0,0.0,5.1787,5.1787,5.1787,5.1787,5.1787,5.1787,5.1787,5.1787,5.1402,4.9147,4.8153,4.7432,4.5176,4.382,4.3241,4.3072,4.2304,4.1396,4.0457,3.9755,3.9308,3.9308,3.9308,3.9308,3.9308,3.9308,3.893,3.755,3.6338,3.5005,3.3631,3.2384,3.1377,3.1377,3.1157,3.0846,3.0442,3.0039,2.9617,2.9214,2.9067,2.8975,2.8975,2.8122,2.7624,2.7624,2.7624,2.7021,2.5668,2.481,2.4178,2.3698,2.2466,2.1727,2.1727,2.1362,2.1109,2.1109,2.1109,2.1109,2.1109,2.1109,2.0856,4.2711,4.257,4.2514,4.2289,4.1924,4.1646,4.1652,4.1141,4.0942,4.1822,4.21,4.2486,4.3329,4.3807,4.4144,4.4369,4.4425,4.4425,4.4425,4.4931,4.5661,4.6532,4.8612,0.0,0.0,5.1056,0.0,0.0,0.0,0.0,5.1787,5.1787,5.1787,5.1787,5.1787,5.1787,5.1787,5.0944,5.0326,4.996,4.9089,4.8499,4.8162,4.9398,4.996,0.0,0.0,0.0,0.0,5.1787,5.1787,5.1787,5.1787,5.1787,5.1787,5.1787,5.154,5.0851,4.8789,4.7743,4.7036,4.4939,4.3962,4.3481,4.3168,4.2401,4.1377,4.0504,3.9755,3.9308,3.9308,3.9308,3.9308,3.9308,3.893,3.8194,3.6824,3.5602,3.4258,3.2873,3.2001,3.1377,3.1377,3.1047,3.0662,3.0259,2.9837,2.9434,2.903,2.8618,2.8241,2.8241,2.7021,2.6034,2.5529,2.5912,2.5668,2.4317,2.3574,2.2827,2.2341,2.1601,2.1109,2.1109,2.1109,2.1109,2.1109,2.1109,2.1109,2.1109,2.1109,2.0856,0.0,4.2711,4.257,4.1952,4.1783,4.1849,4.1822,4.1312,0.0,4.2195,4.1994,4.198,4.3216,4.3469,4.3694,4.4312,4.4425,4.4425,4.4425,4.4987,0.0,0.0,4.8836,0.0,4.996,0.0,0.0,0.0,0.0,0.0,5.1787,5.1787,5.1787,5.1787,5.1787,5.1787,5.1787,5.0578,4.996,4.9932,4.8724,4.8134,4.8162,4.9342,4.9904,0.0,0.0,0.0,0.0,5.1787,5.1787,5.1787,5.1787,5.1787,5.1787,5.1787,5.0962,4.9675,4.8532,4.7272,4.5985,4.4693,4.3986,4.3359,4.2615,4.1685,4.0881,4.0364,3.9755,3.9308,3.9308,3.9308,3.9308,3.9167,3.8171,3.6946,3.5479,3.4258,3.3,3.1635,3.1377,3.1377,3.1377,3.1029,3.0626,3.0259,2.9819,2.9397,2.903,2.7882,2.7021,2.7021,2.5668,2.444,2.3201,2.4193,2.4317,2.3076,2.2952,2.2341,2.1109,2.1109,2.1109,2.1109,2.1109,2.1109,2.1109,2.1109,2.1109,2.1109,2.1109,2.0729,4.4059,0.0,4.3947,4.3778,4.3749,4.3567,0.0,4.228,4.1996,4.1312,4.1365,4.1868,4.2654,4.3188,4.3694,4.4312,4.4425,4.4425,4.4425,4.538,0.0,4.7122,4.8836,4.996,4.996,0.0,0.0,0.0,0.0,5.1787,5.1787,5.1787,5.1787,5.1787,5.1787,5.1787,5.1787,5.0578,4.996,4.9932,4.8724,4.8134,4.8162,4.8921,4.9511,0.0,0.0,0.0,5.1787,5.1787,5.1787,5.1787,5.1787,5.1787,5.1787,5.1787,5.0962,4.9675,4.8532,4.7272,4.5985,4.4693,4.4003,4.3664,4.3017,4.1969,4.0905,4.0059,3.9544,3.9308,3.9308,3.9308,3.9049,3.8052,3.755,3.6682,3.4363,3.3631,3.3,3.1635,3.1377,3.1377,3.1377,3.0791,3.0314,3.0222,2.958,2.9085,2.8993,2.7882,2.7021,2.7021,2.4917,2.345,2.3076,2.3325,2.2952,2.1601,2.1601,2.1475,2.1109,2.1109,2.1109,2.1109,2.1109,2.1109,2.1109,2.1109,2.1109,2.1109,2.0856,2.0488,4.4425,4.4425,4.434,4.4059,4.3998,4.3844,4.313,4.2854,4.2452,4.1682,4.1568,4.1822,4.2491,4.2851,4.3385,4.4256,4.4425,4.4621,4.5183,0.0,4.6729,4.7909,4.9174,5.0073,0.0,0.0,0.0,0.0,0.0,5.1787,5.1787,5.1787,5.1787,5.1787,5.1506,5.1365,5.1365,5.0438,4.982,4.9511,4.8583,4.8134,4.8134,4.8752,4.937,0.0,0.0,0.0,5.1787,5.1787,5.1787,5.1787,5.1787,5.1787,5.1787,5.11,5.0154,4.8877,4.7626,4.6345,4.5159,4.457,4.4075,4.3707,4.2962,4.1986,4.1018,4.029,3.9729,3.9308,3.9308,3.8812,3.8171,3.7429,3.6316,3.5088,3.3757,3.2873,3.2256,3.1506,3.1377,3.1322,3.1139,3.0607,3.013,2.9947,2.9379,2.8737,2.8122,2.69,2.5912,2.5285,2.345,2.2215,2.2215,2.2215,2.1839,2.1109,2.1109,2.1109,2.1109,2.1109,2.1109,2.1109,2.1109,2.1109,2.1109,2.1109,2.1109,2.1109,2.0729,2.0094,4.4425,4.449,4.447,4.3934,4.3821,4.3834,4.3774,4.3229,4.2739,4.2738,4.2134,4.171,4.2471,4.2603,4.2935,4.4088,4.4425,4.4959,4.6139,4.6364,4.7066,4.8836,4.9567,0.0,0.0,0.0,0.0,0.0,0.0,5.1787,5.1787,5.1702,5.1646,5.1646,5.1056,5.0691,5.0607,5.0073,4.9567,4.9033,4.8415,4.8134,4.8134,4.8668,4.9286,4.9988,0.0,0.0,5.1787,5.1787,5.1787,5.1787,5.1787,5.1677,5.143,5.0266,4.8992,4.7626,4.6345,4.5159,4.4347,4.4347,4.4075,4.3606,4.2956,4.2023,4.1074,4.0657,3.9983,3.9308,3.9049,3.8171,3.7166,3.6803,3.4964,3.3379,3.3126,3.2256,3.1377,3.1377,3.1377,3.1249,3.0864,3.0461,3.0057,2.9635,2.9112,2.8241,2.7142,2.5668,2.4317,2.3201,2.1853,2.1109,2.1109,2.1109,2.1109,2.1109,2.1109,2.1109,2.1109,2.1109,2.1109,2.1109,2.1109,2.1109,2.1109,2.1109,2.1109,2.1109,2.0475,1.9431,4.4425,4.4862,4.5293,4.5207,4.5178,4.5187,4.523,4.4327,4.3459,4.35,4.2134,4.1256,4.2396,4.2647,4.2823,4.3526,4.4509,4.5436,0.0,0.0,4.7544,4.8893,0.0,0.0,0.0,0.0,0.0,0.0,0.0,5.1787,5.1787,5.1309,5.1028,5.1028,5.041,4.9848,4.9342,4.923,4.9145,4.9033,4.8415,4.8134,4.8134,4.8218,4.8893,4.996,0.0,5.0747,5.1787,5.1787,5.1787,5.1787,5.1787,5.11,5.0154,4.9928,4.8416,4.6345,4.5037,4.447,4.4347,4.4347,4.3826,4.3302,4.3232,4.2056,4.08,4.0732,4.002,3.9049,3.7932,3.7429,3.6682,3.4487,3.3737,3.3126,3.2001,3.1506,3.1377,3.1377,3.1377,3.1249,3.0864,3.0461,3.0057,2.9635,2.825,2.7263,2.7021,2.4917,2.3325,2.3076,2.1853,2.1109,2.1109,2.1109,2.1109,2.1109,2.1109,2.1109,2.1109,2.1109,2.1109,2.1109,2.1109,2.1109,2.1109,2.1109,2.1109,2.1109,1.9304,1.8267,4.4862,4.4954,4.523,4.6373,4.602,4.5258,4.4179,4.4035,4.3872,4.3274,4.2357,4.1959,4.2509,4.2562,4.2879,4.3835,0.0,4.5549,4.6195,4.6813,4.7797,0.0,0.0,0.0,0.0,0.0,0.0,0.0,0.0,0.0,5.1309,5.1028,5.0719,5.0382,4.9792,4.9314,4.9033,4.8724,4.8555,4.8555,4.8246,4.8134,4.8134,4.8134,4.8808,4.996,0.0,5.0663,5.1787,5.1787,5.143,5.074,5.074,5.0041,4.8877,4.8184,4.6798,4.5037,4.447,4.4347,4.4347,4.4347,4.395,4.3505,4.2997,4.2017,4.0999,4.0479,3.9882,3.893,3.767,3.6824,3.5848,3.3862,3.2873,3.2128,3.1506,3.1377,3.1377,3.1377,3.1377,3.1176,3.0571,3.0314,2.9737,2.8357,2.7488,2.652,2.504,2.3807,2.2827,2.209,2.1475,2.1109,2.1109,2.1109,2.1109,2.1109,2.1109,2.1109,2.1109,2.1109,2.1109,2.1109,2.1109,2.1109,2.1109,2.0335,1.9814,1.9674,1.7742,1.6322,4.5321,4.523,4.5235,4.6519,4.6049,4.5025,4.4036,4.4057,4.4109,4.3412,4.2855,4.248,4.256,4.2651,0.0,4.4031,4.4959,4.5717,4.6223,4.6954,4.7993,0.0,0.0,0.0,0.0,0.0,0.0,0.0,0.0,0.0,5.0888,5.0607,5.0213,4.9764,4.9145,4.8836,4.8836,4.8359,4.8134,4.8134,4.8134,4.8134,4.8134,4.8134,4.8808,4.996,4.996,5.0663,5.1787,5.1787,5.1072,4.9901,4.9901,4.8992,4.7508,4.6225,4.5159,4.4347,4.4347,4.4347,4.4347,4.4347,4.4075,4.3707,4.2962,4.2075,4.1196,4.0181,3.9437,3.867,3.7188,3.5848,3.4632,3.3253,3.2128,3.1377,3.1377,3.1377,3.1377,3.1377,3.1304,3.1011,3.0314,2.9865,2.9046,2.7245,2.652,2.5407,2.3325,2.2827,2.2215,2.1235,2.1109,2.1109,2.1109,2.1109,2.1109,2.1109,2.1109,2.1109,2.1109,2.1109,2.1109,2.1109,2.1109,2.1109,2.1109,1.9686,1.8768,1.85,1.6322,1.4633,4.5321,4.5898,4.6079,4.4993,4.4562,4.4972,4.6826,4.5327,4.3916,4.513,4.3426,4.1951,4.2526,4.2596,4.2795,4.3469,4.5071,4.6251,4.6279,0.0,0.0,0.0,0.0,0.0,0.0,0.0,0.0,0.0,0.0,0.0,5.0859,4.9792,4.9145,4.9117,4.8499,4.819,4.819,4.8134,4.8134,4.8134,4.8134,4.8134,4.8134,4.8134,4.8808,4.996,4.996,5.0663,5.1787,5.1787,5.1072,4.9901,4.9901,4.8416,4.6225,4.4939,4.4347,4.4347,4.4347,4.4347,4.4347,4.4347,4.4075,4.3707,4.3184,4.2441,4.1439,3.9674,3.8551,3.7572,3.5992,3.4507,3.3253,3.1873,3.1506,3.1377,3.1377,3.1377,3.1377,3.1377,3.1084,3.0699,3.0277,2.8871,2.7607,2.7073,2.4917,2.3325,2.3076,2.1964,2.1235,2.1109,2.1109,2.1109,2.1109,2.1109,2.1109,2.1109,2.1109,2.1109,2.1109,2.1109,2.1109,2.1109,2.1109,2.1109,2.1109,1.9686,1.8768,1.8384,1.5404,1.3718,4.6077,4.6314,4.6519,4.6466,4.5754,4.5142,4.5191,4.4689,4.4198,4.4304,4.3239,4.232,4.2568,4.2587,4.302,4.4425,4.5577,4.642,4.6813,0.0,0.0,0.0,0.0,0.0,0.0,0.0,0.0,0.0,0.0,0.0,4.9764,4.9286,4.8864,4.8471,4.8246,4.8134,4.8134,4.8134,4.8134,4.8134,4.8134,4.8134,4.8134,4.8134,4.8583,4.9398,4.9792,4.9983,5.0078,5.0463,4.9448,4.7482,4.6798,4.5864,4.4939,4.447,4.4347,4.4347,4.4347,4.4347,4.4347,4.4347,4.4223,4.3931,4.2827,4.1817,4.0617,3.9047,3.7219,3.5602,3.5005,3.4133,3.3126,3.2019,3.1506,3.1377,3.1377,3.1377,3.1377,3.1377,3.1066,3.0662,3.0277,2.8712,2.7187,2.5961,2.4178,2.2827,2.1964,2.1348,2.1109,2.1109,2.1109,2.1109,2.1109,2.1109,2.1109,2.1109,2.1109,2.1109,2.1109,2.1109,2.1109,2.1109,2.1109,2.1109,2.1109,1.8908,1.7485,1.6818,1.3849,1.2289,4.6755,4.6842,4.6954,4.7167,4.6584,4.558,4.4556,4.4406,4.4433,4.3988,4.3369,4.2836,4.2621,4.2777,0.0,0.0,4.5745,4.6504,0.0,0.0,0.0,0.0,0.0,0.0,0.0,0.0,0.0,0.0,0.0,0.0,0.0,4.8864,4.8555,4.8134,4.8134,4.8134,4.8134,4.8134,4.8134,4.8134,4.8134,4.8134,4.8134,4.8134,4.8471,4.9089,4.9679,4.963,4.9087,4.9657,4.8416,4.6105,4.4816,4.4347,4.4347,4.4347,4.4347,4.4347,4.4347,4.4347,4.4347,4.4347,4.4227,4.3791,4.2783,4.1415,3.9977,3.8395,3.6338,3.4507,3.4133,3.3524,3.2765,3.2038,3.1653,3.1377,3.1377,3.1377,3.1341,3.1212,3.0882,3.0354,2.9563,2.7902,2.6191,2.4595,2.3325,2.209,2.1235,2.1109,2.1109,2.1109,2.1109,2.1109,2.1109,2.1109,2.1109,2.1109,2.1109,2.1109,2.1109,2.1109,2.1109,2.1109,2.1109,2.1109,2.1109,1.8396,1.6581,1.5784,1.3079,1.138,4.7392,4.7563,4.7413,4.6749,4.658,4.6419,4.5741,4.5057,4.4527,4.4573,4.4078,4.3412,4.2738,4.3101,0.0,4.434,4.5493,4.6504,0.0,0.0,0.0,0.0,0.0,0.0,0.0,0.0,0.0,0.0,0.0,0.0,0.0,4.8443,4.8134,4.8134,4.8134,4.8134,4.8134,4.8134,4.8134,4.8134,4.8134,4.8134,4.8134,4.8134,4.8471,4.9061,4.9679,4.9602,4.906,4.9545,4.8416,4.6105,4.4816,4.4347,4.4347,4.4347,4.4347,4.4347,4.4347,4.4347,4.4347,4.4347,4.3962,4.3409,4.2904,4.1494,3.9619,3.7802,3.6093,3.4632,3.367,3.2676,3.191,3.1929,3.1653,3.1377,3.1377,3.1377,3.1267,3.0864,3.0461,2.9686,2.7885,2.6142,2.4564,2.3325,2.1964,2.1109,2.1109,2.1109,2.1109,2.1109,2.1109,2.1109,2.1109,2.1109,2.1109,2.1109,2.1109,2.1109,2.1109,2.1109,2.1109,2.1109,2.1109,2.1109,2.1109,1.8396,1.6581,1.5784,1.3079,1.138,4.7679,4.7934,4.7996,4.6865,4.6567,4.6296,4.5157,4.4695,4.4447,4.4038,4.376,4.3507,4.3304,4.3426,0.0,4.5493,4.6055,0.0,0.0,0.0,0.0,0.0,0.0,0.0,0.0,0.0,0.0,0.0,0.0,0.0,0.0,4.8218,4.8134,4.8134,4.8134,4.8134,4.8134,4.8134,4.8134,4.8134,4.8134,4.8134,4.8134,4.8134,4.8218,4.8341,4.8613,4.8028,4.7021,4.6273,4.55,4.4816,4.447,4.4347,4.4347,4.4347,4.4347,4.4347,4.4347,4.4347,4.4275,4.389,4.3649,4.3216,4.1325,3.9848,3.8287,3.6465,3.4881,3.3796,3.3418,3.3038,3.2549,3.2294,3.1782,3.1377,3.1377,3.1377,3.1267,3.0864,2.969,2.8532,2.7761,2.5402,2.3574,2.3201,2.1964,2.1109,2.1109,2.1109,2.1109,2.1109,2.1109,2.1109,2.1109,2.1109,2.1109,2.1109,2.1109,2.1109,2.1109,2.1109,2.1109,2.1109,2.1109,2.1109,2.1109,1.9048,1.7356,1.5913,1.3857,1.2033,4.8103,4.8271,4.8296,4.6942,4.6603,4.6234,4.488,4.4572,4.445,4.4086,4.3921,4.3916,4.3934,4.3878,0.0,4.6026,0.0,0.0,0.0,0.0,0.0,0.0,0.0,0.0,0.0,0.0,0.0,0.0,0.0,0.0,0.0,4.8134,4.8134,4.8134,4.8134,4.8134,4.8134,4.8134,4.8134,4.8134,4.8134,4.8134,4.8134,4.8134,4.7801,4.7418,4.6863,4.6517,4.6064,4.4768,4.4347,4.4347,4.4347,4.4347,4.4347,4.4347,4.4347,4.4347,4.4347,4.4202,4.3962,4.3625,4.2853,4.1895,4.0398,3.8608,3.6822,3.5706,3.4403,3.3418,3.3418,3.3165,3.2804,3.2422,3.2038,3.1525,3.1377,3.1249,3.1029,3.0626,2.919,2.7668,2.6784,2.4688,2.2952,2.2341,2.1601,2.1109,2.1109,2.1109,2.1109,2.1109,2.1109,2.1109,2.1109,2.1109,2.1109,2.1109,2.1109,2.1109,2.1109,2.1109,2.1109,2.1109,2.1109,2.1109,2.1109,1.9304,1.7882,1.67,1.4381,1.2684,4.8604,4.8604,4.8296,4.6942,4.6511,4.608,4.4849,4.4633,4.4618,4.4579,4.4585,4.4557,4.4525,4.4401,4.4818,4.6083,0.0,0.0,0.0,0.0,0.0,0.0,0.0,0.0,0.0,0.0,0.0,0.0,0.0,0.0,0.0,4.8134,4.8134,4.8134,4.8134,4.8134,4.8134,4.8134,4.8134,4.8134,4.8134,4.8032,4.7903,4.7903,4.7288,4.6087,4.5001,4.5053,4.591,4.4792,4.4347,4.4347,4.4347,4.4347,4.4347,4.4347,4.4347,4.4347,4.4275,4.3938,4.3481,4.3264,4.1727,3.9974,3.9688,3.7636,3.5376,3.5253,3.4403,3.3418,3.3418,3.3165,3.2804,3.2549,3.2166,3.1782,3.1506,3.1066,3.0662,3.0153,2.8588,2.6834,2.5119,2.3822,2.2466,2.1235,2.1109,2.1109,2.1109,2.1109,2.1109,2.1109,2.1109,2.1109,2.1109,2.1109,2.1109,2.1109,2.1109,2.1109,2.1109,2.1109,2.1109,2.1109,2.1109,2.1109,2.1109,1.9444,1.8407,1.7882,1.4903,1.321,4.8604,4.8604,4.8296,4.6942,4.5803,4.4941,4.4633,4.5003,4.5244,4.4585,4.4899,4.5142,4.4549,4.4406,4.4818,0.0,0.0,0.0,0.0,0.0,0.0,0.0,0.0,0.0,0.0,0.0,0.0,0.0,0.0,0.0,4.8134,4.8134,4.8134,4.8134,4.8134,4.8134,4.8134,4.8134,4.8134,0.0,4.8134,4.7568,4.6818,4.6818,4.5875,4.4265,4.4407,4.4383,4.4063,4.4278,4.4347,4.4347,4.4347,4.4347,4.4347,4.4347,4.4347,4.4275,4.3842,4.3601,4.324,4.1298,4.0398,3.9545,3.7083,3.5932,3.5129,3.4153,3.367,3.3418,3.3418,3.3292,3.3165,3.2549,3.2166,3.1782,3.1506,3.1066,3.041,2.8867,2.7202,2.5593,2.3743,2.2466,2.1475,2.1109,2.1109,2.1109,2.1109,2.1109,2.1109,2.1109,2.1109,2.1109,2.1109,2.1109,2.1109,2.1109,2.1109,2.1109,2.1109,2.1109,2.1109,2.1109,2.1109,2.0982,2.0729,2.0094,1.906,1.7507,1.5554,1.3997,4.8604,4.8604,4.8296,4.6942,4.5588,4.4496,4.4189,4.4874,4.5263,4.4262,4.4762,4.5347,4.5024,4.4676,4.4734,0.0,0.0,0.0,0.0,0.0,0.0,0.0,0.0,0.0,0.0,0.0,0.0,0.0,0.0,4.8134,4.8134,4.8134,4.8134,4.8134,4.8134,4.8134,4.8134,4.8134,4.8134,4.8134,4.7568,4.6374,4.4725,4.4725,4.43,4.3676,4.34,4.3256,4.3168,4.3481,4.3577,4.3577,4.3577,4.3577,4.3577,4.3577,4.3577,4.3407,4.2489,4.2084,4.1536,3.9651,3.8465,3.7514,3.5932,3.5005,3.4278,3.3544,3.3418,3.3418,3.3418,3.3418,3.3165,3.2549,3.2294,3.1982,3.1267,3.0266,2.9224,2.8071,2.6064,2.4143,2.323,2.1964,2.1109,2.1109,2.1109,2.1109,2.1109,2.1109,2.1109,2.1109,2.1109,2.1109,2.1109,2.1109,2.1109,2.1109,2.1109,2.1109,2.1109,2.1109,2.1109,2.1109,2.1109,2.0982,2.0602,2.0234,1.9584,1.8407,1.6721,1.5163,4.8604,4.845,4.7989,4.688,4.551,4.4266,4.3723,4.4589,4.5108,4.3921,4.4705,4.5464,4.5298,4.4769,4.4621,0.0,0.0,0.0,0.0,0.0,0.0,0.0,0.0,0.0,0.0,0.0,0.0,0.0,0.0,4.8134,4.8134,4.8134,4.8134,4.8134,4.8134,4.8134,4.8134,4.8134,4.8004,4.7801,4.6478,4.4752,4.2886,4.2662,4.2824,4.3184,4.2384,4.2206,4.2639,4.2711,4.276,4.276,4.276,4.276,4.276,4.276,4.264,4.2233,4.1126,4.0197,3.947,3.8043,3.6657,3.5376,3.5129,3.4278,3.3418,3.3418,3.3418,3.3418,3.3418,3.3418,3.3165,3.2549,3.2365,3.1959,3.0991,2.9438,2.8032,2.739,2.4782,2.2702,2.2702,2.1853,2.1109,2.1109,2.1109,2.1109,2.1109,2.1109,2.1109,2.1109,2.1109,2.1109,2.1109,2.1109,2.1109,2.1109,2.1109,2.1109,2.1109,2.1109,2.1109,2.1109,2.1109,2.0856,2.0475,2.0234,1.9851,1.9456,1.7753,1.6203,4.8604,4.7742,4.6819,4.6634,4.5166,4.3723,4.3645,4.4184,4.4689,0.0,4.4967,4.5298,4.4676,4.4518,0.0,0.0,0.0,0.0,0.0,0.0,0.0,0.0,0.0,0.0,0.0,0.0,0.0,0.0,4.8134,4.8134,4.8134,4.8134,4.8134,4.8134,4.8134,4.8134,4.8134,4.8134,4.7568,4.6583,4.4401,4.3219,4.2886,4.1923,4.145,4.1523,4.189,4.2014,4.211,4.2567,4.276,4.276,4.276,4.276,4.276,4.276,4.2113,4.1051,4.0347,3.9295,3.8065,3.6326,3.5541,3.5129,3.4027,3.3544,3.3418,3.3418,3.3418,3.3418,3.3418,3.3418,3.3165,3.2549,3.2137,3.1728,3.0917,2.9438,2.7781,2.627,2.3422,2.1348,2.1348,2.1235,2.1109,2.1109,2.1109,2.1109,2.1109,2.1109,2.1109,2.1109,2.1109,2.1109,2.1109,2.1109,2.1109,2.1109,2.1109,2.1109,2.1109,2.1109,2.1109,2.1109,2.1109,2.0729,2.0234,2.0106,1.9724,1.9072,1.7636,1.6203,4.8604,4.7896,4.6985,4.6264,4.5092,4.3908,4.2828,4.3244,4.3921,4.3516,4.4253,4.4862,4.4954,4.4676,0.0,0.0,0.0,0.0,0.0,0.0,0.0,0.0,0.0,0.0,0.0,0.0,0.0,0.0,4.8134,4.8134,4.8134,4.8134,4.8134,4.8134,4.8134,4.8134,4.8134,4.7466,4.6269,4.4427,4.3441,4.2575,4.1923,4.1402,4.1172,4.1196,4.1437,4.1533,4.1557,4.1774,4.187,4.187,4.187,4.187,4.187,4.187,4.1494,4.0716,3.9032,3.81,3.7349,3.5066,3.4278,3.4153,3.3544,3.3418,3.3418,3.3418,3.3418,3.3418,3.3418,3.3292,3.3038,3.2549,3.1973,3.1346,3.0622,2.8477,2.6084,2.3606,2.2062,2.1109,2.1109,2.1109,2.1109,2.1109,2.1109,2.1109,2.1109,2.1109,2.1109,2.1109,2.1109,2.1109,2.1109,2.1109,2.1109,2.1109,2.1109,2.1109,2.1109,2.1109,2.0982,2.0856,2.0982,2.0729,2.0106,2.0106,1.9724,1.9072,1.8419,1.7378,4.8604,4.8112,4.7303,4.6131,4.5101,4.3975,4.227,4.2625,4.3165,0.0,4.3554,4.4583,4.5138,4.4769,4.4425,0.0,0.0,0.0,0.0,0.0,0.0,0.0,0.0,0.0,0.0,0.0,0.0,0.0,4.8134,4.8134,4.8134,4.8134,4.8134,4.8134,4.8134,4.8134,4.8134,4.6714,4.4967,4.2886,4.2575,4.2037,4.1172,4.1172,4.1172,4.1172,4.1172,4.1172,4.1172,4.1172,4.1172,4.1172,4.1172,4.1172,4.1172,4.1172,4.0826,3.9966,3.8029,3.6824,3.5971,3.4027,3.3418,3.3418,3.3418,3.3418,3.3418,3.3418,3.3418,3.3418,3.3292,3.3038,3.2765,3.2289,3.1678,3.0766,2.9368,2.721,2.4625,2.1655,2.1109,2.1109,2.1109,2.1109,2.1109,2.1109,2.1109,2.1109,2.1109,2.1109,2.1109,2.1109,2.1109,2.1109,2.1109,2.1109,2.1109,2.1109,2.1109,2.1109,2.1109,2.1109,2.0982,2.0615,2.0856,2.0602,1.9979,1.9979,1.9711,1.9072,1.9072,1.8291,4.8604,4.8112,4.7426,4.6705,4.5161,4.3549,4.2765,4.2621,4.266,4.257,4.3554,4.4425,4.4425,4.4425,4.4425,4.4425,4.4931,0.0,0.0,0.0,0.0,0.0,0.0,0.0,0.0,0.0,0.0,0.0,4.8134,4.8134,4.8134,4.8134,4.8134,4.8134,4.8134,4.8134,4.8134,4.582,4.41,4.2886,4.1834,4.1287,4.1172,4.1172,4.1172,4.1172,4.1172,4.1172,4.1172,4.1172,4.1172,4.1172,4.1172,4.1172,4.1172,4.1172,3.9615,3.7429,3.7309,3.5725,3.3544,3.3418,3.3418,3.3418,3.3418,3.3418,3.3418,3.3418,3.3418,3.3292,3.3038,3.2912,3.2689,3.1659,3.1015,2.9847,2.6678,2.545,2.4209,2.1601,2.1109,2.1109,2.1109,2.1109,2.1109,2.1109,2.1109,2.1109,2.1109,2.1109,2.1109,2.1109,2.1109,2.1109,2.1109,2.1109,2.1109,2.1109,2.1109,2.1109,2.1109,2.1109,2.0982,2.0615,2.0602,2.0348,1.9571,1.9571,1.9456,1.9072,1.9072,1.8291,4.8604,4.8419,4.7895,4.6352,4.5395,4.4408,4.2395,4.2608,4.3048,4.2654,4.3554,4.4425,4.4425,4.4425,4.4425,4.4425,4.4593,4.4734,4.4734,4.5268,0.0,0.0,0.0,0.0,0.0,0.0,0.0,0.0,0.0,4.7122,4.7516,4.7544,4.7712,4.8106,4.8134,4.7363,4.5847,4.4292,4.2911,4.1834,4.1402,4.1172,4.1172,4.1172,4.1172,4.1172,4.1172,4.1172,4.1172,4.1172,4.1172,4.1172,4.1172,4.0687,3.9943,3.9943,3.8862,3.7188,3.6338,3.55,3.4528,3.367,3.3418,3.3418,3.3418,3.3418,3.3418,3.3418,3.3292,3.3038,3.2912,3.2549,3.1997,3.0821,2.9581,2.8043,2.5681,2.4518,2.3201,2.1475,2.1109,2.1109,2.1109,2.1109,2.1109,2.1109,2.1109,2.1109,2.1109,2.1109,2.1109,2.1109,2.1109,2.1109,2.1109,2.1109,2.1109,2.1109,2.1109,2.1109,2.1109,2.1109,2.0856,2.0234,2.0234,2.0094,1.9571,1.9571,1.9456,1.9072,1.815,1.7507,4.8604,4.8438,4.7897,4.6337,4.5551,4.4676,4.2442,4.2739,4.3329,4.2711,4.3554,4.4425,4.4425,4.4425,4.4425,4.4425,4.4425,4.4425,4.4425,4.4762,4.5015,4.5015,0.0,0.0,0.0,0.0,0.0,0.0,0.0,0.0,4.6897,4.6897,4.7178,4.7797,4.7587,4.661,4.4643,4.3441,4.2351,4.1172,4.1172,4.1172,4.1172,4.1172,4.1172,4.1172,4.1172,4.1172,4.1172,4.1172,4.1172,4.1172,4.0687,3.9966,3.9098,3.8744,3.779,3.6581,3.5746,3.5129,3.4528,3.367,3.3418,3.3418,3.3418,3.3418,3.3418,3.3418,3.3165,3.2931,3.2804,3.2086,3.0954,2.9635,2.8289,2.6823,2.4857,2.3698,2.2702,2.1348,2.1109,2.1109,2.1109,2.1109,2.1109,2.1109,2.1109,2.1109,2.1109,2.1109,2.1109,2.1109,2.1109,2.1109,2.1109,2.1109,2.1109,2.1109,2.1109,2.1109,2.1109,2.1109,2.0729,2.0106,2.0106,1.9851,1.9456,1.9456,1.906,1.8419,1.7496,1.6452,0.0,0.0,0.0,4.6667,4.5492,4.4203,4.2918,0.0,4.3357,4.2739,4.3554,4.4425,4.4425,4.4425,4.4425,4.4425,4.4425,4.4425,4.4425,4.4425,4.4425,4.4425,4.4425,4.465,4.524,4.5296,4.5549,0.0,4.6251,4.6251,4.6251,4.6279,4.6462,4.7079,4.6593,4.5714,4.4509,4.3441,4.2238,4.1172,4.1172,4.1172,4.1172,4.1172,4.1172,4.1172,4.1172,4.1172,4.1172,4.1172,4.1172,4.1057,3.9709,3.9216,3.898,3.767,3.646,3.5376,3.5376,3.4528,3.3418,3.3418,3.3418,3.3418,3.3418,3.3418,3.3418,3.3418,3.3165,3.2785,3.2403,3.1295,2.9705,2.8026,2.7278,2.6277,2.3698,2.3076,2.2702,2.1362,2.1109,2.1109,2.1109,2.1109,2.1109,2.1109,2.1109,2.1109,2.1109,2.1109,2.1109,2.1109,2.1109,2.1109,2.1109,2.1109,2.1109,2.1109,2.1109,2.1109,2.1109,2.1109,2.0729,2.0106,2.0106,1.9724,1.9072,1.9072,1.8291,1.698,1.685,1.5414,4.8604,0.0,0.0,0.0,0.0,0.0,0.0,0.0,4.3975,4.3385,4.3863,4.4425,4.4425,4.4425,4.4425,4.4425,4.4425,4.4425,4.4425,4.4425,4.4425,4.4425,4.4425,4.4481,4.465,4.4678,0.0,0.0,4.4931,4.5127,4.5577,4.5315,4.4983,4.4727,4.3831,4.3336,4.333,4.2263,4.1516,4.1172,4.1172,4.1172,4.1172,4.1172,4.1172,4.1172,4.1172,4.1172,4.1172,4.1172,4.1172,4.1057,3.9709,3.8625,3.767,3.6338,3.5129,3.3902,3.3902,3.367,3.3418,3.3418,3.3418,3.3418,3.3418,3.3418,3.3292,3.3038,3.2804,3.2346,3.141,3.0475,2.9342,2.7973,2.6544,2.5056,2.345,2.2341,2.1601,2.1109,2.1109,2.1109,2.1109,2.1109,2.1109,2.1109,2.1109,2.1109,2.1109,2.1109,2.1109,2.1109,2.1109,2.1109,2.1109,2.1109,2.1109,2.1109,2.1109,2.1109,2.1109,2.1109,2.0729,2.0106,2.0106,1.9724,1.9072,1.8022,1.7367,1.698,1.4903,1.2939,4.8604,4.8157,4.7563,4.6667,0.0,0.0,4.3793,4.3975,4.4228,0.0,4.3975,4.4425,4.4425,4.4425,4.4425,4.4425,4.4425,4.4425,4.4425,4.4425,4.4425,4.4425,4.4425,4.4425,4.4425,4.4425,4.4425,4.4425,4.4425,4.4489,4.4567,4.4436,4.3969,4.3415,4.2582,4.2208,4.2534,4.1712,4.1172,4.1172,4.1172,4.1172,4.1172,4.1172,4.1172,4.1172,4.1172,4.1172,4.1172,4.0571,4.0316,4.0199,3.8862,3.7648,3.6338,3.5005,3.4027,3.3418,3.3418,3.3418,3.3418,3.3418,3.3418,3.3418,3.3418,3.3418,3.3418,3.3165,3.267,3.1935,3.077,3.0057,2.9022,2.6996,2.5691,2.4687,2.3325,2.209,2.1109,2.1109,2.1109,2.1109,2.1109,2.1109,2.1109,2.1109,2.1109,2.1109,2.1109,2.1109,2.1109,2.1109,2.1109,2.1109,2.1109,2.1109,2.1109,2.1109,2.1109,2.1109,2.1109,2.0982,2.0602,2.0106,1.9979,1.906,1.7378,1.7109,1.6462,1.5154,1.2939,1.1505,4.8604,4.7649,4.6579,4.6491,4.5537,0.0,4.3722,4.4003,4.4256,0.0,4.4031,4.4425,4.4425,4.4425,4.4425,4.4425,4.4425,4.4425,4.4425,4.4425,4.4425,4.4425,4.4425,4.4425,4.4425,4.4425,4.4425,4.4425,4.4303,4.3958,4.3436,4.3363,4.3131,4.2605,4.203,4.1898,4.1863,4.1379,4.1124,4.1172,4.1172,4.1172,4.1172,4.1172,4.1172,4.1172,4.1172,4.1172,4.1057,3.9709,3.9216,3.9098,3.767,3.6338,3.5253,3.3902,3.3418,3.3418,3.3418,3.3418,3.3418,3.3418,3.3418,3.3418,3.3418,3.3418,3.3418,3.3233,3.2401,3.1358,3.0346,2.9819,2.8792,2.5855,2.5178,2.4933,2.3574,2.2341,2.1475,2.1362,2.1235,2.1109,2.1109,2.1109,2.1109,2.1109,2.1109,2.1109,2.1109,2.1109,2.1109,2.1109,2.1109,2.1109,2.1109,2.1109,2.1109,2.1109,2.1109,2.1109,2.1109,2.0729,2.0488,2.0106,1.9584,1.7753,1.4651,1.5944,1.5154,1.2553,1.1247,1.0717,4.8604,4.8019,4.7219,0.0,0.0,0.0,4.4349,4.434,4.4369,0.0,4.434,4.4425,4.4425,4.4425,4.4425,4.4425,4.4425,4.4425,4.4425,4.4425,4.4425,4.4425,4.4425,4.4425,4.4425,4.4425,4.4425,4.4425,4.3586,4.2868,4.2334,4.1544,4.0782,4.022,4.0123,4.028,4.0692,4.0612,4.0763,4.1172,4.1172,4.1172,4.1172,4.1172,4.1172,4.1172,4.1172,4.1172,4.1057,3.9709,3.9216,3.898,3.6703,3.5623,3.5253,3.3902,3.3418,3.3418,3.3418,3.3418,3.3418,3.3418,3.3418,3.3418,3.3418,3.3418,3.3214,3.2363,3.1358,3.0346,2.98,2.9397,2.8708,2.7039,2.6658,2.6277,2.4933,2.444,2.3946,2.2952,2.1853,2.1109,2.1109,2.1109,2.1109,2.1109,2.1109,2.1109,2.1109,2.1109,2.1109,2.1109,2.1109,2.1109,2.1109,2.1109,2.1109,2.1109,2.1109,2.1109,2.1109,2.0729,2.0488,2.0106,1.8407,1.6063,1.321,1.3464,1.2816,1.1115,1.085,1.0717,0.0,0.0,0.0,4.6579,0.0,0.0,0.0,4.4425,4.4425,4.4425,4.4425,4.4425,4.4425,4.4425,4.4425,4.4425,4.4425,4.4425,4.4425,4.4425,4.4425,4.4425,4.4425,4.4425,4.4425,4.4425,4.4209,4.3586,4.3081,4.2351,4.1209,4.074,4.017,3.9585,3.9609,3.9729,3.9994,4.0258,4.0523,4.0787,4.1052,4.1172,4.1172,4.1172,4.1172,4.1172,4.1172,4.0826,4.0083,3.8744,3.791,3.7188,3.5848,3.5005,3.4278,3.367,3.3418,3.3418,3.3418,3.3418,3.3418,3.3418,3.3418,3.3418,3.3418,3.3292,3.2942,3.2017,3.1121,3.034,2.9794,2.9269,2.8618,2.7263,2.7021,2.6779,2.6156,2.5423,2.481,2.4193,2.2952,2.1853,2.1235,2.1109,2.1109,2.1109,2.1109,2.1109,2.1109,2.1109,2.1109,2.1109,2.1109,2.1109,2.1109,2.1109,2.1109,2.1109,2.0982,2.0982,2.1109,2.0475,1.9571,1.8536,1.685,1.4903,1.2816,1.2165,1.138,1.0717,1.0717,1.0717,0.0,0.0,0.0,0.0,0.0,4.4425,0.0,0.0,0.0,0.0,0.0,0.0,4.4425,0.0,0.0,0.0,0.0,0.0,0.0,4.434,0.0,4.4425,4.4425,4.4425,4.4425,4.4209,4.3709,4.2889,4.2404,4.1655,4.0505,4.0215,3.9981,3.9585,3.9609,3.9609,3.9609,4.0042,4.0282,4.0403,4.0836,4.1076,4.1172,4.1172,4.1172,4.1172,4.1172,4.0455,3.9098,3.779,3.6581,3.5376,3.5129,3.4403,3.3418,3.3418,3.3418,3.3418,3.3418,3.3418,3.3418,3.3418,3.3418,3.3418,3.3418,3.3107,3.2574,3.1903,3.1114,3.0334,2.9683,2.9214,2.8737,2.7624,2.7383,2.7383,2.7383,2.652,2.5668,2.5056,2.4193,2.2952,2.1348,2.1109,2.1109,2.1109,2.1109,2.1109,2.1109,2.1109,2.1109,2.1109,2.1109,2.1109,2.1109,2.1109,2.1109,2.1109,2.0729,2.0729,2.0982,1.9826,1.8407,1.6592,1.5163,1.3866,1.2421,1.1247,1.0717,1.0717,1.0717,1.0717,0.0,0.0,0.0,0.0,4.5446,0.0,0.0,0.0,4.4425,4.4425,0.0,0.0,4.4425,0.0,0.0,0.0,0.0,0.0,4.3666,4.4059,4.4425,4.4425,4.4425,4.4425,4.4425,4.3491,4.2889,4.2792,4.0993,4.0055,4.04,3.9521,3.9165,3.9585,3.9609,3.9609,3.9609,3.9657,3.9922,4.0403,4.0451,4.0739,4.1172,4.1172,4.1172,4.1172,4.1172,4.0455,3.9098,3.779,3.6581,3.5253,3.4027,3.3544,3.3418,3.3418,3.3418,3.3418,3.3418,3.3418,3.3418,3.3418,3.3418,3.3418,3.3418,3.2642,3.1884,3.1342,3.056,2.9665,2.9159,2.9012,2.8975,2.8856,2.8737,2.8737,2.8737,2.8618,2.7882,2.5423,2.4933,2.3946,2.1475,2.1109,2.1109,2.1109,2.1109,2.1109,2.1109,2.1109,2.1109,2.1109,2.1109,2.1109,2.1109,2.1109,2.1109,2.1109,2.0729,2.0602,2.0615,1.8792,1.698,1.5163,1.3735,1.2289,1.0982,1.0717,1.0717,1.0717,1.0717,1.0717,0.0,0.0,0.0,0.0,0.0,0.0,4.4425,0.0,4.4425,0.0,0.0,0.0,0.0,0.0,0.0,0.0,4.4228,0.0,0.0,0.0,4.4425,0.0,0.0,0.0,4.4425,4.3993,4.3204,4.2012,4.1019,4.0108,3.9006,3.8838,3.8912,3.9152,3.9441,3.9609,3.9609,3.9609,3.9705,3.9946,4.0234,4.0523,4.0739,4.1052,4.1172,4.1172,4.1172,3.9966,3.8029,3.755,3.6093,3.4153,3.367,3.3418,3.3418,3.3418,3.3418,3.3418,3.3418,3.3418,3.3418,3.3418,3.3418,3.3418,3.3165,3.2497,3.1683,3.1039,3.0259,2.9489,2.9085,2.8975,2.8975,2.8975,2.8975,2.8975,2.8975,2.8975,2.8241,2.5546,2.5056,2.4193,2.1601,2.1109,2.1109,2.1109,2.1109,2.1109,2.1109,2.1109,2.1109,2.1109,2.1109,2.1109,2.1109,2.1109,2.0982,2.0856,2.0488,2.0106,1.9711,1.8279,1.6721,1.4912,1.3473,1.2165,1.0717,1.0717,1.0717,1.0717,1.0717,1.0717,4.8604,0.0,0.0,0.0,0.0,0.0,0.0,0.0,0.0,0.0,0.0,0.0,0.0,0.0,4.4369,4.42,0.0,4.434,0.0,4.4312,0.0,0.0,0.0,0.0,0.0,4.4115,4.3204,4.1319,4.0919,3.9905,3.808,3.8359,3.8671,3.8815,3.92,3.9465,3.9609,3.9609,3.9609,3.9609,3.9994,4.0186,4.0186,4.0739,4.098,4.098,4.0755,3.9357,3.7309,3.6946,3.5479,3.3418,3.3418,3.3418,3.3418,3.3418,3.3418,3.3418,3.3418,3.3418,3.3418,3.3418,3.3292,3.3146,3.2796,3.2199,3.1407,3.0747,2.9971,2.9342,2.9067,2.8737,2.848,2.8856,2.848,2.8122,2.8856,2.8737,2.7744,2.5423,2.5056,2.4193,2.1601,2.1109,2.1109,2.1109,2.1109,2.1109,2.1109,2.1109,2.1109,2.1109,2.1109,2.1109,2.1109,2.0982,2.0729,2.0348,2.0094,1.9584,1.8547,1.7378,1.5944,1.439,1.2947,1.1769,1.0717,1.0717,1.0717,1.0717,1.0717,1.0717,0.0,0.0,0.0,4.7563,0.0,0.0,0.0,0.0,4.4425,0.0,0.0,0.0,0.0,4.4425,4.4228,4.361,4.4031,0.0,0.0,0.0,0.0,0.0,0.0,0.0,0.0,4.3491,4.2404,4.1319,4.0211,3.9208,3.808,3.7998,3.8262,3.8791,3.8839,3.908,3.9609,3.9609,3.9609,3.9609,3.9633,3.9633,3.9657,4.0186,4.0427,4.0338,3.9616,3.8506,3.7188,3.5971,3.4652,3.3418,3.3418,3.3418,3.3418,3.3418,3.3418,3.3418,3.3418,3.3418,3.3418,3.3418,3.3165,3.2854,3.245,3.1531,3.0624,3.0214,2.9564,2.8993,2.8993,2.8002,2.7383,2.8737,2.7021,2.579,2.848,2.8002,2.6641,2.5301,2.5056,2.4193,2.1601,2.1109,2.1109,2.1109,2.1109,2.1109,2.1109,2.1109,2.1109,2.1109,2.1109,2.1109,2.1109,2.0856,2.0348,1.9711,1.9571,1.8792,1.7109,1.5684,1.4259,1.2947,1.1505,1.0717,1.0717,1.0717,1.0717,1.0717,1.0717,1.0717,0.0,0.0,4.7593,4.7593,0.0,0.0,0.0,0.0,0.0,0.0,0.0,0.0,0.0,4.4425,4.434,4.4144,4.4284,4.434,0.0,4.4284,0.0,0.0,0.0,0.0,0.0,0.0,4.3108,4.1319,4.0818,3.9905,3.808,3.7974,3.807,3.8262,3.8623,3.8912,3.908,3.9441,3.9441,3.908,3.9441,3.9417,3.9104,3.9633,3.9403,3.8704,3.8412,3.7072,3.5184,3.4727,3.3943,3.3008,3.3008,3.3184,3.3418,3.3418,3.3418,3.3418,3.3418,3.3418,3.3379,3.2855,3.2633,3.2306,3.1513,3.0851,3.0251,2.986,2.9407,2.8975,2.8975,2.8618,2.8241,2.7762,2.7021,2.6277,2.6399,2.6034,2.5301,2.3946,2.3698,2.3201,2.1348,2.1109,2.1109,2.1109,2.1109,2.1109,2.1109,2.1109,2.1109,2.1109,2.1109,2.0982,2.0729,2.0221,1.9839,1.9584,1.9456,1.8547,1.7109,1.5684,1.4259,1.2816,1.1372,1.0717,1.0717,1.0717,1.0717,1.0717,1.0717,1.0717,4.8604,4.8271,0.0,4.7679,4.6697,0.0,4.5595,0.0,0.0,0.0,0.0,0.0,0.0,4.4425,4.4425,4.4425,4.4425,4.4425,0.0,4.4425,0.0,0.0,0.0,4.4209,0.0,4.3804,4.2916,4.0818,4.0617,3.9905,3.808,3.7974,3.7974,3.7974,3.8334,3.8623,3.8815,3.9152,3.9248,3.9104,3.9248,3.9152,3.8815,3.9176,3.8856,3.8166,3.7428,3.6236,3.4719,3.3793,3.3155,3.2578,3.2578,3.2734,3.3008,3.332,3.3418,3.3418,3.3418,3.332,3.3019,3.2517,3.2076,3.1741,3.0709,3.0167,2.986,2.9867,2.9397,2.9048,2.9342,2.8456,2.7504,2.7142,2.5912,2.4933,2.4933,2.4687,2.407,2.3325,2.3076,2.2702,2.1362,2.1109,2.1109,2.1109,2.1109,2.1109,2.1109,2.1109,2.1109,2.1109,2.0982,2.0729,2.0221,1.9839,1.9571,1.9456,1.8804,1.7765,1.6333,1.4903,1.3532,1.2208,1.1171,1.0772,1.088,1.0772,1.0717,1.0717,1.0717,1.0585]},{"header":{"parameterUnit":"m.s-1","parameterCategory":1,"la1":30.6,"la2":29.2853,"lo1":-89.7004,"lo2":-87.6739,"dy":0.0162,"dx":0.0183,"nx":112,"ny":82,"refTime":"2023-10-09T18:00:00:Z","depth":0,"parameterNumber":3,"parameterNumberName":"V-component_of_WINDS"},"data":[0.0,0.0,0.0,0.0,0.0,0.0,0.0,0.0,0.0,0.0,0.0,0.0,0.0,0.0,0.0,0.0,0.0,0.0,0.0,0.0,0.0,0.0,0.0,0.0,0.0,0.0,0.0,0.0,0.0,0.0,0.0,0.0,0.0,0.0,0.0,0.0,0.0,0.0,0.0,0.0,0.0,0.0,0.0,0.0,0.0,0.0,0.0,0.0,0.0,0.0,0.0,0.0,0.0,0.0,0.0,0.0,0.0,0.0,0.0,0.0,0.0,0.0,0.0,0.0,0.0,0.0,0.0,0.0,0.0,0.0,0.0,0.0,0.0,0.0,0.0,0.0,0.0,0.0,0.0,0.0,0.0,0.0,0.0,0.0,0.0,0.0,0.0,0.0,0.0,0.0,-4.1588,-4.1588,-4.1083,-4.0704,-4.0609,-3.9503,-3.8744,-3.8523,0.0,0.0,0.0,0.0,0.0,0.0,0.0,0.0,0.0,0.0,0.0,0.0,0.0,0.0,0.0,0.0,0.0,0.0,0.0,0.0,0.0,0.0,0.0,0.0,0.0,0.0,0.0,0.0,0.0,0.0,0.0,0.0,0.0,0.0,0.0,0.0,0.0,0.0,0.0,0.0,0.0,0.0,0.0,0.0,0.0,0.0,0.0,0.0,0.0,0.0,0.0,0.0,0.0,0.0,0.0,0.0,0.0,0.0,0.0,0.0,0.0,0.0,0.0,0.0,0.0,0.0,0.0,0.0,0.0,0.0,0.0,0.0,0.0,0.0,0.0,0.0,0.0,0.0,0.0,0.0,0.0,0.0,0.0,0.0,0.0,0.0,0.0,0.0,0.0,0.0,0.0,0.0,0.0,0.0,0.0,0.0,0.0,0.0,0.0,0.0,0.0,0.0,0.0,0.0,-4.1588,-4.1588,-4.1494,-4.1209,-4.064,-4.0419,-3.9787,-3.8586,0.0,0.0,0.0,0.0,0.0,0.0,0.0,0.0,0.0,0.0,0.0,0.0,0.0,0.0,0.0,0.0,0.0,0.0,0.0,0.0,0.0,0.0,0.0,0.0,0.0,0.0,0.0,0.0,0.0,0.0,0.0,0.0,0.0,0.0,0.0,0.0,0.0,0.0,0.0,0.0,0.0,0.0,0.0,0.0,0.0,0.0,0.0,0.0,0.0,0.0,0.0,0.0,0.0,0.0,0.0,0.0,0.0,0.0,0.0,0.0,0.0,0.0,0.0,0.0,0.0,0.0,0.0,0.0,0.0,0.0,0.0,0.0,0.0,0.0,0.0,0.0,0.0,0.0,0.0,0.0,0.0,0.0,0.0,0.0,0.0,0.0,0.0,0.0,0.0,0.0,0.0,0.0,0.0,0.0,0.0,0.0,0.0,0.0,0.0,0.0,0.0,0.0,0.0,-4.1588,-4.1588,-4.1588,-4.1588,-4.1462,-4.1178,-4.0798,-4.0324,-3.9692,-3.8618,0.0,0.0,0.0,0.0,0.0,0.0,0.0,0.0,0.0,0.0,0.0,0.0,0.0,0.0,0.0,0.0,0.0,0.0,0.0,0.0,0.0,0.0,0.0,0.0,0.0,0.0,0.0,0.0,0.0,0.0,0.0,0.0,0.0,0.0,0.0,0.0,0.0,0.0,0.0,0.0,0.0,0.0,0.0,0.0,0.0,0.0,0.0,0.0,0.0,0.0,0.0,0.0,0.0,0.0,0.0,0.0,0.0,0.0,0.0,0.0,0.0,0.0,0.0,0.0,0.0,0.0,0.0,0.0,0.0,0.0,0.0,0.0,0.0,0.0,0.0,0.0,0.0,0.0,0.0,0.0,0.0,0.0,0.0,0.0,0.0,0.0,0.0,0.0,0.0,0.0,0.0,0.0,0.0,0.0,0.0,0.0,0.0,0.0,0.0,0.0,0.0,0.0,-4.2094,-4.2094,-4.2094,-4.1936,-4.1841,-4.1841,-4.1209,-4.0767,-4.0609,-3.9598,0.0,0.0,0.0,0.0,0.0,0.0,0.0,0.0,0.0,0.0,0.0,0.0,0.0,0.0,0.0,0.0,0.0,0.0,0.0,0.0,0.0,0.0,0.0,0.0,0.0,0.0,0.0,0.0,0.0,0.0,0.0,0.0,0.0,0.0,0.0,0.0,0.0,0.0,0.0,0.0,0.0,0.0,0.0,0.0,0.0,0.0,0.0,0.0,0.0,0.0,0.0,0.0,0.0,0.0,0.0,0.0,0.0,0.0,0.0,0.0,0.0,0.0,0.0,0.0,0.0,0.0,0.0,0.0,0.0,0.0,0.0,0.0,0.0,0.0,0.0,0.0,0.0,0.0,0.0,0.0,0.0,0.0,0.0,0.0,0.0,0.0,0.0,0.0,0.0,0.0,0.0,0.0,0.0,0.0,0.0,0.0,0.0,0.0,0.0,0.0,0.0,0.0,-4.3548,-4.3579,-4.3579,-4.2979,-4.26,-4.26,-4.1936,-4.1241,-4.064,-4.0514,0.0,0.0,0.0,0.0,0.0,0.0,0.0,0.0,0.0,0.0,0.0,0.0,0.0,0.0,0.0,0.0,0.0,0.0,0.0,0.0,0.0,0.0,0.0,0.0,0.0,0.0,0.0,0.0,0.0,0.0,0.0,0.0,0.0,0.0,0.0,0.0,0.0,0.0,0.0,0.0,0.0,0.0,0.0,0.0,0.0,0.0,0.0,0.0,0.0,0.0,0.0,0.0,0.0,0.0,0.0,0.0,0.0,0.0,0.0,0.0,0.0,0.0,0.0,0.0,0.0,0.0,0.0,0.0,0.0,0.0,0.0,0.0,0.0,0.0,0.0,0.0,0.0,0.0,0.0,0.0,0.0,0.0,0.0,0.0,0.0,0.0,0.0,0.0,0.0,0.0,0.0,0.0,0.0,0.0,0.0,0.0,0.0,0.0,0.0,0.0,0.0,0.0,-4.2663,-4.2378,0.0,-4.2157,-4.1999,-4.1999,-4.1746,-4.1494,-4.1241,0.0,0.0,0.0,0.0,0.0,0.0,0.0,0.0,0.0,0.0,0.0,0.0,0.0,0.0,0.0,0.0,0.0,0.0,0.0,0.0,0.0,0.0,0.0,0.0,0.0,0.0,0.0,0.0,0.0,0.0,0.0,0.0,0.0,0.0,0.0,0.0,0.0,0.0,0.0,0.0,0.0,0.0,0.0,0.0,0.0,0.0,0.0,0.0,0.0,0.0,0.0,0.0,0.0,0.0,0.0,0.0,0.0,0.0,0.0,0.0,0.0,0.0,0.0,0.0,0.0,0.0,0.0,0.0,0.0,0.0,0.0,0.0,0.0,0.0,0.0,0.0,0.0,0.0,0.0,0.0,0.0,0.0,0.0,0.0,0.0,0.0,0.0,0.0,0.0,0.0,0.0,0.0,0.0,0.0,0.0,0.0,0.0,0.0,0.0,0.0,0.0,0.0,-4.3011,-4.2568,-4.2284,0.0,-4.2062,-4.1936,-4.1936,-4.1715,-4.1588,-4.1588,0.0,0.0,0.0,0.0,0.0,0.0,0.0,0.0,0.0,0.0,0.0,0.0,0.0,0.0,0.0,0.0,0.0,0.0,0.0,0.0,0.0,0.0,0.0,0.0,0.0,0.0,0.0,0.0,0.0,0.0,0.0,0.0,0.0,0.0,0.0,0.0,0.0,0.0,0.0,0.0,0.0,0.0,0.0,0.0,0.0,0.0,0.0,0.0,0.0,0.0,0.0,0.0,0.0,0.0,0.0,0.0,0.0,0.0,0.0,0.0,0.0,0.0,0.0,0.0,0.0,0.0,0.0,0.0,0.0,0.0,0.0,0.0,0.0,0.0,0.0,0.0,0.0,0.0,0.0,0.0,0.0,0.0,0.0,0.0,0.0,0.0,0.0,0.0,0.0,0.0,0.0,0.0,0.0,0.0,0.0,0.0,0.0,0.0,0.0,0.0,0.0,0.0,-4.3706,-4.3706,-4.3706,-4.3706,-4.3074,-4.2663,-4.2663,-4.1999,-4.1588,0.0,0.0,0.0,0.0,0.0,0.0,0.0,0.0,0.0,0.0,0.0,0.0,0.0,0.0,0.0,0.0,0.0,0.0,0.0,0.0,0.0,0.0,0.0,0.0,0.0,0.0,0.0,0.0,0.0,0.0,0.0,0.0,0.0,0.0,0.0,0.0,0.0,0.0,0.0,0.0,0.0,0.0,0.0,0.0,0.0,0.0,0.0,0.0,0.0,0.0,0.0,0.0,0.0,0.0,0.0,0.0,0.0,0.0,0.0,0.0,0.0,0.0,0.0,0.0,0.0,0.0,0.0,0.0,0.0,0.0,0.0,0.0,0.0,0.0,0.0,0.0,0.0,0.0,0.0,0.0,0.0,0.0,0.0,0.0,0.0,0.0,0.0,0.0,0.0,0.0,0.0,0.0,0.0,0.0,0.0,0.0,0.0,0.0,0.0,0.0,0.0,0.0,0.0,-4.2979,-4.2537,-4.222,-4.222,-4.2031,-4.1904,-4.1904,-4.1715,-4.1588,-4.1588,0.0,0.0,0.0,0.0,0.0,0.0,0.0,0.0,0.0,0.0,0.0,0.0,0.0,0.0,0.0,0.0,0.0,0.0,0.0,0.0,0.0,0.0,0.0,0.0,0.0,0.0,0.0,0.0,0.0,0.0,0.0,0.0,0.0,0.0,0.0,0.0,0.0,0.0,0.0,0.0,0.0,0.0,0.0,0.0,0.0,0.0,0.0,0.0,0.0,0.0,0.0,0.0,0.0,0.0,0.0,0.0,0.0,0.0,0.0,0.0,0.0,0.0,0.0,0.0,0.0,0.0,0.0,0.0,0.0,0.0,0.0,0.0,0.0,0.0,0.0,0.0,0.0,0.0,0.0,0.0,0.0,0.0,0.0,0.0,0.0,0.0,0.0,0.0,0.0,0.0,0.0,0.0,0.0,0.0,0.0,0.0,0.0,0.0,0.0,0.0,0.0,0.0,-4.2252,-4.1873,-4.1588,-4.1588,-4.1588,-4.1588,-4.1588,-4.1588,-4.1588,-4.1588,0.0,0.0,0.0,0.0,0.0,0.0,0.0,0.0,0.0,0.0,0.0,0.0,0.0,0.0,0.0,0.0,0.0,0.0,0.0,0.0,0.0,0.0,0.0,0.0,0.0,0.0,0.0,0.0,0.0,0.0,0.0,0.0,0.0,0.0,0.0,0.0,0.0,0.0,0.0,0.0,0.0,0.0,0.0,0.0,0.0,0.0,0.0,0.0,0.0,0.0,0.0,0.0,0.0,0.0,0.0,0.0,0.0,0.0,0.0,0.0,0.0,0.0,0.0,0.0,0.0,0.0,0.0,0.0,0.0,0.0,0.0,0.0,0.0,0.0,0.0,0.0,0.0,0.0,0.0,0.0,0.0,0.0,0.0,0.0,0.0,0.0,0.0,0.0,0.0,0.0,0.0,0.0,0.0,0.0,0.0,0.0,0.0,0.0,0.0,0.0,0.0,0.0,-4.1588,-4.1588,-4.1588,-4.1588,-4.1588,-4.1588,-4.1588,-4.1588,-4.1588,-4.1588,0.0,0.0,0.0,0.0,0.0,0.0,0.0,0.0,0.0,0.0,0.0,0.0,0.0,0.0,0.0,0.0,0.0,0.0,0.0,0.0,0.0,0.0,0.0,0.0,0.0,0.0,0.0,0.0,0.0,0.0,0.0,0.0,0.0,0.0,0.0,0.0,0.0,0.0,0.0,0.0,0.0,0.0,0.0,0.0,0.0,0.0,0.0,0.0,0.0,0.0,0.0,0.0,0.0,0.0,0.0,0.0,0.0,0.0,0.0,0.0,-3.9292,0.0,0.0,0.0,0.0,0.0,0.0,0.0,0.0,0.0,0.0,0.0,0.0,0.0,0.0,0.0,0.0,0.0,0.0,0.0,0.0,0.0,0.0,0.0,0.0,0.0,0.0,0.0,0.0,0.0,0.0,0.0,0.0,0.0,0.0,0.0,0.0,0.0,0.0,0.0,0.0,0.0,-4.1588,-4.1588,-4.1588,-4.1588,-4.1588,-4.1588,-4.1588,-4.1588,-4.1588,-4.1588,-4.1588,0.0,0.0,0.0,0.0,0.0,0.0,0.0,0.0,0.0,0.0,0.0,0.0,0.0,0.0,0.0,0.0,0.0,0.0,0.0,0.0,0.0,0.0,0.0,0.0,0.0,0.0,0.0,0.0,0.0,0.0,0.0,0.0,0.0,0.0,0.0,0.0,0.0,0.0,0.0,0.0,0.0,0.0,0.0,0.0,0.0,0.0,0.0,0.0,0.0,0.0,0.0,0.0,0.0,0.0,0.0,0.0,0.0,0.0,0.0,0.0,-3.9292,0.0,0.0,0.0,0.0,0.0,0.0,0.0,0.0,0.0,0.0,0.0,0.0,0.0,0.0,0.0,0.0,0.0,0.0,0.0,0.0,0.0,0.0,0.0,0.0,0.0,0.0,0.0,0.0,0.0,0.0,0.0,0.0,0.0,0.0,0.0,0.0,0.0,0.0,0.0,0.0,-4.2062,-4.181,-4.1588,-4.1588,-4.1588,-4.1588,-4.1588,-4.1588,-4.1588,-4.1588,-4.1588,0.0,0.0,0.0,0.0,0.0,0.0,0.0,0.0,0.0,0.0,0.0,0.0,0.0,0.0,0.0,0.0,0.0,0.0,0.0,0.0,0.0,0.0,0.0,0.0,0.0,0.0,0.0,0.0,0.0,0.0,0.0,0.0,0.0,0.0,0.0,0.0,0.0,0.0,0.0,0.0,0.0,0.0,0.0,0.0,0.0,0.0,0.0,0.0,0.0,0.0,0.0,0.0,0.0,-4.0923,-4.0923,-4.111,-4.111,-4.111,-4.1055,-4.0051,-3.9617,-3.9617,-3.9617,0.0,0.0,0.0,0.0,0.0,0.0,0.0,0.0,0.0,0.0,0.0,0.0,0.0,0.0,0.0,0.0,0.0,0.0,0.0,0.0,0.0,0.0,0.0,0.0,-4.3358,-4.2884,0.0,0.0,0.0,0.0,0.0,0.0,0.0,0.0,0.0,0.0,0.0,0.0,-4.2789,-4.2347,-4.1968,-4.1968,-4.1968,-4.1968,-4.1968,-4.1968,-4.1904,-4.1778,-4.1778,-4.1715,0.0,0.0,0.0,0.0,0.0,0.0,0.0,0.0,0.0,0.0,0.0,0.0,0.0,0.0,0.0,0.0,0.0,0.0,0.0,0.0,0.0,0.0,0.0,0.0,0.0,0.0,0.0,0.0,0.0,0.0,0.0,0.0,-3.921,-3.9861,0.0,0.0,0.0,0.0,0.0,0.0,0.0,0.0,0.0,0.0,0.0,0.0,0.0,-4.092,-4.1001,-4.0294,-4.0348,-4.111,-4.0428,-4.0428,-4.111,-4.111,-4.111,-4.111,-4.0947,0.0,-4.0892,-4.0892,0.0,0.0,0.0,0.0,0.0,0.0,0.0,0.0,0.0,0.0,0.0,0.0,0.0,0.0,0.0,0.0,0.0,0.0,0.0,0.0,0.0,0.0,-4.3737,-4.3706,-4.4085,-4.4401,0.0,-4.2853,-4.1588,-4.1588,-4.2094,0.0,0.0,0.0,0.0,0.0,0.0,0.0,-4.3579,-4.3485,-4.3421,-4.339,-4.3421,-4.3453,-4.3453,-4.3421,-4.3169,-4.2568,-4.2537,-4.2252,-4.162,-4.1588,0.0,0.0,0.0,0.0,0.0,0.0,0.0,0.0,0.0,0.0,0.0,0.0,0.0,0.0,0.0,0.0,0.0,0.0,0.0,0.0,0.0,0.0,0.0,0.0,0.0,0.0,0.0,0.0,0.0,-3.9264,-3.9888,-4.016,-4.073,-4.111,0.0,0.0,0.0,0.0,0.0,0.0,0.0,0.0,0.0,-4.0428,-4.0428,-4.0588,-4.0909,-4.014,-4.0297,-4.1443,-4.0612,-4.0389,-4.0683,-4.0683,-4.0526,-4.036,-4.109,-4.1256,-4.1004,-4.1058,-4.111,-4.111,0.0,0.0,0.0,0.0,-4.0723,-4.0748,-4.0928,-4.1374,0.0,-4.228,0.0,0.0,0.0,0.0,0.0,0.0,0.0,0.0,0.0,0.0,-4.6076,-4.6076,-4.5981,-4.5886,-4.5886,-4.4875,-4.3959,0.0,-4.4211,-4.4433,-4.4433,0.0,0.0,0.0,0.0,-4.3832,-4.4211,-4.3959,-4.3706,-4.3674,-4.3706,-4.3737,-4.3737,-4.3706,-4.3579,-4.3295,-4.3263,-4.3309,-4.3327,-4.2646,-4.2685,0.0,0.0,0.0,0.0,0.0,0.0,0.0,0.0,0.0,0.0,0.0,0.0,0.0,0.0,0.0,0.0,0.0,0.0,0.0,0.0,0.0,0.0,0.0,0.0,0.0,0.0,0.0,0.0,-4.0268,-4.0648,-4.0648,-4.1191,-4.1571,0.0,0.0,0.0,0.0,0.0,0.0,-4.1571,-4.1167,-4.0787,-4.0377,-4.0377,-4.0491,-4.069,-4.0124,-4.0456,-4.1696,-4.0488,-4.0108,-4.0511,-4.0356,-4.0072,-3.9809,-4.1063,-4.1302,-4.1,-4.1437,-4.1571,-4.1571,-4.1571,-4.1489,-4.1354,-4.1354,-4.1404,-4.1636,-4.1636,-4.2091,-4.2721,-4.281,0.0,-4.3806,-4.3979,0.0,0.0,0.0,0.0,-4.6779,-4.6621,-4.72,-4.7909,-4.7909,-4.7624,-4.734,-4.734,-4.7087,-4.6645,0.0,-4.595,-4.6076,-4.6076,0.0,0.0,0.0,0.0,-4.4654,-4.5191,-4.4654,-4.4243,-4.4211,-4.4243,-4.4243,-4.4243,-4.4243,-4.418,-4.399,-4.399,-4.4071,-4.4458,-4.3642,-4.375,-4.492,0.0,0.0,0.0,0.0,0.0,0.0,0.0,0.0,0.0,0.0,0.0,0.0,0.0,0.0,0.0,0.0,0.0,0.0,0.0,0.0,0.0,0.0,0.0,0.0,0.0,0.0,0.0,0.0,0.0,-4.1924,-4.2439,0.0,0.0,0.0,0.0,-4.2792,-4.211,-4.2012,-4.2792,-4.1267,-4.0767,-4.1591,-4.1617,-4.1193,-4.0464,-4.0363,-4.0818,-4.1696,-3.95,-3.9346,-4.0852,-4.0271,-3.9981,-4.0076,-4.079,-4.1098,-4.1152,-4.2331,-4.2792,-4.2792,-4.2792,-4.2466,-4.1951,-4.1951,-4.1598,-4.111,-4.111,-4.1202,-4.1295,-4.1727,-4.2542,-4.3341,-4.3806,-4.4464,0.0,0.0,-4.541,-4.67,-4.6062,-4.6919,-4.7909,-4.7909,-4.8351,-4.8762,-4.8762,-4.9268,-4.8952,0.0,-4.6329,-4.674,-4.674,0.0,-4.7751,-4.7782,-4.715,-4.6645,-4.6676,-4.6108,-4.5697,-4.5697,-4.5697,-4.5697,-4.5697,-4.5697,-4.5412,-4.4717,-4.4654,-4.4369,-4.3737,-4.4292,-4.4951,-4.5682,-4.5555,0.0,0.0,0.0,0.0,0.0,0.0,0.0,0.0,0.0,0.0,0.0,0.0,0.0,0.0,0.0,0.0,0.0,0.0,0.0,0.0,0.0,0.0,0.0,0.0,0.0,0.0,0.0,0.0,-4.2575,-4.2765,0.0,-4.29,-4.29,-4.2679,-4.219,-4.2387,-4.2003,-4.0946,-4.1214,-4.0736,-3.9092,-3.9586,-3.9685,-3.9363,-3.8366,-3.8467,-3.9783,-3.8339,-3.8209,-3.9321,-3.9473,-3.9645,-3.9829,-4.1002,-4.1266,-4.1069,-4.2355,-4.2439,-4.1761,-4.1761,-4.1625,-4.1435,-4.1435,-4.13,-4.111,-4.111,-4.1295,-4.1727,-4.2542,-4.3165,-4.3719,-4.3892,-4.4151,-4.4294,-4.4065,-4.4773,-4.5574,-4.5327,-4.6303,-4.7278,-4.7278,-4.7729,-4.8256,-4.8256,-4.8446,-4.832,-4.734,-4.8035,-4.8667,-4.8225,-4.8004,-4.7751,-4.7277,-4.6613,-4.6171,-4.6171,-4.595,-4.5823,-4.5823,-4.5823,-4.5823,-4.5823,-4.5823,-4.5697,-4.5444,-4.5412,-4.5713,-4.6352,-4.5763,-4.6156,-4.7665,-4.6801,-4.6601,0.0,0.0,0.0,0.0,0.0,0.0,0.0,0.0,0.0,0.0,0.0,0.0,0.0,0.0,0.0,0.0,0.0,0.0,0.0,0.0,0.0,0.0,0.0,0.0,0.0,0.0,-4.29,-4.29,-4.29,-4.29,-4.29,-4.2711,-4.2285,-4.1505,-4.1515,-4.0931,-3.9561,-3.9829,-3.9355,-3.7593,-3.8265,-3.8665,-3.8542,-3.7931,-3.8206,-3.95,-3.8264,-3.8153,-3.896,-3.9443,-3.9728,-4.0002,-4.1512,-4.1772,-4.1363,-4.222,-4.2005,-4.1137,-4.1327,-4.1408,-4.1408,-4.1191,-4.111,-4.111,-4.111,-4.1295,-4.1727,-4.2721,-4.3253,-4.3544,-4.3892,-4.3979,-4.3979,-4.3979,-4.4464,-4.5025,-4.5274,-4.6062,-4.6936,-4.72,-4.7572,-4.7909,-4.7909,-4.7909,-4.7909,-4.7909,-4.8636,-4.9078,-4.8636,-4.8193,-4.7719,-4.7245,-4.6582,-4.6139,-4.6139,-4.595,-4.5823,-4.5823,-4.5823,-4.5823,-4.5823,-4.5823,-4.5823,-4.5823,-4.5823,-4.6333,-4.7473,-4.688,-4.7204,-4.8802,-4.7875,-4.7512,-4.77,0.0,0.0,0.0,0.0,0.0,0.0,0.0,0.0,0.0,0.0,0.0,0.0,0.0,0.0,0.0,0.0,0.0,0.0,0.0,0.0,0.0,0.0,0.0,-4.29,-4.29,-4.2873,-4.2846,-4.2846,-4.2846,-4.2819,-4.2304,-4.1597,-4.0896,-3.9596,-3.88,-3.8774,-3.7318,-3.684,-3.7518,-3.814,-3.8251,-3.8056,-3.9283,-4.0227,-4.0641,-3.9418,-3.9175,-3.9978,-4.0261,-4.0414,-4.0617,-4.2164,-4.2575,-4.2032,-4.2032,-4.1679,-4.1218,-4.1761,-4.1978,-4.1896,-4.1327,-4.111,-4.111,-4.111,-4.111,-4.1295,-4.2182,-4.2542,-4.2693,-4.369,-4.395,-4.395,-4.395,-4.4405,-4.5049,-4.5707,-4.6352,-4.7014,-4.7725,-4.7909,-4.7909,-4.7909,-4.7909,-4.7909,-4.7909,-4.7909,-4.7877,-4.7877,-4.7877,-4.7846,-4.7846,-4.7214,0.0,-4.6771,-4.6202,-4.5823,-4.5823,-4.5823,-4.5823,-4.5823,-4.5823,-4.5823,-4.5823,-4.5823,-4.612,-4.6828,-4.7539,-4.8256,-4.8944,-4.8836,-4.8493,-4.7734,0.0,0.0,0.0,0.0,0.0,0.0,0.0,0.0,0.0,0.0,0.0,0.0,0.0,0.0,0.0,0.0,0.0,0.0,0.0,0.0,0.0,0.0,-4.29,-4.29,-4.29,-4.2738,-4.2304,-4.2249,-4.1869,-4.0935,-4.0653,-3.9974,-3.8612,-3.9038,-3.8815,-3.7218,-3.8415,-3.8664,-3.7399,-3.7931,-3.8284,-3.8226,-3.8287,-3.8339,-3.8361,-3.8428,-3.8963,-3.9778,-4.021,-4.1019,-4.2262,-4.2679,-4.2792,-4.2629,-4.2629,-4.2548,-4.2331,-4.1625,-4.1354,-4.1354,-4.1191,-4.111,-4.111,-4.111,-4.1295,-4.1727,-4.2362,-4.2721,-4.3079,-4.3227,-4.3253,-4.3166,-4.2731,-4.3084,-4.3715,-4.4355,-4.5361,-4.6346,-4.6998,-4.754,-4.7909,-4.7909,-4.7909,-4.7909,-4.7909,-4.7909,-4.7719,-4.7182,-4.7087,-4.6929,-4.6455,-4.6202,0.0,-4.6076,-4.5918,-4.5823,-4.5823,-4.5823,-4.5823,-4.5823,-4.5823,-4.5823,-4.5823,-4.6262,-4.6828,-4.7539,-4.8256,-4.8978,-4.9649,-4.9653,-4.9286,0.0,0.0,0.0,0.0,0.0,0.0,0.0,0.0,0.0,0.0,0.0,0.0,0.0,0.0,0.0,0.0,0.0,0.0,0.0,0.0,0.0,0.0,-4.2231,-4.2027,-4.2168,-4.2358,-4.2304,-4.1707,-4.1558,-4.1149,-4.042,-4.0009,-3.9406,-3.8365,-3.8642,-3.8216,-3.685,-3.8009,-3.8083,-3.6867,-3.7472,-3.7922,-3.8142,-3.8172,-3.8325,-3.8832,-3.8865,-3.9536,-4.0696,-4.1234,-4.2215,0.0,-4.4157,-4.4257,-4.4013,-4.4013,-4.3877,0.0,0.0,0.0,0.0,0.0,-4.111,-4.111,-4.111,-4.1295,-4.1544,-4.2064,-4.2334,-4.2636,-4.2998,-4.3056,-4.3055,-4.2907,-4.3128,-4.3655,-4.4586,-4.5354,-4.6158,-4.7107,-4.7649,-4.7909,-4.7909,-4.7909,-4.7909,-4.7909,-4.7909,0.0,-4.734,-4.7277,-4.7119,-4.674,-4.6676,-4.6582,-4.6266,-4.6234,-4.6108,-4.5855,-4.5823,-4.5823,-4.5823,-4.5823,0.0,0.0,0.0,-4.7272,-4.8256,-4.8978,0.0,0.0,0.0,-4.9769,-4.9321,0.0,0.0,0.0,-4.7217,-4.6837,0.0,0.0,0.0,0.0,0.0,0.0,0.0,0.0,0.0,0.0,0.0,0.0,0.0,0.0,0.0,0.0,-4.1325,-4.0851,-4.1098,-4.1383,-4.1518,-4.0977,-4.084,-4.0649,-4.05,-3.9814,-3.9221,-3.8906,-3.7987,-3.7363,-3.7156,0.0,0.0,0.0,0.0,-3.7589,-3.807,-3.8658,-3.9575,-4.0749,-4.0087,-4.0656,-4.2157,-4.2751,-4.3516,-4.4282,-4.5708,-4.5967,-4.5478,-4.5478,-4.518,-4.4529,-4.2846,-4.2168,-4.2032,-4.1517,-4.1327,-4.1327,-4.1327,0.0,0.0,-4.1828,-4.2012,-4.2258,-4.3012,-4.3367,-4.3426,-4.3921,-4.4065,-4.4408,-4.5695,-4.6103,-4.6456,-4.7792,-4.813,-4.813,-4.813,-4.813,-4.813,-4.813,-4.813,-4.813,-4.813,-4.8004,-4.7909,-4.7909,-4.7909,-4.7656,-4.6992,-4.6929,-4.6708,-4.6108,0.0,0.0,-4.6044,-4.5981,-4.5918,-4.6063,-4.6684,-4.7671,-4.8944,-4.9649,-5.0011,-5.0011,-5.0011,-5.0011,-5.0011,-5.0011,-4.9631,-4.8941,-4.8183,-4.7803,0.0,0.0,0.0,0.0,0.0,0.0,0.0,0.0,0.0,0.0,0.0,0.0,0.0,0.0,0.0,-4.1381,-4.0683,-4.0346,-4.1044,-4.0156,-3.9581,-4.005,-4.0526,-4.0103,-3.8338,-3.8016,-3.7667,-3.7006,-3.7121,-3.7291,-3.718,-3.7926,-3.8359,-3.8359,-3.8455,-3.8551,-3.8647,-3.9365,-3.989,-4.0308,0.0,0.0,-4.3205,-4.331,-4.3804,-4.4651,-4.4888,-4.499,-4.4881,-4.4881,-4.4827,-4.461,-4.3769,-4.3145,-4.2711,-4.2575,-4.2548,-4.2548,-4.2548,-4.2548,-4.2644,-4.3066,-4.3565,-4.3947,-4.3987,-4.4263,0.0,-4.4124,-4.4379,-4.506,-4.6433,-4.713,-4.7849,-4.9237,-4.9521,-4.9521,-4.9521,-4.9521,-4.9521,-4.9521,-4.9521,-4.9521,-4.9521,-4.8636,-4.7909,-4.7909,-4.7909,-4.7846,-4.7719,-4.7688,-4.7624,-4.7498,-4.7498,-4.7498,-4.7498,-4.6961,-4.6875,-4.7419,-4.8134,-4.8917,-4.9742,-4.9918,-5.0011,-5.0011,-5.0011,-5.0011,-5.0011,-5.0011,-4.9942,-4.9769,-4.8976,-4.8286,0.0,0.0,0.0,0.0,0.0,0.0,0.0,0.0,0.0,0.0,0.0,-4.2058,-4.0675,0.0,-4.126,-4.0267,-3.9744,-3.9728,-4.0491,-3.9503,-3.8885,-3.9764,-3.9654,-3.9094,-3.8016,-3.7833,-3.7691,-3.7589,-3.7589,-3.7709,-3.7998,-3.8262,-3.8407,-3.8407,-3.8671,-3.8815,-3.8815,-3.9898,-4.0664,-4.1089,-4.1792,-4.2866,-4.4082,-4.391,-4.438,-4.518,-4.5451,-4.5587,-4.5587,-4.5587,-4.5424,-4.5126,-4.48,-4.4122,-4.3335,-4.3335,-4.3145,-4.29,-4.29,-4.29,-4.2997,-4.3163,-4.3451,-4.3681,-4.3817,-4.4287,-4.4595,-4.455,-4.5172,-4.6152,-4.7159,-4.7916,-4.8662,-4.9678,-4.9931,-4.9931,-4.9931,-4.9931,-4.9931,-4.9931,-4.9931,-4.9931,-4.9931,-4.9363,-4.892,-4.892,-4.892,-4.8794,-4.8446,-4.8383,-4.8256,-4.794,-4.7909,-4.8029,-4.8413,-4.8465,-4.8595,-4.8944,-4.9289,-4.9801,-5.0504,-5.0218,-5.0011,-5.0011,-5.0011,-5.0011,-5.0011,-5.0011,-5.0011,-5.0011,-4.9597,-4.9217,0.0,0.0,0.0,0.0,0.0,0.0,0.0,-4.2614,-4.2355,-4.1186,-4.1436,-4.1247,-3.9303,-4.008,-4.048,-3.9323,-3.8981,-3.919,-4.0199,-3.9226,-3.8793,-3.9622,-3.9094,-3.8562,-3.8255,-3.8258,-3.8379,-3.8623,-3.8238,-3.819,-3.8623,-3.8334,-3.8142,-3.8142,-3.8791,-3.908,-3.8984,-4.033,-4.1447,-4.2311,-4.2413,-4.3415,-4.5071,-4.4858,-4.5072,-4.5777,-4.6265,-4.6482,-4.6482,-4.6482,-4.6184,-4.575,-4.575,-4.5098,-4.4122,-4.3986,-4.366,-4.3226,-4.309,-4.316,-4.323,-4.3121,-4.3163,-4.3451,-4.3804,-4.4275,-4.4769,-4.5138,-4.5956,-4.6901,-4.7649,-4.8324,-4.8903,-4.9741,-4.9931,-4.9931,-4.9931,-4.9931,-4.9931,-4.9931,-4.9931,-4.9931,-4.9931,-4.9931,-4.9931,-4.9931,-4.9931,-4.971,-4.9141,-4.9078,-4.8889,-4.8351,-4.8288,-4.8497,-4.9159,-5.0014,-5.0426,-5.0225,-5.0447,-5.0741,-5.1262,-5.0631,-5.0218,-5.0218,-5.008,-5.0011,-5.0011,-5.0011,-5.0011,-5.0011,-5.0011,-5.0011,-4.29,-4.2387,-4.1796,-4.1796,-4.1796,-4.1663,0.0,-4.1609,-4.1924,-4.1233,-4.1125,-4.0749,-3.9362,-3.9719,-4.0086,-3.927,-3.911,-3.9506,-4.0552,-3.9418,-3.8664,-3.9191,-3.9778,-3.9624,-3.8194,-3.8662,-3.8841,-3.8176,-3.8022,-3.8022,-3.807,-3.8479,-3.8719,-3.8719,-3.9705,-3.9994,-3.9513,-4.0612,-4.1755,-4.2874,-4.3387,-4.4621,-4.6265,-4.6242,-4.6269,-4.6374,-4.6455,-4.6482,-4.6482,-4.6482,-4.6428,-4.6374,-4.6374,-4.5967,-4.5316,-4.48,-4.4556,-4.442,-4.3877,-4.3955,-4.4263,-4.3684,-4.4087,-4.4833,-4.4926,-4.5321,-4.5714,-4.5805,-4.5895,-4.6314,-4.7563,-4.7988,-4.8324,-4.9582,-4.9931,-4.9931,-4.9931,-4.9931,-4.9931,-4.9931,-4.9931,-4.9931,-4.9931,-4.9931,-4.9931,-4.9931,-4.9931,-4.99,-4.9805,-4.9805,-4.9773,-4.971,-4.971,-4.9705,-4.9863,-5.119,-5.1695,-5.1085,-5.1651,-5.2019,-5.208,-5.139,-5.0976,-5.0976,-5.0321,-5.0011,-5.0011,-5.0011,-5.0011,-5.0011,-5.0011,-5.0011,-4.29,-4.2436,-4.1877,-4.1877,-4.1635,-4.1313,-4.1045,-4.118,-4.1206,-4.0147,-4.0291,-4.0011,-3.8266,-3.9188,-4.0005,-3.9243,-3.9638,-4.0245,-4.072,-4.0076,-3.9448,-3.9183,-3.9905,-3.9802,-3.8185,-3.8291,-3.8396,-3.7974,-3.7974,-3.8262,-3.8888,-3.9152,-3.9561,-4.0186,-4.0932,-4.1541,-4.1752,-4.2736,-4.3736,-4.4718,-4.518,-4.5795,-4.6482,-4.6482,-4.6482,-4.6482,-4.6482,-4.6482,-4.6482,-4.6482,-4.6482,-4.6482,-4.6482,-4.6319,-4.6021,-4.5451,-4.499,-4.4664,-4.4393,-4.4412,-4.4556,-4.431,-4.4443,-4.4741,-4.4741,-4.5052,-4.5413,-4.5413,-4.6195,-4.7219,-4.7734,-4.849,-4.9178,-4.9773,-4.9931,-4.9931,-4.9931,-4.9931,-4.9931,-4.9931,-4.9931,-4.9931,-4.9931,-4.9931,-4.9931,-4.9931,-4.9931,-4.9931,-4.9931,-4.9931,-5.0058,-5.0525,-5.1369,-5.175,-5.1349,-5.2674,-5.3267,-5.2535,-5.274,-5.2908,-5.2908,-5.2149,-5.177,-5.177,-5.1045,-5.0666,-5.0666,-5.0218,-5.0011,-5.0011,-5.0011,-5.0011,-4.2683,-4.2331,-4.1856,-4.1504,-4.1248,-4.099,-4.0614,-4.068,-4.0491,-3.9413,-3.9688,-3.9661,-3.795,-3.9176,-4.021,-3.972,-4.0436,-4.1143,-4.101,-4.0659,-4.0109,-3.9312,-3.9519,-3.9312,-3.808,-3.8185,-3.8185,-3.7974,-3.8262,-3.8767,-3.9561,-4.0018,-4.0619,-4.1389,-4.2272,-4.3124,-4.3672,-4.4599,-4.54,-4.5998,-4.625,-4.6407,-4.6482,-4.6482,-4.6482,-4.6482,-4.6482,-4.6482,-4.6482,-4.6482,-4.6482,-4.6482,-4.6482,-4.6482,-4.6428,-4.5994,-4.556,-4.518,-4.5017,-4.5037,-4.5111,-4.4947,-4.4991,-4.4997,-4.5191,-4.5363,-4.5745,-4.6085,-4.714,-4.8309,-4.8621,-4.9491,-5.0259,-5.042,-5.05,-5.05,-5.05,-5.05,-5.05,-5.05,-5.0342,-5.0216,-5.0216,-5.0058,-4.9931,-4.9931,-4.9931,-4.9931,-4.9931,-4.9931,-5.0214,-5.1027,-5.2312,-5.2941,-5.2561,-5.3715,-5.4303,-5.3749,-5.3724,-5.3701,-5.3701,-5.2977,-5.2563,-5.2563,-5.1804,-5.1425,-5.1425,-5.0666,-5.0321,-5.0321,-5.008,-5.0011,-4.2195,-4.2005,-4.1653,-4.0304,-4.0549,-4.0761,-3.9429,-3.9666,-4.0051,-3.9454,-3.978,-3.9978,-3.9124,-4.0187,-4.0992,-4.0887,-4.1501,-4.1908,-4.169,-4.0945,-4.0109,-3.9312,-3.8502,-3.808,0.0,-3.8712,-3.8816,-3.808,-3.896,-3.9561,-3.9609,-4.1076,-4.1918,-4.1942,-4.388,-4.465,-4.4128,-4.5563,-4.6202,-4.5998,-4.5972,-4.6249,-4.6482,-4.6482,-4.6482,-4.6482,-4.6482,-4.6482,-4.6482,-4.6482,-4.6482,-4.6482,-4.6482,-4.6482,-4.6482,-4.6455,-4.6428,-4.6347,-4.5777,-4.584,-4.6137,-4.5531,-4.5733,-4.6223,-4.6803,-4.6899,-4.7157,-4.8437,-4.8803,-4.9164,-5.0574,-5.0917,-5.1087,-5.1789,-5.1954,-5.1954,-5.1954,-5.1954,-5.1954,-5.1954,-5.1385,-5.0943,-5.0943,-5.0374,-4.9931,-4.9931,-4.9931,-4.9931,-4.9931,-4.9931,-5.0214,-5.1027,-5.1776,-5.2561,-5.3315,-5.4076,-5.4494,-5.4431,-5.4494,-5.4494,-5.4494,-5.377,-5.3356,-5.3356,-5.2597,-5.2183,-5.2183,-5.1459,-5.108,-5.1045,-5.0321,-5.0011,-4.2059,-4.1408,-4.0638,-4.0264,-4.0005,-3.9771,-3.9285,-3.9411,-3.9644,-3.9861,-4.0051,-4.0231,-4.036,-4.1113,-4.1666,-4.1692,-4.2139,-4.2145,-4.1019,-4.1544,-4.1145,-3.8712,-3.9104,-3.9208,0.0,0.0,0.0,-3.9008,-3.9393,-4.021,-4.1629,-4.2206,-4.3165,-4.4446,-4.52,-4.5993,-4.7082,-4.7247,-4.7529,-4.805,-4.727,-4.6812,-4.6482,-4.6482,-4.6482,-4.6482,-4.6482,-4.6482,-4.6482,-4.6482,-4.6482,-4.6482,-4.6482,-4.6482,-4.6482,-4.6482,-4.6482,-4.6455,-4.6238,-4.6261,-4.6441,-4.6223,-4.6376,-4.6841,-4.7038,-4.7241,-4.7688,-4.8679,-4.9224,-4.9819,-5.0722,-5.1318,-5.1737,-5.1935,-5.2017,-5.2017,-5.2017,-5.2017,-5.2017,-5.2017,-5.1828,-5.167,-5.167,-5.1069,-5.0469,-4.9995,-4.9931,-4.9931,-4.9931,-5.0767,-5.1557,-5.1776,-5.3009,-5.3847,-5.4076,-5.4367,-5.4494,-5.4494,-5.4494,-5.4494,-5.4494,-5.4253,-5.4149,-5.4149,-5.3391,-5.3011,-5.3011,-5.2218,-5.1839,-5.1839,-5.1597,-5.1419,-4.1408,-4.0784,-4.0133,-3.9916,-3.959,-3.9292,-3.9292,-3.9292,-3.9481,-4.0078,-4.035,-4.0703,-4.1327,-4.1924,-4.2331,-4.2331,-4.2629,-4.2484,-4.1445,-4.1743,-4.1246,-3.9104,-3.9287,-3.9253,-3.8634,0.0,0.0,-3.9561,-4.0306,-4.1317,-4.2687,-4.3456,-4.4448,-4.5743,-4.6465,-4.7416,-4.8584,-4.8558,-4.8637,-4.8816,-4.7812,-4.7052,-4.6482,-4.6482,-4.6482,-4.6482,-4.6482,-4.6482,-4.6482,-4.6482,-4.6482,-4.6482,-4.6482,-4.6482,-4.6482,-4.6482,-4.6482,-4.6482,-4.6482,-4.6482,-4.6587,-4.6692,-4.6909,-4.7186,-4.7587,-4.7897,-4.8449,-4.9637,-5.0246,-5.0873,-5.1864,-5.2408,-5.2744,-5.2744,-5.2744,-5.2744,-5.2744,-5.2744,-5.2744,-5.2744,-5.2554,-5.2396,-5.2396,-5.1828,-5.1101,-5.0405,-5.0517,-5.05,-4.9963,-5.0995,-5.1921,-5.2208,-5.3348,-5.4239,-5.4494,-5.4494,-5.4494,-5.4494,-5.4494,-5.4494,-5.4494,-5.4494,-5.4494,-5.4494,-5.4046,-5.3804,-5.3804,-5.3011,-5.2632,-5.2632,-5.2562,-5.2439,-4.035,-4.016,-3.9997,-3.9427,-3.9292,-3.9292,-3.9292,-3.9292,-3.9481,-4.0106,-4.0703,-4.13,-4.1924,-4.2493,-4.29,-4.29,-4.29,-4.29,-4.2776,-4.1445,-4.0516,-4.0313,-3.905,-3.8562,-3.9513,-3.9705,0.0,-3.9753,0.0,-4.2903,-4.307,-4.4741,-4.5889,-4.5889,-4.7652,-4.8584,-4.87,-4.9529,-4.9413,-4.8246,-4.7676,-4.7079,-4.6482,-4.6482,-4.6482,-4.6482,-4.6482,-4.6482,-4.6482,-4.6482,-4.6482,-4.6482,-4.6482,-4.6482,-4.6482,-4.6482,-4.6482,-4.6482,-4.6482,-4.6482,-4.6587,-4.7081,-4.7288,-4.7494,-4.8509,-4.8909,-4.9375,-5.1326,-5.188,-5.2245,-5.3726,-5.4103,-5.4103,-5.4103,-5.4103,-5.4103,-5.4103,-5.4103,-5.4103,-5.4103,-5.3597,-5.3155,-5.3123,-5.2523,-5.1828,-5.1213,-5.166,-5.1572,-5.0153,-5.0679,-5.1443,-5.2208,-5.3009,-5.3749,-5.4431,-5.4494,-5.4494,-5.4494,-5.4494,-5.4494,-5.4494,-5.4494,-5.4494,-5.4494,-5.4494,-5.4494,-5.4494,-5.3804,-5.346,-5.3487,-5.3346,-5.3212,-4.0241,-3.9861,-3.9481,-3.9346,-3.9292,-3.9292,-3.9292,-3.9292,-3.959,-4.0675,-4.1001,-4.1435,-4.2466,-4.2792,-4.29,-4.29,-4.29,-4.2484,-4.1246,-4.1743,-4.1345,-3.8896,-4.0034,-4.0657,-3.9695,-4.1028,0.0,0.0,-4.2447,-4.379,-4.6011,-4.586,-4.6465,-4.7886,-4.8353,-4.893,-4.9643,-4.9897,-4.9413,-4.8246,-4.8083,-4.7486,-4.6482,-4.6482,-4.6482,-4.6482,-4.6482,-4.6482,-4.6482,-4.6482,-4.6482,-4.6482,-4.6482,-4.6482,-4.6482,-4.6482,-4.6482,-4.6482,-4.6482,-4.6482,-4.6482,-4.6692,-4.6977,-4.7391,-4.8078,-4.8951,-4.9999,-5.1512,-5.2276,-5.2905,-5.3813,-5.4103,-5.4103,-5.4103,-5.4103,-5.4103,-5.4103,-5.4103,-5.4103,-5.4103,-5.3945,-5.3692,-5.3186,-5.2965,-5.2803,-5.2684,-5.234,-5.1803,-5.0896,-5.1954,-5.2905,-5.3078,-5.3815,-5.4303,-5.4494,-5.4494,-5.4494,-5.4494,-5.4494,-5.4494,-5.4494,-5.4494,-5.4494,-5.4494,-5.4494,-5.4494,-5.4494,-5.4322,-5.4433,-5.4885,-5.4852,-5.4965,-3.9807,-3.9563,-3.9292,-3.9292,-3.9292,-3.9373,-3.9617,-3.9671,-4.0051,-4.1245,-4.1489,-4.1788,-4.2711,-4.29,-4.29,-4.29,-4.29,-4.2582,-4.1644,-4.1967,-4.167,-3.9827,-4.0706,-4.1264,-4.0881,-4.2006,-4.3191,0.0,-4.4157,-4.4882,-4.644,-4.6824,-4.7534,-4.8584,-4.9045,-4.9415,-5.001,-5.001,-4.9413,-4.8246,-4.8246,-4.7622,-4.6482,-4.6482,-4.6482,-4.6482,0.0,-4.6482,-4.6482,-4.6482,-4.6482,-4.6482,-4.6482,-4.6482,-4.6482,-4.6482,-4.6482,-4.6482,-4.6482,-4.6482,-4.6587,-4.6796,-4.7184,-4.7773,-4.8653,-4.9611,-5.0668,-5.1972,-5.2637,-5.3201,-5.3931,-5.4103,-5.4103,-5.4103,-5.4103,-5.4103,-5.4103,-5.4103,-5.4103,-5.4103,-5.4103,-5.3976,-5.3597,-5.384,-5.3967,-5.379,-5.3957,-5.375,-5.2693,-5.3073,-5.3382,-5.3382,-5.4076,-5.4494,-5.4494,-5.4494,-5.4494,-5.4494,-5.4494,-5.4494,-5.4494,-5.4494,-5.4494,-5.4494,-5.4494,-5.462,-5.4896,-5.4896,-5.5224,-5.5773,-5.6055,-5.6241,-3.9292,-3.9292,-3.9292,-3.9292,-3.9292,-3.9454,-4.0051,-4.0187,-4.054,-4.1761,-4.2005,-4.2168,-4.2792,-4.29,-4.29,-4.29,-4.29,-4.29,-4.2885,-4.2244,-4.1849,-4.1808,-4.1565,-4.1688,-4.26,-4.2983,-4.3939,-4.5814,-4.5889,-4.5889,-4.613,-4.7769,-4.87,-4.8815,-4.9529,-5.001,-5.001,-4.9928,-4.9331,-4.8246,-4.8165,-4.7541,-4.6482,-4.6482,-4.6482,-4.6482,-4.6482,0.0,-4.6482,-4.6482,-4.6482,-4.6482,-4.6482,-4.6482,-4.6482,-4.6482,-4.6482,-4.6482,-4.6482,-4.6482,-4.6587,-4.6977,-4.7596,-4.8252,-4.9484,-5.0383,-5.1263,-5.2547,-5.3024,-5.329,-5.3899,-5.4103,-5.4103,-5.4103,-5.4103,-5.4103,-5.4103,-5.4103,-5.4103,-5.4103,-5.4103,-5.4103,-5.4242,-5.4851,-5.5166,-5.4821,-5.5888,-5.6258,-5.5076,-5.4194,-5.3618,-5.355,-5.4076,-5.4494,-5.4494,-5.4494,-5.4494,-5.4494,-5.4494,-5.4494,-5.4494,-5.4494,-5.4494,-5.4494,-5.4557,-5.4896,-5.5402,-5.5519,-5.583,-5.6438,-5.6912,-5.7166,-3.9292,-3.9292,-3.9292,-3.9292,-3.9292,-3.9454,-4.0051,-4.0187,-4.054,-4.1761,-4.2005,-4.2168,-4.2792,-4.29,-4.29,-4.29,-4.29,-4.2868,-4.2658,-4.2708,-4.2538,-4.2138,-4.3358,-4.4292,-4.4326,-4.4903,0.0,0.0,-4.625,-4.6465,-4.8003,-4.8469,-4.893,-4.9783,-4.9897,-5.001,-5.001,-4.9521,-4.8924,-4.8246,-4.7758,-4.7134,-4.6482,-4.6482,-4.6482,-4.6482,-4.6482,0.0,-4.6482,-4.6482,-4.6482,-4.6482,-4.6482,-4.6482,-4.6482,-4.6482,-4.6482,-4.6482,-4.6482,-4.6482,-4.6482,-4.6587,-4.726,-4.8122,-4.8795,-5.0228,-5.1758,-5.2547,-5.329,-5.3931,-5.4103,-5.4103,-5.4103,-5.4103,-5.4103,-5.4103,-5.4103,-5.4103,-5.4103,-5.4103,-5.4103,-5.4327,-5.5017,-5.5231,-5.573,-5.7022,-5.6886,-5.6843,-5.726,-5.6091,-5.4957,-5.4372,-5.4431,-5.4494,-5.4494,-5.4494,-5.4494,-5.4494,-5.4494,-5.4494,-5.4494,-5.4494,-5.4494,-5.4494,-5.5018,-5.5284,-5.5402,-5.5887,-5.6438,-5.6964,-5.7065,-5.7401,-3.9292,-3.9292,-3.9292,-3.9292,-3.9292,-3.9454,-4.0051,-4.0431,-4.092,-4.1815,-4.2249,-4.2548,-4.2846,-4.29,-4.29,-4.29,-4.29,-4.2885,-4.2762,-4.3138,-4.3256,-4.3088,-4.4494,-4.5463,-4.5285,-4.6064,-4.673,-4.7205,-4.718,-4.7652,-4.8584,-4.9045,-4.9529,-5.001,-5.001,-5.001,-5.001,-4.9413,-4.8843,-4.8246,-4.7649,-4.7052,-4.6482,-4.6482,-4.6482,-4.6482,-4.6482,0.0,-4.6482,-4.6482,-4.6482,-4.6482,-4.6482,-4.6482,-4.6482,-4.6482,-4.6482,-4.6482,-4.6482,-4.6482,-4.656,-4.7157,-4.7948,-4.8696,-4.9357,-5.0892,-5.2516,-5.329,-5.3726,-5.4103,-5.4103,-5.4103,-5.4103,-5.4103,-5.4103,-5.4103,-5.4103,-5.4103,-5.4103,-5.4103,-5.4497,-5.4851,-5.5231,-5.6001,-5.6854,-5.7668,-5.7902,-5.7775,-5.7359,-5.6702,-5.5943,-5.515,-5.4736,-5.4494,-5.4494,-5.4494,-5.4494,-5.4494,-5.4494,-5.4494,-5.4494,-5.4494,-5.4683,-5.4957,-5.5224,-5.5716,-5.6295,-5.6599,-5.7015,-5.7546,-5.7546,-5.7726,-3.9292,-3.9292,-3.9292,-3.9292,-3.9292,-3.9454,-4.0051,-4.0675,-4.13,-4.1896,-4.2466,-4.29,-4.29,-4.29,-4.29,-4.29,-4.29,-4.2928,-4.3063,-4.347,-4.3877,-4.4122,-4.5393,-4.627,-4.6402,-4.7064,0.0,-4.7795,-4.8469,0.0,-4.893,-4.9643,-5.001,-5.001,-5.001,-5.001,-5.001,-4.9304,-4.8707,-4.8246,-4.7513,-4.6916,-4.6482,-4.6482,-4.6537,-4.6672,-4.6672,0.0,0.0,-4.6862,-4.6862,-4.6862,-4.6862,-4.6862,-4.6862,-4.6862,-4.6862,-4.6835,-4.6699,-4.6855,-4.7142,-4.7773,-4.8596,-4.9386,-5.0228,-5.1666,-5.3201,-5.3813,-5.4017,-5.4103,-5.4103,-5.4103,-5.4103,-5.4103,-5.4103,-5.4103,-5.4103,-5.4242,-5.4327,-5.4327,-5.5017,-5.5636,-5.5763,-5.6963,-5.7887,-5.8031,-5.8425,-5.8357,-5.7185,-5.6736,-5.6322,-5.5667,-5.4943,-5.4494,-5.4494,-5.4494,-5.4494,-5.4494,-5.4494,-5.4494,-5.4494,-5.462,-5.4896,-5.5402,-5.5658,-5.6185,-5.7116,-5.7216,-5.7546,-5.7997,-5.7997,-5.7997,-3.9292,-3.9292,-3.9292,-3.9292,-3.9292,-3.9454,-4.0051,-4.0675,-4.13,-4.1896,-4.2466,-4.29,-4.29,-4.29,-4.29,-4.29,-4.29,-4.3063,-4.3606,-4.3742,-4.4176,-4.5288,-4.6564,-4.746,-4.7893,-4.8239,-4.8815,-4.967,0.0,0.0,-4.9897,-4.9897,-5.001,-5.001,-5.001,-5.001,-5.001,-4.8897,-4.83,-4.8246,-4.7106,-4.6509,-4.6482,-4.6482,-4.6781,-4.7269,-4.7269,0.0,0.0,-4.8083,-4.8083,-4.8083,-4.8083,-4.8083,-4.8083,-4.8083,-4.8083,-4.8002,-4.7459,-4.7878,-4.8574,-4.8116,-4.8696,-4.9776,-5.0733,-5.2154,-5.3377,-5.3465,-5.3726,-5.4103,-5.4103,-5.4103,-5.4103,-5.4103,-5.4103,-5.4103,-5.4103,-5.4685,-5.5231,-5.5231,-5.5876,-5.6691,-5.7413,-5.7741,-5.8031,-5.8771,-5.8358,-5.7943,-5.784,-5.6598,-5.5701,-5.5632,-5.4943,-5.4494,-5.4494,-5.4494,-5.4494,-5.4494,-5.4494,-5.4494,-5.4494,-5.5018,-5.5343,-5.5402,-5.6403,-5.7015,-5.7116,-5.7679,-5.795,-5.7997,-5.7997,-5.7997,-3.9292,-3.9292,-3.9292,-3.9292,-3.9292,-3.9373,-3.959,-4.0133,-4.073,-4.1354,-4.1951,-4.2466,-4.2819,-4.29,-4.29,-4.29,-4.29,-4.2955,-4.3199,-4.3877,-4.4501,-4.499,-4.6428,-4.7595,-4.8192,0.0,-4.9153,-4.9983,0.0,0.0,-5.001,-5.001,-5.001,-5.001,-5.001,-5.001,-5.001,-4.9196,-4.8599,-4.8246,-4.7405,-4.6808,-4.6482,-4.6835,-4.7134,-4.7378,-4.7731,0.0,0.0,-4.8246,-4.8246,-4.8246,-4.8246,-4.8246,-4.8246,-4.8246,-4.8246,-4.8301,-4.8779,-4.9197,-4.9662,-5.083,-5.117,-5.1172,-5.1323,-5.2336,-5.3465,-5.3584,-5.3789,-5.3931,-5.4103,-5.4103,-5.4103,-5.4103,-5.4103,-5.4103,-5.4103,-5.4685,-5.5312,-5.5312,-5.6393,-5.7446,-5.7741,-5.8174,-5.8495,-5.8358,-5.8081,-5.7564,-5.6633,-5.5977,-5.546,-5.5012,-5.4701,-5.4494,-5.4494,-5.4494,-5.4494,-5.4494,-5.4834,-5.5079,-5.5079,-5.5601,-5.6111,-5.6403,-5.6861,-5.7266,-5.7642,-5.7867,-5.7997,-5.7997,-5.7997,-5.7997,-3.9292,-3.9292,-3.9292,-3.9292,-3.9292,-3.9292,-3.9292,-3.9753,-4.035,-4.1001,-4.1598,-4.2168,-4.2792,-4.29,-4.29,-4.29,-4.29,-4.29,-4.29,-4.3769,-4.4501,-4.4691,-4.613,-4.7405,-4.8165,-4.8952,-4.9549,-4.9983,0.0,0.0,-5.001,-5.001,-5.001,-5.001,-5.001,-5.001,-5.001,-4.925,-4.8653,-4.8246,-4.7459,-4.6889,-4.6482,-4.7079,-4.7459,-4.7649,-4.8246,0.0,0.0,-4.8762,-4.8762,-4.8762,-4.8762,-4.8762,-4.8762,-4.8762,-4.8762,-4.8844,-4.9788,-5.034,-5.0909,-5.2684,-5.3104,-5.2812,-5.2304,-5.27,-5.3409,-5.3584,-5.3789,-5.3962,-5.4103,-5.4103,-5.4103,-5.4103,-5.4103,-5.4189,-5.438,-5.5099,-5.5796,-5.6001,-5.7189,-5.8174,-5.8174,-5.8632,-5.8771,-5.8012,-5.7702,-5.7116,-5.577,-5.5426,-5.5081,-5.4563,-5.4494,-5.4494,-5.4494,-5.4494,-5.4557,-5.471,-5.5164,-5.5519,-5.5658,-5.6221,-5.6704,-5.7116,-5.7266,-5.7546,-5.7997,-5.7997,-5.7997,-5.7997,-5.7997,-5.7997,-3.9292,-3.9292,-3.9292,-3.9292,-3.9292,-3.9292,-3.9292,-3.9753,-4.035,-4.1001,-4.1598,-4.2168,-4.2792,-4.29,-4.29,-4.29,-4.29,-4.29,-4.29,-4.3416,-4.4013,-4.4637,-4.575,-4.6944,-4.8138,-4.9304,-5.001,0.0,0.0,0.0,-5.001,-5.001,-5.001,-5.001,-5.001,-5.001,-5.001,-4.8843,-4.8246,-4.8219,-4.7052,-4.6482,-4.6482,-4.7079,-4.7676,-4.8273,0.0,0.0,0.0,-4.9983,-4.9983,-4.9983,-4.9983,-4.9983,-4.9983,-4.9983,-4.9983,-5.0014,-5.0568,-5.149,-5.2442,-5.303,-5.3819,-5.4607,-5.3929,-5.3433,-5.3175,-5.3377,-5.3726,-5.4103,-5.4103,-5.4103,-5.4103,-5.4103,-5.4103,-5.4327,-5.5149,-5.5955,-5.6844,-5.7594,-5.8422,-5.9012,-5.9012,-5.9012,-5.8771,-5.8012,-5.7288,-5.6529,-5.5701,-5.4977,-5.4529,-5.4494,-5.4494,-5.4494,-5.4494,-5.4494,-5.471,-5.5343,-5.5402,-5.5658,-5.6276,-5.6809,-5.7116,-5.7116,-5.7679,-5.7997,-5.7997,-5.7997,-5.7997,-5.7997,-5.7997,-5.8088,-4.054,-4.054,-4.054,-4.054,-4.0214,-3.9916,-3.9916,-3.9726,-3.9753,-4.035,-4.0974,-4.1571,-4.2168,-4.2602,-4.29,-4.29,-4.29,-4.29,-4.29,-4.3389,-4.4013,-4.4637,-4.6455,-4.7839,0.0,0.0,-5.001,0.0,0.0,0.0,-5.001,-5.001,-5.001,-5.001,-5.001,-5.001,-5.001,-4.9223,-4.8653,-4.8246,-4.7459,-4.6862,-4.6509,-4.7513,-4.8056,0.0,0.0,0.0,0.0,-5.001,-5.001,-5.001,-5.001,-5.001,-5.001,-5.001,-5.001,-5.0293,-5.2017,-5.278,-5.3377,-5.5047,-5.5586,-5.5345,-5.513,-5.4391,-5.3464,-5.3445,-5.3726,-5.4103,-5.4103,-5.4103,-5.4103,-5.4103,-5.4103,-5.4327,-5.5149,-5.5955,-5.6844,-5.7668,-5.8422,-5.9012,-5.9012,-5.8599,-5.8012,-5.7253,-5.6495,-5.5701,-5.4943,-5.4667,-5.4494,-5.4494,-5.4896,-5.5104,-5.5104,-5.5104,-5.5402,-5.5999,-5.6384,-5.6616,-5.6861,-5.7401,-5.7726,-5.7726,-5.7904,-5.7997,-5.7997,-5.7997,-5.7997,-5.7997,-5.7997,-5.8088,-4.1245,-4.111,-4.1055,-4.0838,-4.0485,-4.0042,-3.9527,-3.9384,-3.9365,-3.9688,-4.0302,-4.1028,-4.1842,-4.2304,-4.2629,-4.2846,-4.29,-4.29,-4.29,-4.3389,-4.4094,-4.4936,-4.6944,0.0,0.0,-4.9304,0.0,0.0,0.0,0.0,-5.001,-5.001,-5.001,-5.001,-5.001,-5.001,-5.001,-4.9196,-4.8599,-4.8246,-4.7405,-4.6835,-4.6509,-4.7703,-4.8246,0.0,0.0,0.0,0.0,-5.001,-5.001,-5.001,-5.001,-5.001,-5.001,-5.001,-5.0208,-5.0851,-5.2779,-5.3727,-5.4347,-5.6244,-5.6269,-5.5653,-5.5501,-5.4761,-5.3923,-5.3508,-5.3726,-5.4103,-5.4103,-5.4103,-5.4103,-5.4103,-5.4327,-5.48,-5.5636,-5.6426,-5.7297,-5.8103,-5.8632,-5.9012,-5.9012,-5.8392,-5.7667,-5.6909,-5.6115,-5.5357,-5.4598,-5.4683,-5.4834,-5.4834,-5.5402,-5.583,-5.6019,-5.5887,-5.5999,-5.6599,-5.6912,-5.7216,-5.7449,-5.7774,-5.7997,-5.7997,-5.7997,-5.7997,-5.7997,-5.7997,-5.7997,-5.7997,-5.7997,-5.8088,0.0,-4.1245,-4.111,-4.0513,-4.035,-3.9887,-3.866,-3.8863,0.0,-3.9176,-3.9677,-4.054,-4.1734,-4.1978,-4.2195,-4.2792,-4.29,-4.29,-4.29,-4.3443,0.0,0.0,-4.7161,0.0,-4.8246,0.0,0.0,0.0,0.0,0.0,-5.001,-5.001,-5.001,-5.001,-5.001,-5.001,-5.001,-4.8843,-4.8246,-4.8219,-4.7052,-4.6482,-4.6509,-4.7649,-4.8192,0.0,0.0,0.0,0.0,-5.001,-5.001,-5.001,-5.001,-5.001,-5.001,-5.001,-5.074,-5.1892,-5.2963,-5.4142,-5.529,-5.6439,-5.63,-5.5748,-5.5287,-5.4818,-5.4251,-5.3565,-5.3726,-5.4103,-5.4103,-5.4103,-5.4103,-5.4157,-5.4768,-5.5555,-5.6503,-5.7297,-5.8031,-5.8875,-5.9012,-5.9012,-5.9012,-5.8357,-5.7598,-5.6909,-5.6081,-5.5288,-5.4598,-5.5018,-5.5402,-5.5402,-5.5999,-5.6546,-5.7065,-5.6652,-5.6599,-5.7116,-5.7166,-5.7449,-5.7997,-5.7997,-5.7997,-5.7997,-5.7997,-5.7997,-5.7997,-5.7997,-5.7997,-5.7997,-5.7997,-5.8133,-4.2548,0.0,-4.2439,-4.2276,-4.1516,-4.0627,0.0,-3.9773,-3.9162,-3.9204,-3.9771,-4.0431,-4.1191,-4.1707,-4.2195,-4.2792,-4.29,-4.29,-4.29,-4.3823,0.0,-4.5505,-4.7161,-4.8246,-4.8246,0.0,0.0,0.0,0.0,-5.001,-5.001,-5.001,-5.001,-5.001,-5.001,-5.001,-5.001,-4.8843,-4.8246,-4.8219,-4.7052,-4.6482,-4.6509,-4.7242,-4.7812,0.0,0.0,0.0,-5.001,-5.001,-5.001,-5.001,-5.001,-5.001,-5.001,-5.001,-5.074,-5.1892,-5.2963,-5.4142,-5.529,-5.6439,-5.6831,-5.6648,-5.6061,-5.5191,-5.4282,-5.389,-5.3931,-5.4103,-5.4103,-5.4103,-5.4242,-5.4851,-5.5149,-5.5683,-5.7189,-5.7668,-5.8031,-5.8875,-5.9012,-5.9012,-5.9012,-5.7909,-5.7012,-5.684,-5.5632,-5.4701,-5.4529,-5.5018,-5.5402,-5.5402,-5.6295,-5.6964,-5.7116,-5.7015,-5.7166,-5.7774,-5.7774,-5.7821,-5.7997,-5.7997,-5.7997,-5.7997,-5.7997,-5.7997,-5.7997,-5.7997,-5.7997,-5.7997,-5.8088,-5.826,-4.29,-4.29,-4.2819,-4.2548,-4.1935,-4.1245,-4.075,-3.9787,-3.9071,-3.9211,-3.9275,-3.9688,-4.0854,-4.1381,-4.1896,-4.2738,-4.29,-4.309,-4.3633,0.0,-4.5126,-4.6265,-4.7486,-4.8355,0.0,0.0,0.0,0.0,0.0,-5.001,-5.001,-5.001,-5.001,-5.001,-4.9739,-4.9603,-4.9603,-4.8707,-4.811,-4.7812,-4.6916,-4.6482,-4.6482,-4.7079,-4.7676,0.0,0.0,0.0,-5.001,-5.001,-5.001,-5.001,-5.001,-5.001,-5.001,-5.0656,-5.1484,-5.2644,-5.3831,-5.4988,-5.6017,-5.6537,-5.6923,-5.696,-5.6497,-5.5717,-5.493,-5.4449,-5.4183,-5.4103,-5.4103,-5.4412,-5.4768,-5.5231,-5.5922,-5.6701,-5.7594,-5.8103,-5.8492,-5.8944,-5.9012,-5.8909,-5.8564,-5.7564,-5.6667,-5.6322,-5.5253,-5.462,-5.4896,-5.5461,-5.5887,-5.613,-5.6964,-5.7498,-5.7498,-5.7498,-5.7642,-5.7997,-5.7997,-5.7997,-5.7997,-5.7997,-5.7997,-5.7997,-5.7997,-5.7997,-5.7997,-5.7997,-5.7997,-5.7997,-5.8133,-5.8356,-4.29,-4.2776,-4.2571,-4.2058,-4.195,-4.1597,-4.0288,-3.9612,-3.9163,-3.8991,-3.8609,-3.8895,-4.048,-4.0962,-4.1462,-4.2575,-4.29,-4.3416,-4.4556,-4.4773,-4.5451,-4.7161,-4.7866,0.0,0.0,0.0,0.0,0.0,0.0,-5.001,-5.001,-4.9928,-4.9874,-4.9874,-4.9304,-4.8952,-4.887,-4.8355,-4.7866,-4.7351,-4.6754,-4.6482,-4.6482,-4.6998,-4.7595,-4.8273,0.0,0.0,-5.001,-5.001,-5.001,-5.001,-5.001,-5.0123,-5.032,-5.1375,-5.2537,-5.3831,-5.4988,-5.6017,-5.6761,-5.6761,-5.6923,-5.7086,-5.6747,-5.6275,-5.5763,-5.5197,-5.4529,-5.4103,-5.4242,-5.4768,-5.5361,-5.5603,-5.6778,-5.7814,-5.7959,-5.8492,-5.9012,-5.9012,-5.9012,-5.8771,-5.8047,-5.7288,-5.6529,-5.5736,-5.5041,-5.4834,-5.5343,-5.5999,-5.6599,-5.7065,-5.7679,-5.7997,-5.7997,-5.7997,-5.7997,-5.7997,-5.7997,-5.7997,-5.7997,-5.7997,-5.7997,-5.7997,-5.7997,-5.7997,-5.7997,-5.7997,-5.7997,-5.7997,-5.8223,-5.8498,-4.29,-4.2387,-4.1868,-4.1789,-4.1762,-4.1406,-4.0016,-3.9737,-3.9475,-3.8316,-3.8609,-3.915,-3.9362,-4.0294,-4.1354,-4.2032,-4.2982,-4.3877,0.0,0.0,-4.5912,-4.7215,0.0,0.0,0.0,0.0,0.0,0.0,0.0,-5.001,-5.001,-4.9549,-4.9277,-4.9277,-4.868,-4.8138,-4.7649,-4.7541,-4.7459,-4.7351,-4.6754,-4.6482,-4.6482,-4.6564,-4.7215,-4.8246,0.0,-4.9006,-5.001,-5.001,-5.001,-5.001,-5.001,-5.0656,-5.1484,-5.1702,-5.3069,-5.4988,-5.6115,-5.6664,-5.6761,-5.6761,-5.7115,-5.7464,-5.7371,-5.6835,-5.6157,-5.6062,-5.5083,-5.4242,-5.4934,-5.5231,-5.5683,-5.7114,-5.756,-5.7959,-5.8632,-5.8944,-5.9012,-5.9012,-5.9012,-5.8771,-5.8047,-5.7288,-5.6529,-5.5736,-5.5444,-5.5284,-5.5402,-5.6295,-5.7015,-5.7116,-5.7679,-5.7997,-5.7997,-5.7997,-5.7997,-5.7997,-5.7997,-5.7997,-5.7997,-5.7997,-5.7997,-5.7997,-5.7997,-5.7997,-5.7997,-5.7997,-5.7997,-5.7997,-5.854,-5.8831,-4.2387,-4.2289,-4.1993,-4.0668,-4.0537,-4.0572,-4.0483,-3.9303,-3.8306,-3.8454,-3.8306,-3.828,-3.8952,-4.0214,-4.1408,-4.2331,0.0,-4.3986,-4.461,-4.5207,-4.6157,0.0,0.0,0.0,0.0,0.0,0.0,0.0,0.0,0.0,-4.9549,-4.9277,-4.8979,-4.8653,-4.8083,-4.7622,-4.7351,-4.7052,-4.6889,-4.6889,-4.6591,-4.6482,-4.6482,-4.6482,-4.7134,-4.8246,0.0,-4.8924,-5.001,-5.001,-5.032,-5.0962,-5.0962,-5.1593,-5.2644,-5.3279,-5.4552,-5.6115,-5.6664,-5.6761,-5.6761,-5.6761,-5.7019,-5.7213,-5.7059,-5.6524,-5.5915,-5.5715,-5.4893,-5.4327,-5.5067,-5.5636,-5.627,-5.7487,-5.8103,-5.8562,-5.8944,-5.9012,-5.9012,-5.9012,-5.9012,-5.8633,-5.7495,-5.7012,-5.6522,-5.5653,-5.5434,-5.5601,-5.624,-5.6773,-5.7216,-5.7546,-5.7821,-5.7997,-5.7997,-5.7997,-5.7997,-5.7997,-5.7997,-5.7997,-5.7997,-5.7997,-5.7997,-5.7997,-5.7997,-5.7997,-5.7997,-5.8231,-5.8369,-5.8375,-5.895,-5.9359,-4.1895,-4.1993,-4.1815,-4.0083,-4.003,-4.0363,-4.0175,-3.8807,-3.7673,-3.8239,-3.7748,-3.7583,-3.8489,-3.9947,0.0,-4.2521,-4.3416,-4.4149,-4.4637,-4.5343,-4.6347,0.0,0.0,0.0,0.0,0.0,0.0,0.0,0.0,0.0,-4.9142,-4.887,-4.849,-4.8056,-4.7459,-4.7161,-4.7161,-4.6699,-4.6482,-4.6482,-4.6482,-4.6482,-4.6482,-4.6482,-4.7134,-4.8246,-4.8246,-4.8924,-5.001,-5.001,-5.0628,-5.1674,-5.1674,-5.2537,-5.3935,-5.5089,-5.6017,-5.6761,-5.6761,-5.6761,-5.6761,-5.6761,-5.6923,-5.696,-5.6497,-5.609,-5.5673,-5.5304,-5.4781,-5.4465,-5.5393,-5.627,-5.7072,-5.7887,-5.8562,-5.9012,-5.9012,-5.9012,-5.9012,-5.9012,-5.8875,-5.8323,-5.7012,-5.6764,-5.6397,-5.5553,-5.5601,-5.6075,-5.7015,-5.7216,-5.7498,-5.795,-5.7997,-5.7997,-5.7997,-5.7997,-5.7997,-5.7997,-5.7997,-5.7997,-5.7997,-5.7997,-5.7997,-5.7997,-5.7997,-5.7997,-5.7997,-5.8412,-5.8632,-5.8676,-5.9359,-5.9798,-4.1895,-4.1145,-4.0588,-4.069,-4.1736,-4.1754,-3.8259,-3.8713,-3.9025,-3.6382,-3.7089,-3.7939,-3.7294,-3.9376,-4.1327,-4.1978,-4.3525,-4.4664,-4.4691,0.0,0.0,0.0,0.0,0.0,0.0,0.0,0.0,0.0,0.0,0.0,-4.9114,-4.8083,-4.7459,-4.7432,-4.6835,-4.6537,-4.6537,-4.6482,-4.6482,-4.6482,-4.6482,-4.6482,-4.6482,-4.6482,-4.7134,-4.8246,-4.8246,-4.8924,-5.001,-5.001,-5.0628,-5.1674,-5.1674,-5.3069,-5.5089,-5.6244,-5.6761,-5.6761,-5.6761,-5.6761,-5.6761,-5.6761,-5.6923,-5.696,-5.6278,-5.5813,-5.5493,-5.562,-5.5313,-5.5181,-5.6224,-5.7147,-5.7887,-5.8702,-5.8944,-5.9012,-5.9012,-5.9012,-5.9012,-5.9012,-5.8461,-5.7736,-5.6943,-5.6662,-5.629,-5.5507,-5.6295,-5.7015,-5.7116,-5.7594,-5.795,-5.7997,-5.7997,-5.7997,-5.7997,-5.7997,-5.7997,-5.7997,-5.7997,-5.7997,-5.7997,-5.7997,-5.7997,-5.7997,-5.7997,-5.7997,-5.7997,-5.8412,-5.8632,-5.8753,-5.9564,-6.0015,-4.0945,-4.0617,-4.0083,-3.8817,-3.9773,-4.0291,-3.8088,-3.7167,-3.6596,-3.6037,-3.6767,-3.7938,-3.9349,-4.0414,-4.1544,-4.29,-4.4013,-4.4827,-4.5207,0.0,0.0,0.0,0.0,0.0,0.0,0.0,0.0,0.0,0.0,0.0,-4.8056,-4.7595,-4.7188,-4.6808,-4.6591,-4.6482,-4.6482,-4.6482,-4.6482,-4.6482,-4.6482,-4.6482,-4.6482,-4.6482,-4.6916,-4.7703,-4.8083,-4.9118,-5.0517,-5.0906,-5.2108,-5.3906,-5.4552,-5.5391,-5.6244,-5.6664,-5.6761,-5.6761,-5.6761,-5.6761,-5.6761,-5.6761,-5.6858,-5.6738,-5.5814,-5.5746,-5.5904,-5.5251,-5.5702,-5.6426,-5.6844,-5.7372,-5.7959,-5.8667,-5.8944,-5.9012,-5.9012,-5.9012,-5.9012,-5.9012,-5.8426,-5.7667,-5.6943,-5.6655,-5.6364,-5.5993,-5.6616,-5.7216,-5.7594,-5.7867,-5.7997,-5.7997,-5.7997,-5.7997,-5.7997,-5.7997,-5.7997,-5.7997,-5.7997,-5.7997,-5.7997,-5.7997,-5.7997,-5.7997,-5.7997,-5.7997,-5.7997,-5.8628,-5.9027,-5.9139,-5.9985,-6.0403,-4.0109,-4.0007,-3.9574,-3.8025,-3.8061,-3.8416,-3.7387,-3.6282,-3.5502,-3.562,-3.6553,-3.8065,-4.0094,-4.095,0.0,0.0,-4.4176,-4.4908,0.0,0.0,0.0,0.0,0.0,0.0,0.0,0.0,0.0,0.0,0.0,0.0,0.0,-4.7188,-4.6889,-4.6482,-4.6482,-4.6482,-4.6482,-4.6482,-4.6482,-4.6482,-4.6482,-4.6482,-4.6482,-4.6482,-4.6808,-4.7405,-4.7975,-4.9198,-5.0831,-5.1421,-5.3069,-5.519,-5.6342,-5.6761,-5.6761,-5.6761,-5.6761,-5.6761,-5.6761,-5.6761,-5.6761,-5.6761,-5.6607,-5.6303,-5.5255,-5.5462,-5.5788,-5.5089,-5.5955,-5.7147,-5.7372,-5.7775,-5.8209,-5.8701,-5.8909,-5.9012,-5.9012,-5.9012,-5.8944,-5.8702,-5.8081,-5.7389,-5.6789,-5.658,-5.6489,-5.6564,-5.7015,-5.7546,-5.795,-5.7997,-5.7997,-5.7997,-5.7997,-5.7997,-5.7997,-5.7997,-5.7997,-5.7997,-5.7997,-5.7997,-5.7997,-5.7997,-5.7997,-5.7997,-5.7997,-5.7997,-5.7997,-5.8791,-5.9287,-5.9424,-6.0237,-6.066,-3.9415,-3.9208,-3.9084,-3.8537,-3.7384,-3.6266,-3.5737,-3.6162,-3.638,-3.5138,-3.6497,-3.8239,-3.8991,-4.0723,0.0,-4.2819,-4.3932,-4.4908,0.0,0.0,0.0,0.0,0.0,0.0,0.0,0.0,0.0,0.0,0.0,0.0,0.0,-4.6781,-4.6482,-4.6482,-4.6482,-4.6482,-4.6482,-4.6482,-4.6482,-4.6482,-4.6482,-4.6482,-4.6482,-4.6482,-4.6808,-4.7378,-4.7975,-4.9171,-5.0803,-5.153,-5.3069,-5.519,-5.6342,-5.6761,-5.6761,-5.6761,-5.6761,-5.6761,-5.6761,-5.6761,-5.6761,-5.6761,-5.6269,-5.5561,-5.4914,-5.4816,-5.5035,-5.526,-5.6113,-5.7072,-5.7735,-5.8348,-5.8771,-5.8805,-5.8909,-5.9012,-5.9012,-5.9012,-5.8806,-5.8047,-5.7288,-5.6725,-5.6545,-5.6383,-5.6492,-5.7015,-5.7594,-5.7997,-5.7997,-5.7997,-5.7997,-5.7997,-5.7997,-5.7997,-5.7997,-5.7997,-5.7997,-5.7997,-5.7997,-5.7997,-5.7997,-5.7997,-5.7997,-5.7997,-5.7997,-5.7997,-5.7997,-5.8791,-5.9287,-5.9424,-6.0237,-6.066,-3.9129,-3.8816,-3.8178,-3.7278,-3.671,-3.617,-3.528,-3.5235,-3.5673,-3.6789,-3.754,-3.8661,-4.0736,-4.1572,0.0,-4.3932,-4.4474,0.0,0.0,0.0,0.0,0.0,0.0,0.0,0.0,0.0,0.0,0.0,0.0,0.0,0.0,-4.6564,-4.6482,-4.6482,-4.6482,-4.6482,-4.6482,-4.6482,-4.6482,-4.6482,-4.6482,-4.6482,-4.6482,-4.6482,-4.6564,-4.6886,-4.8613,-5.017,-5.1539,-5.4179,-5.569,-5.6342,-5.6664,-5.6761,-5.6761,-5.6761,-5.6761,-5.6761,-5.6761,-5.6761,-5.6669,-5.6176,-5.5869,-5.5563,-5.509,-5.5352,-5.597,-5.6151,-5.692,-5.7662,-5.7881,-5.8099,-5.8419,-5.8561,-5.884,-5.9012,-5.9012,-5.9012,-5.8806,-5.8047,-5.7647,-5.7227,-5.6606,-5.672,-5.6912,-5.7065,-5.7594,-5.7997,-5.7997,-5.7997,-5.7997,-5.7997,-5.7997,-5.7997,-5.7997,-5.7997,-5.7997,-5.7997,-5.7997,-5.7997,-5.7997,-5.7997,-5.7997,-5.7997,-5.7997,-5.7997,-5.7997,-5.8624,-5.9065,-5.9389,-6.0023,-6.0494,-3.8607,-3.8396,-3.7733,-3.6675,-3.6411,-3.6122,-3.5064,-3.4823,-3.5357,-3.7157,-3.8012,-3.9025,-4.1149,-4.2004,0.0,-4.4447,0.0,0.0,0.0,0.0,0.0,0.0,0.0,0.0,0.0,0.0,0.0,0.0,0.0,0.0,0.0,-4.6482,-4.6482,-4.6482,-4.6482,-4.6482,-4.6482,-4.6482,-4.6482,-4.6482,-4.6482,-4.6482,-4.6482,-4.6482,-4.6769,-4.7212,-5.0035,-5.1889,-5.3225,-5.578,-5.6761,-5.6761,-5.6761,-5.6761,-5.6761,-5.6761,-5.6761,-5.6761,-5.6761,-5.6577,-5.6269,-5.5838,-5.5596,-5.5345,-5.5096,-5.5654,-5.6432,-5.6591,-5.7256,-5.7881,-5.7881,-5.8027,-5.8277,-5.849,-5.8701,-5.8978,-5.9012,-5.8771,-5.8357,-5.7598,-5.7289,-5.7043,-5.647,-5.6779,-5.7166,-5.7449,-5.7774,-5.7997,-5.7997,-5.7997,-5.7997,-5.7997,-5.7997,-5.7997,-5.7997,-5.7997,-5.7997,-5.7997,-5.7997,-5.7997,-5.7997,-5.7997,-5.7997,-5.7997,-5.7997,-5.7997,-5.7997,-5.854,-5.8949,-5.9213,-5.9899,-6.0321,-3.7974,-3.7974,-3.7733,-3.6675,-3.6338,-3.6002,-3.504,-3.4871,-3.5332,-3.6748,-3.8079,-3.9421,-4.0799,-4.2135,-4.328,-4.4501,0.0,0.0,0.0,0.0,0.0,0.0,0.0,0.0,0.0,0.0,0.0,0.0,0.0,0.0,0.0,-4.6482,-4.6482,-4.6482,-4.6482,-4.6482,-4.6482,-4.6482,-4.6482,-4.6482,-4.6482,-4.6587,-4.6665,-4.6665,-4.7288,-4.8566,-5.1768,-5.3931,-5.52,-5.6311,-5.6761,-5.6761,-5.6761,-5.6761,-5.6761,-5.6761,-5.6761,-5.6761,-5.6669,-5.6238,-5.5653,-5.5625,-5.5374,-5.5019,-5.513,-5.5798,-5.6614,-5.6691,-5.7256,-5.7881,-5.7881,-5.8027,-5.8277,-5.8419,-5.8631,-5.884,-5.8944,-5.8426,-5.7667,-5.7009,-5.6718,-5.6576,-5.6418,-5.6809,-5.7401,-5.795,-5.7997,-5.7997,-5.7997,-5.7997,-5.7997,-5.7997,-5.7997,-5.7997,-5.7997,-5.7997,-5.7997,-5.7997,-5.7997,-5.7997,-5.7997,-5.7997,-5.7997,-5.7997,-5.7997,-5.7997,-5.7997,-5.8535,-5.8828,-5.8949,-5.9772,-6.0208,-3.7974,-3.7974,-3.7733,-3.6675,-3.5785,-3.5112,-3.4871,-3.516,-3.5989,-3.8079,-3.903,-4.0115,-4.2091,-4.2695,-4.328,0.0,0.0,0.0,0.0,0.0,0.0,0.0,0.0,0.0,0.0,0.0,0.0,0.0,0.0,0.0,-4.6482,-4.6482,-4.6482,-4.6482,-4.6482,-4.6482,-4.6482,-4.6482,-4.6482,0.0,-4.6482,-4.695,-4.7643,-4.7643,-4.8981,-5.1372,-5.2688,-5.408,-5.5643,-5.6419,-5.6761,-5.6761,-5.6761,-5.6761,-5.6761,-5.6761,-5.6761,-5.6669,-5.6115,-5.5807,-5.5594,-5.5305,-5.5096,-5.5185,-5.6027,-5.6402,-5.6768,-5.7406,-5.7735,-5.7881,-5.7881,-5.7954,-5.8027,-5.8419,-5.8631,-5.884,-5.8944,-5.8426,-5.7801,-5.7583,-5.7352,-5.7148,-5.6969,-5.7401,-5.7821,-5.7997,-5.7997,-5.7997,-5.7997,-5.7997,-5.7997,-5.7997,-5.7997,-5.7997,-5.7997,-5.7997,-5.7997,-5.7997,-5.7997,-5.7997,-5.7997,-5.7997,-5.7997,-5.7997,-5.7997,-5.8042,-5.8133,-5.8356,-5.8661,-5.9102,-5.9605,-6.003,-3.7974,-3.7974,-3.7733,-3.6675,-3.5617,-3.492,-3.5307,-3.6015,-3.7147,-3.8988,-3.9602,-4.0296,-4.1985,-4.2582,-4.3199,0.0,0.0,0.0,0.0,0.0,0.0,0.0,0.0,0.0,0.0,0.0,0.0,0.0,0.0,-4.6482,-4.6482,-4.6482,-4.6482,-4.6482,-4.6482,-4.6482,-4.6482,-4.6482,-4.6482,-4.6482,-4.695,-4.8021,-4.9455,-4.9455,-5.0514,-5.2282,-5.3118,-5.4138,-5.5253,-5.5653,-5.5776,-5.5776,-5.5776,-5.5776,-5.5776,-5.5776,-5.5776,-5.581,-5.5875,-5.5594,-5.5371,-5.5589,-5.5706,-5.588,-5.6402,-5.6844,-5.7331,-5.7808,-5.7881,-5.7881,-5.7881,-5.7881,-5.8027,-5.8419,-5.8561,-5.8598,-5.8496,-5.8141,-5.7666,-5.7237,-5.7192,-5.7225,-5.7138,-5.7594,-5.7997,-5.7997,-5.7997,-5.7997,-5.7997,-5.7997,-5.7997,-5.7997,-5.7997,-5.7997,-5.7997,-5.7997,-5.7997,-5.7997,-5.7997,-5.7997,-5.7997,-5.7997,-5.7997,-5.7997,-5.7997,-5.8042,-5.8179,-5.8349,-5.8529,-5.8828,-5.9289,-5.9706,-3.7974,-3.7853,-3.7493,-3.6627,-3.5716,-3.5211,-3.5883,-3.692,-3.8187,-3.9547,-3.9901,-4.04,-4.169,-4.2484,-4.309,0.0,0.0,0.0,0.0,0.0,0.0,0.0,0.0,0.0,0.0,0.0,0.0,0.0,0.0,-4.6482,-4.6482,-4.6482,-4.6482,-4.6482,-4.6482,-4.6482,-4.6482,-4.6482,-4.656,-4.6769,-4.792,-4.9484,-5.1109,-5.1296,-5.172,-5.2386,-5.3284,-5.4022,-5.4576,-5.4668,-5.473,-5.473,-5.473,-5.473,-5.473,-5.473,-5.4823,-5.5039,-5.5579,-5.5581,-5.5334,-5.6136,-5.6446,-5.6614,-5.6768,-5.7331,-5.7881,-5.7881,-5.7881,-5.7881,-5.7881,-5.7881,-5.8027,-5.8419,-5.8388,-5.8254,-5.7979,-5.7776,-5.7474,-5.6786,-5.6994,-5.7266,-5.7266,-5.7679,-5.7997,-5.7997,-5.7997,-5.7997,-5.7997,-5.7997,-5.7997,-5.7997,-5.7997,-5.7997,-5.7997,-5.7997,-5.7997,-5.7997,-5.7997,-5.7997,-5.7997,-5.7997,-5.7997,-5.7997,-5.7997,-5.8088,-5.8223,-5.8349,-5.848,-5.8572,-5.8988,-5.9432,-3.7974,-3.73,-3.6579,-3.6435,-3.6088,-3.5883,-3.5978,-3.7404,-3.8677,0.0,-4.0311,-4.169,-4.2582,-4.2803,0.0,0.0,0.0,0.0,0.0,0.0,0.0,0.0,0.0,0.0,0.0,0.0,0.0,0.0,-4.6482,-4.6482,-4.6482,-4.6482,-4.6482,-4.6482,-4.6482,-4.6482,-4.6482,-4.6482,-4.695,-4.7819,-4.9747,-5.0828,-5.1109,-5.2002,-5.2579,-5.2671,-5.3376,-5.3775,-5.3899,-5.4483,-5.473,-5.473,-5.473,-5.473,-5.473,-5.473,-5.5131,-5.5732,-5.5279,-5.5602,-5.6168,-5.6474,-5.6603,-5.6768,-5.748,-5.7808,-5.7881,-5.7881,-5.7881,-5.7881,-5.7881,-5.7881,-5.8027,-5.8419,-5.7978,-5.7534,-5.7842,-5.7776,-5.7595,-5.7313,-5.7608,-5.7867,-5.7867,-5.795,-5.7997,-5.7997,-5.7997,-5.7997,-5.7997,-5.7997,-5.7997,-5.7997,-5.7997,-5.7997,-5.7997,-5.7997,-5.7997,-5.7997,-5.7997,-5.7997,-5.7997,-5.7997,-5.7997,-5.7997,-5.7997,-5.8133,-5.8349,-5.8393,-5.8523,-5.8698,-5.9064,-5.9432,-3.7974,-3.7421,-3.6874,-3.6965,-3.6678,-3.6518,-3.7066,-3.8428,-3.9547,-4.005,-4.1266,-4.2387,-4.2289,-4.2582,0.0,0.0,0.0,0.0,0.0,0.0,0.0,0.0,0.0,0.0,0.0,0.0,0.0,0.0,-4.6482,-4.6482,-4.6482,-4.6482,-4.6482,-4.6482,-4.6482,-4.6482,-4.6482,-4.7053,-4.8122,-4.9776,-5.0639,-5.1419,-5.2002,-5.2518,-5.2698,-5.2729,-5.3037,-5.316,-5.3191,-5.3468,-5.3591,-5.3591,-5.3591,-5.3591,-5.3591,-5.3591,-5.3833,-5.4278,-5.4974,-5.5435,-5.5897,-5.6944,-5.7331,-5.7406,-5.7808,-5.7881,-5.7881,-5.7881,-5.7881,-5.7881,-5.7881,-5.7954,-5.8099,-5.8419,-5.7979,-5.7432,-5.729,-5.7429,-5.7569,-5.7702,-5.785,-5.7997,-5.7997,-5.7997,-5.7997,-5.7997,-5.7997,-5.7997,-5.7997,-5.7997,-5.7997,-5.7997,-5.7997,-5.7997,-5.7997,-5.7997,-5.7997,-5.7997,-5.7997,-5.7997,-5.7997,-5.7997,-5.8042,-5.8088,-5.8042,-5.8133,-5.8393,-5.8393,-5.8523,-5.8698,-5.8865,-5.914,-3.7974,-3.7589,-3.7291,-3.769,-3.7344,-3.7228,-3.8227,-3.9402,-4.0428,0.0,-4.2059,-4.2679,-4.2092,-4.2484,-4.29,0.0,0.0,0.0,0.0,0.0,0.0,0.0,0.0,0.0,0.0,0.0,0.0,0.0,-4.6482,-4.6482,-4.6482,-4.6482,-4.6482,-4.6482,-4.6482,-4.6482,-4.6482,-4.7745,-4.9288,-5.1109,-5.1419,-5.1911,-5.2698,-5.2698,-5.2698,-5.2698,-5.2698,-5.2698,-5.2698,-5.2698,-5.2698,-5.2698,-5.2698,-5.2698,-5.2698,-5.2698,-5.2966,-5.3521,-5.4819,-5.5636,-5.6192,-5.748,-5.7881,-5.7881,-5.7881,-5.7881,-5.7881,-5.7881,-5.7881,-5.7881,-5.7954,-5.8099,-5.8209,-5.8251,-5.7741,-5.7258,-5.7022,-5.7046,-5.7317,-5.792,-5.7997,-5.7997,-5.7997,-5.7997,-5.7997,-5.7997,-5.7997,-5.7997,-5.7997,-5.7997,-5.7997,-5.7997,-5.7997,-5.7997,-5.7997,-5.7997,-5.7997,-5.7997,-5.7997,-5.7997,-5.7997,-5.7997,-5.8042,-5.8215,-5.8088,-5.8179,-5.8437,-5.8437,-5.8486,-5.8698,-5.8698,-5.8905,-3.7974,-3.7589,-3.7387,-3.816,-3.8063,-3.8023,-3.8845,-4.0094,-4.1017,-4.111,-4.2059,-4.29,-4.29,-4.29,-4.29,-4.29,-4.3389,0.0,0.0,0.0,0.0,0.0,0.0,0.0,0.0,0.0,0.0,0.0,-4.6482,-4.6482,-4.6482,-4.6482,-4.6482,-4.6482,-4.6482,-4.6482,-4.6482,-4.8496,-5.0066,-5.1109,-5.2124,-5.2608,-5.2698,-5.2698,-5.2698,-5.2698,-5.2698,-5.2698,-5.2698,-5.2698,-5.2698,-5.2698,-5.2698,-5.2698,-5.2698,-5.2698,-5.3782,-5.5231,-5.5312,-5.6348,-5.7808,-5.7881,-5.7881,-5.7881,-5.7881,-5.7881,-5.7881,-5.7881,-5.7881,-5.7954,-5.8099,-5.8171,-5.8072,-5.7706,-5.7123,-5.6729,-5.7211,-5.6827,-5.6688,-5.7774,-5.7997,-5.7997,-5.7997,-5.7997,-5.7997,-5.7997,-5.7997,-5.7997,-5.7997,-5.7997,-5.7997,-5.7997,-5.7997,-5.7997,-5.7997,-5.7997,-5.7997,-5.7997,-5.7997,-5.7997,-5.7997,-5.7997,-5.8042,-5.8215,-5.8179,-5.8268,-5.8492,-5.8492,-5.8572,-5.8698,-5.8698,-5.8905,-3.7974,-3.7829,-3.7927,-3.8894,-3.9114,-3.9117,-3.9707,-4.0788,-4.1571,-4.1191,-4.2059,-4.29,-4.29,-4.29,-4.29,-4.29,-4.3063,-4.3199,-4.3199,-4.3715,0.0,0.0,0.0,0.0,0.0,0.0,0.0,0.0,0.0,-4.5505,-4.5885,-4.5912,-4.6075,-4.6455,-4.6482,-4.7157,-4.8524,-4.9844,-5.1139,-5.2124,-5.2518,-5.2698,-5.2698,-5.2698,-5.2698,-5.2698,-5.2698,-5.2698,-5.2698,-5.2698,-5.2698,-5.2698,-5.2698,-5.3024,-5.349,-5.349,-5.4232,-5.5393,-5.5955,-5.6536,-5.7181,-5.7735,-5.7881,-5.7881,-5.7881,-5.7881,-5.7881,-5.7881,-5.7954,-5.8099,-5.8171,-5.8419,-5.8323,-5.7361,-5.6824,-5.6554,-5.668,-5.6725,-5.7065,-5.7821,-5.7997,-5.7997,-5.7997,-5.7997,-5.7997,-5.7997,-5.7997,-5.7997,-5.7997,-5.7997,-5.7997,-5.7997,-5.7997,-5.7997,-5.7997,-5.7997,-5.7997,-5.7997,-5.7997,-5.7997,-5.7997,-5.7997,-5.8088,-5.8349,-5.8349,-5.8356,-5.8492,-5.8492,-5.8572,-5.8698,-5.8908,-5.9102,-3.7974,-3.8185,-3.8613,-3.9576,-3.9947,-4.005,-4.0453,-4.1272,-4.1842,-4.1245,-4.2059,-4.29,-4.29,-4.29,-4.29,-4.29,-4.29,-4.29,-4.29,-4.3226,-4.347,-4.347,0.0,0.0,0.0,0.0,0.0,0.0,0.0,0.0,-4.5288,-4.5288,-4.556,-4.6157,-4.6764,-4.7847,-4.9582,-5.0639,-5.1604,-5.2698,-5.2698,-5.2698,-5.2698,-5.2698,-5.2698,-5.2698,-5.2698,-5.2698,-5.2698,-5.2698,-5.2698,-5.2698,-5.3024,-5.3521,-5.4062,-5.4317,-5.4985,-5.5796,-5.6381,-5.6768,-5.7181,-5.7735,-5.7881,-5.7881,-5.7881,-5.7881,-5.7881,-5.7881,-5.8027,-5.8205,-5.8277,-5.8184,-5.791,-5.6928,-5.6431,-5.6235,-5.6492,-5.6861,-5.7266,-5.7867,-5.7997,-5.7997,-5.7997,-5.7997,-5.7997,-5.7997,-5.7997,-5.7997,-5.7997,-5.7997,-5.7997,-5.7997,-5.7997,-5.7997,-5.7997,-5.7997,-5.7997,-5.7997,-5.7997,-5.7997,-5.7997,-5.7997,-5.8133,-5.8393,-5.8393,-5.848,-5.8572,-5.8572,-5.8661,-5.8865,-5.9065,-5.9323,0.0,0.0,0.0,-4.0211,-4.0603,-4.0861,-4.1086,0.0,-4.1869,-4.1272,-4.2059,-4.29,-4.29,-4.29,-4.29,-4.29,-4.29,-4.29,-4.29,-4.29,-4.29,-4.29,-4.29,-4.3118,-4.3687,-4.3742,-4.3986,0.0,-4.4664,-4.4664,-4.4664,-4.4691,-4.5064,-4.5663,-4.7207,-4.8596,-4.965,-5.0639,-5.1697,-5.2698,-5.2698,-5.2698,-5.2698,-5.2698,-5.2698,-5.2698,-5.2698,-5.2698,-5.2698,-5.2698,-5.2698,-5.2788,-5.3664,-5.3976,-5.4147,-5.5067,-5.5876,-5.6614,-5.6614,-5.7181,-5.7881,-5.7881,-5.7881,-5.7881,-5.7881,-5.7881,-5.7881,-5.7881,-5.8027,-5.8243,-5.8456,-5.7638,-5.6759,-5.6519,-5.5929,-5.5716,-5.6861,-5.7116,-5.7266,-5.7904,-5.7997,-5.7997,-5.7997,-5.7997,-5.7997,-5.7997,-5.7997,-5.7997,-5.7997,-5.7997,-5.7997,-5.7997,-5.7997,-5.7997,-5.7997,-5.7997,-5.7997,-5.7997,-5.7997,-5.7997,-5.7997,-5.7997,-5.8133,-5.8393,-5.8393,-5.8523,-5.8698,-5.8698,-5.8905,-5.9215,-5.9252,-5.9601,-3.7974,0.0,0.0,0.0,0.0,0.0,0.0,0.0,-4.2466,-4.1896,-4.2358,-4.29,-4.29,-4.29,-4.29,-4.29,-4.29,-4.29,-4.29,-4.29,-4.29,-4.29,-4.29,-4.2955,-4.3118,-4.3145,0.0,0.0,-4.3389,-4.3579,-4.4013,-4.5117,-4.6378,-4.7755,-4.8894,-4.9852,-5.0733,-5.1727,-5.2427,-5.2698,-5.2698,-5.2698,-5.2698,-5.2698,-5.2698,-5.2698,-5.2698,-5.2698,-5.2698,-5.2698,-5.2698,-5.2788,-5.3664,-5.4401,-5.5067,-5.5955,-5.6768,-5.7554,-5.7554,-5.7735,-5.7881,-5.7881,-5.7881,-5.7881,-5.7881,-5.7881,-5.7954,-5.8099,-5.8277,-5.8353,-5.8153,-5.7015,-5.6067,-5.6414,-5.6281,-5.6276,-5.6964,-5.7449,-5.7774,-5.7997,-5.7997,-5.7997,-5.7997,-5.7997,-5.7997,-5.7997,-5.7997,-5.7997,-5.7997,-5.7997,-5.7997,-5.7997,-5.7997,-5.7997,-5.7997,-5.7997,-5.7997,-5.7997,-5.7997,-5.7997,-5.7997,-5.7997,-5.8133,-5.8393,-5.8393,-5.8523,-5.8698,-5.8947,-5.9103,-5.9215,-5.9772,-6.0227,-3.7974,-3.8477,-3.9208,-4.0211,0.0,0.0,-4.1923,-4.2466,-4.2711,0.0,-4.2466,-4.29,-4.29,-4.29,-4.29,-4.29,-4.29,-4.29,-4.29,-4.29,-4.29,-4.29,-4.29,-4.29,-4.29,-4.29,-4.29,-4.29,-4.29,-4.3339,-4.4373,-4.5219,-4.6537,-4.8217,-4.9419,-5.0301,-5.069,-5.1972,-5.2698,-5.2698,-5.2698,-5.2698,-5.2698,-5.2698,-5.2698,-5.2698,-5.2698,-5.2698,-5.2698,-5.3113,-5.3258,-5.3346,-5.4232,-5.5035,-5.5955,-5.6844,-5.748,-5.7881,-5.7881,-5.7881,-5.7881,-5.7881,-5.7881,-5.7881,-5.7881,-5.7881,-5.7881,-5.8027,-5.8038,-5.7911,-5.7566,-5.6529,-5.575,-5.6282,-5.6375,-5.6438,-5.7015,-5.7546,-5.7997,-5.7997,-5.7997,-5.7997,-5.7997,-5.7997,-5.7997,-5.7997,-5.7997,-5.7997,-5.7997,-5.7997,-5.7997,-5.7997,-5.7997,-5.7997,-5.7997,-5.7997,-5.7997,-5.7997,-5.7997,-5.7997,-5.7997,-5.8042,-5.8179,-5.8393,-5.8437,-5.8661,-5.914,-5.9178,-5.9361,-5.9668,-6.0227,-6.0597,-3.7974,-3.9104,-4.0313,-4.0414,-4.1544,0.0,-4.2222,-4.2493,-4.2738,0.0,-4.2521,-4.29,-4.29,-4.29,-4.29,-4.29,-4.29,-4.29,-4.29,-4.29,-4.29,-4.29,-4.29,-4.29,-4.29,-4.29,-4.29,-4.29,-4.297,-4.3767,-4.5373,-4.5496,-4.6252,-4.7946,-4.9429,-5.0154,-5.0335,-5.1788,-5.2637,-5.2698,-5.2698,-5.2698,-5.2698,-5.2698,-5.2698,-5.2698,-5.2698,-5.2698,-5.2788,-5.3664,-5.3976,-5.4062,-5.5067,-5.5955,-5.6691,-5.7554,-5.7881,-5.7881,-5.7881,-5.7881,-5.7881,-5.7881,-5.7881,-5.7881,-5.7881,-5.7881,-5.7881,-5.7853,-5.7562,-5.7158,-5.6774,-5.6081,-5.5605,-5.6085,-5.6221,-5.633,-5.6912,-5.7449,-5.7821,-5.7904,-5.795,-5.7997,-5.7997,-5.7997,-5.7997,-5.7997,-5.7997,-5.7997,-5.7997,-5.7997,-5.7997,-5.7997,-5.7997,-5.7997,-5.7997,-5.7997,-5.7997,-5.7997,-5.7997,-5.7997,-5.7997,-5.8133,-5.826,-5.8393,-5.8529,-5.8988,-5.9874,-5.9502,-5.9668,-6.0349,-6.0685,-6.0781,-3.7974,-3.8712,-3.9622,0.0,0.0,0.0,-4.2641,-4.2819,-4.2846,0.0,-4.2819,-4.29,-4.29,-4.29,-4.29,-4.29,-4.29,-4.29,-4.29,-4.29,-4.29,-4.29,-4.29,-4.29,-4.29,-4.29,-4.29,-4.29,-4.3586,-4.4781,-4.6403,-4.7164,-4.8387,-5.0114,-5.0441,-5.0866,-5.1386,-5.1748,-5.2175,-5.2698,-5.2698,-5.2698,-5.2698,-5.2698,-5.2698,-5.2698,-5.2698,-5.2698,-5.2788,-5.3664,-5.3976,-5.4147,-5.5716,-5.6459,-5.6691,-5.7554,-5.7881,-5.7881,-5.7881,-5.7881,-5.7881,-5.7881,-5.7881,-5.7881,-5.7881,-5.7881,-5.7819,-5.7494,-5.7158,-5.6774,-5.6046,-5.5288,-5.4856,-5.5437,-5.5578,-5.5716,-5.633,-5.6546,-5.6757,-5.7166,-5.7679,-5.7997,-5.7997,-5.7997,-5.7997,-5.7997,-5.7997,-5.7997,-5.7997,-5.7997,-5.7997,-5.7997,-5.7997,-5.7997,-5.7997,-5.7997,-5.7997,-5.7997,-5.7997,-5.7997,-5.7997,-5.8133,-5.826,-5.8393,-5.8828,-5.943,-6.0208,-6.0112,-6.0293,-6.071,-6.0757,-6.0781,0.0,0.0,0.0,-4.0313,0.0,0.0,0.0,-4.29,-4.29,-4.29,-4.29,-4.29,-4.29,-4.29,-4.29,-4.29,-4.29,-4.29,-4.29,-4.29,-4.29,-4.29,-4.29,-4.29,-4.29,-4.29,-4.3067,-4.3586,-4.4031,-4.5217,-4.7405,-4.7911,-4.8947,-5.0667,-5.0697,-5.0851,-5.119,-5.1528,-5.1867,-5.2206,-5.2544,-5.2698,-5.2698,-5.2698,-5.2698,-5.2698,-5.2698,-5.2966,-5.3434,-5.4317,-5.4902,-5.5393,-5.627,-5.6844,-5.7331,-5.7735,-5.7881,-5.7881,-5.7881,-5.7881,-5.7881,-5.7881,-5.7881,-5.7881,-5.7881,-5.7954,-5.7929,-5.7464,-5.7021,-5.6466,-5.574,-5.5046,-5.4683,-5.5284,-5.5402,-5.5519,-5.5773,-5.6111,-5.6384,-5.6652,-5.7166,-5.7679,-5.795,-5.7997,-5.7997,-5.7997,-5.7997,-5.7997,-5.7997,-5.7997,-5.7997,-5.7997,-5.7997,-5.7997,-5.7997,-5.7997,-5.7997,-5.7997,-5.8042,-5.8042,-5.7997,-5.8223,-5.8492,-5.8788,-5.9252,-5.9772,-6.0293,-6.0468,-6.066,-6.0781,-6.0781,-6.0781,0.0,0.0,0.0,0.0,0.0,-4.29,0.0,0.0,0.0,0.0,0.0,0.0,-4.29,0.0,0.0,0.0,0.0,0.0,0.0,-4.2819,0.0,-4.29,-4.29,-4.29,-4.29,-4.3067,-4.3519,-4.4219,-4.4684,-4.5859,-4.8059,-4.8353,-4.9152,-5.0667,-5.0697,-5.0697,-5.0697,-5.1251,-5.1559,-5.1713,-5.2267,-5.2575,-5.2698,-5.2698,-5.2698,-5.2698,-5.2698,-5.3201,-5.4062,-5.4985,-5.5796,-5.6614,-5.6768,-5.7256,-5.7881,-5.7881,-5.7881,-5.7881,-5.7881,-5.7881,-5.7881,-5.7881,-5.7881,-5.7881,-5.7881,-5.7925,-5.7868,-5.7259,-5.6713,-5.6159,-5.5533,-5.4943,-5.462,-5.5104,-5.5224,-5.5224,-5.5224,-5.5601,-5.5999,-5.6276,-5.6652,-5.7166,-5.7867,-5.7997,-5.7997,-5.7997,-5.7997,-5.7997,-5.7997,-5.7997,-5.7997,-5.7997,-5.7997,-5.7997,-5.7997,-5.7997,-5.7997,-5.7997,-5.8133,-5.8133,-5.8042,-5.8406,-5.8828,-5.9325,-5.9706,-6.0061,-6.0376,-6.0685,-6.0781,-6.0781,-6.0781,-6.0781,0.0,0.0,0.0,0.0,-4.1644,0.0,0.0,0.0,-4.29,-4.29,0.0,0.0,-4.29,0.0,0.0,0.0,0.0,0.0,-4.2168,-4.2548,-4.29,-4.29,-4.29,-4.29,-4.29,-4.3681,-4.4219,-4.4312,-4.5929,-4.7314,-4.8147,-4.9022,-4.9904,-5.0667,-5.0697,-5.0697,-5.0697,-5.0759,-5.1097,-5.1713,-5.1775,-5.2144,-5.2698,-5.2698,-5.2698,-5.2698,-5.2698,-5.3201,-5.4062,-5.4985,-5.5796,-5.6691,-5.748,-5.7808,-5.7881,-5.7881,-5.7881,-5.7881,-5.7881,-5.7881,-5.7881,-5.7881,-5.7881,-5.7881,-5.7881,-5.7695,-5.7225,-5.6543,-5.5992,-5.5499,-5.4839,-5.4563,-5.4494,-5.4557,-5.462,-5.462,-5.462,-5.4683,-5.5018,-5.6111,-5.633,-5.6757,-5.7821,-5.7997,-5.7997,-5.7997,-5.7997,-5.7997,-5.7997,-5.7997,-5.7997,-5.7997,-5.7997,-5.7997,-5.7997,-5.7997,-5.7997,-5.7997,-5.8133,-5.8179,-5.8215,-5.8706,-5.9215,-5.9706,-6.0091,-6.0403,-6.0734,-6.0781,-6.0781,-6.0781,-6.0781,-6.0781,0.0,0.0,0.0,0.0,0.0,0.0,-4.29,0.0,-4.29,0.0,0.0,0.0,0.0,0.0,0.0,0.0,-4.2711,0.0,0.0,0.0,-4.29,0.0,0.0,0.0,-4.29,-4.3232,-4.3965,-4.5052,-4.5958,-4.6961,-4.8384,-4.9266,-4.9805,-5.0112,-5.0482,-5.0697,-5.0697,-5.0697,-5.082,-5.1128,-5.1498,-5.1867,-5.2144,-5.2544,-5.2698,-5.2698,-5.2698,-5.3521,-5.4819,-5.5149,-5.6113,-5.7406,-5.7735,-5.7881,-5.7881,-5.7881,-5.7881,-5.7881,-5.7881,-5.7881,-5.7881,-5.7881,-5.7881,-5.7881,-5.8027,-5.7732,-5.7158,-5.6576,-5.6022,-5.546,-5.4701,-5.4494,-5.4494,-5.4494,-5.4494,-5.4494,-5.4494,-5.4494,-5.4834,-5.6055,-5.6276,-5.6652,-5.7774,-5.7997,-5.7997,-5.7997,-5.7997,-5.7997,-5.7997,-5.7997,-5.7997,-5.7997,-5.7997,-5.7997,-5.7997,-5.7997,-5.8042,-5.8088,-5.826,-5.8393,-5.8486,-5.8868,-5.9289,-5.9809,-6.015,-6.0468,-6.0781,-6.0781,-6.0781,-6.0781,-6.0781,-6.0781,-3.7974,0.0,0.0,0.0,0.0,0.0,0.0,0.0,0.0,0.0,0.0,0.0,0.0,0.0,-4.2846,-4.2683,0.0,-4.2819,0.0,-4.2792,0.0,0.0,0.0,0.0,0.0,-4.3163,-4.3965,-4.5689,-4.6048,-4.6929,-4.8521,-4.9097,-4.9497,-4.9682,-5.0174,-5.0513,-5.0697,-5.0697,-5.0697,-5.0697,-5.119,-5.1436,-5.1436,-5.2144,-5.2452,-5.2452,-5.2874,-5.3922,-5.5312,-5.5555,-5.6503,-5.7881,-5.7881,-5.7881,-5.7881,-5.7881,-5.7881,-5.7881,-5.7881,-5.7881,-5.7881,-5.7881,-5.7954,-5.7993,-5.7967,-5.7496,-5.6953,-5.6335,-5.5778,-5.5184,-5.4667,-5.462,-5.471,-5.4557,-5.471,-5.4896,-5.4557,-5.462,-5.5044,-5.6111,-5.6276,-5.6652,-5.7774,-5.7997,-5.7997,-5.7997,-5.7997,-5.7997,-5.7997,-5.7997,-5.7997,-5.7997,-5.7997,-5.7997,-5.7997,-5.8042,-5.8133,-5.8268,-5.8356,-5.8529,-5.8825,-5.914,-5.9502,-5.9937,-6.0265,-6.0546,-6.0781,-6.0781,-6.0781,-6.0781,-6.0781,-6.0781,0.0,0.0,0.0,-3.9208,0.0,0.0,0.0,0.0,-4.29,0.0,0.0,0.0,0.0,-4.29,-4.2711,-4.2114,-4.2521,0.0,0.0,0.0,0.0,0.0,0.0,0.0,0.0,-4.3681,-4.4684,-4.5689,-4.6667,-4.7563,-4.8521,-4.8635,-4.8974,-4.9651,-4.9712,-5.002,-5.0697,-5.0697,-5.0697,-5.0697,-5.0728,-5.0728,-5.0759,-5.1436,-5.1744,-5.1863,-5.3295,-5.4485,-5.5393,-5.6192,-5.7105,-5.7881,-5.7881,-5.7881,-5.7881,-5.7881,-5.7881,-5.7881,-5.7881,-5.7881,-5.7881,-5.7881,-5.8027,-5.8069,-5.7355,-5.6884,-5.6402,-5.5647,-5.5021,-5.4529,-5.4529,-5.4957,-5.5224,-5.462,-5.5402,-5.5943,-5.471,-5.4957,-5.5543,-5.6166,-5.6276,-5.6652,-5.7774,-5.7997,-5.7997,-5.7997,-5.7997,-5.7997,-5.7997,-5.7997,-5.7997,-5.7997,-5.7997,-5.7997,-5.7997,-5.8088,-5.8268,-5.8486,-5.8492,-5.8706,-5.9178,-5.9571,-5.9969,-6.0265,-6.0597,-6.0781,-6.0781,-6.0781,-6.0781,-6.0781,-6.0781,-6.0781,0.0,0.0,-3.9233,-3.9233,0.0,0.0,0.0,0.0,0.0,0.0,0.0,0.0,0.0,-4.29,-4.2819,-4.2629,-4.2765,-4.2819,0.0,-4.2765,0.0,0.0,0.0,0.0,0.0,0.0,-4.4059,-4.5689,-4.6137,-4.6929,-4.8521,-4.8604,-4.8727,-4.8974,-4.9435,-4.9805,-5.002,-5.0482,-5.0482,-5.002,-5.0482,-5.0451,-5.0051,-5.0728,-5.1351,-5.1831,-5.2387,-5.3439,-5.47,-5.5038,-5.5936,-5.7171,-5.7171,-5.7476,-5.7881,-5.7881,-5.7881,-5.7881,-5.7881,-5.7881,-5.7814,-5.7484,-5.7386,-5.7392,-5.685,-5.6234,-5.5716,-5.5572,-5.5017,-5.4494,-5.4494,-5.4683,-5.4834,-5.5079,-5.5402,-5.5716,-5.5658,-5.583,-5.6166,-5.6757,-5.6861,-5.7065,-5.7867,-5.7997,-5.7997,-5.7997,-5.7997,-5.7997,-5.7997,-5.7997,-5.7997,-5.7997,-5.7997,-5.8042,-5.8133,-5.8312,-5.8443,-5.8529,-5.8572,-5.8825,-5.9178,-5.9571,-5.9969,-6.0293,-6.0622,-6.0781,-6.0781,-6.0781,-6.0781,-6.0781,-6.0781,-6.0781,-3.7974,-3.8396,0.0,-3.9129,-4.0236,0.0,-4.1597,0.0,0.0,0.0,0.0,0.0,0.0,-4.29,-4.29,-4.29,-4.29,-4.29,0.0,-4.29,0.0,0.0,0.0,-4.3067,0.0,-4.3423,-4.4247,-4.6137,-4.6314,-4.6929,-4.8521,-4.8604,-4.8604,-4.8604,-4.9066,-4.9435,-4.9682,-5.0112,-5.0236,-5.0051,-5.0236,-5.0112,-4.9682,-5.0143,-5.0638,-5.1111,-5.1991,-5.2971,-5.3977,-5.4608,-5.5453,-5.6427,-5.6427,-5.6697,-5.7171,-5.7712,-5.7881,-5.7881,-5.7881,-5.7712,-5.748,-5.7182,-5.6983,-5.6678,-5.6267,-5.585,-5.5572,-5.5878,-5.5288,-5.4632,-5.5184,-5.5251,-5.5164,-5.5343,-5.5887,-5.633,-5.633,-5.6438,-5.6704,-5.7015,-5.7116,-5.7266,-5.7904,-5.7997,-5.7997,-5.7997,-5.7997,-5.7997,-5.7997,-5.7997,-5.7997,-5.7997,-5.8042,-5.8133,-5.8312,-5.8443,-5.8492,-5.8572,-5.8743,-5.9025,-5.9397,-5.9772,-6.0417,-6.1376,-6.1017,-6.1089,-6.1704,-6.1089,-6.0781,-6.0781,-6.0781,-6.0804]}]]